GFSMW_sfc_thetae_000.txt.gz
Theta_e
311 314 315 315 313 314 311 311 310 311 309 309 308 307 307 309 310 310 311 311 310 309 308 307 306 307 305 304 304 303 302 301 303 300 299 300 301 302 307 315 321 322 323
309 311 313 314 313 312 312 310 310 310 309 308 308 308 309 308 309 309 310 310 310 309 308 307 305 305 304 304 304 303 300 301 302 299 297 294 296 301 303 306 313 317 321
307 309 312 312 313 312 312 311 310 310 310 309 308 308 308 307 305 305 307 309 309 310 309 308 306 305 305 303 303 302 301 298 300 300 298 293 292 295 298 300 301 304 312
309 309 311 311 313 312 314 312 311 310 310 310 306 306 303 301 303 304 305 306 309 308 308 308 307 305 305 303 304 303 303 301 297 300 302 299 298 294 293 297 299 300 300
309 308 308 310 311 312 313 312 312 311 310 310 308 306 304 304 305 305 306 305 306 306 306 306 305 304 304 303 302 302 302 301 299 299 298 298 298 298 296 293 295 298 299
308 308 310 310 310 313 313 314 312 310 311 310 309 307 304 305 304 304 302 303 303 303 304 303 301 301 301 300 299 299 299 299 298 298 298 297 296 295 295 294 295 295 296
307 308 308 309 310 311 312 313 312 309 310 310 309 307 306 305 304 304 302 301 299 299 299 299 298 298 297 298 297 296 296 296 296 295 295 296 296 297 296 293 292 292 295
309 308 310 311 311 312 312 311 310 309 309 309 309 308 307 305 304 303 300 298 297 297 298 297 297 297 297 296 296 295 295 295 295 295 296 296 296 296 296 294 293 291 292
308 309 310 310 311 311 311 310 310 310 309 309 309 307 306 303 301 301 299 297 298 297 298 297 296 296 296 295 295 293 293 294 294 294 295 295 296 297 296 296 295 292 288
308 309 309 309 310 310 311 311 311 308 307 307 305 302 301 300 298 298 297 296 296 296 296 295 295 294 294 294 293 292 293 293 293 294 293 293 294 294 295 295 296 296 293
308 308 309 309 309 310 308 308 306 304 304 303 301 299 298 298 297 296 295 295 296 295 294 294 293 293 292 292 291 291 291 291 291 291 291 292 292 292 293 293 294 293 293
307 306 307 308 308 307 307 307 304 303 301 300 298 297 296 296 294 294 295 296 294 295 294 293 293 292 291 291 290 289 290 289 289 289 289 290 292 290 291 291 291 292 292
305 305 306 306 306 306 306 306 302 301 300 297 296 295 294 294 294 294 295 294 294 293 293 292 291 291 290 290 289 289 289 288 288 288 288 288 289 288 289 290 290 291 292
305 305 304 305 305 305 305 303 300 301 298 296 295 294 294 295 295 294 294 294 293 292 291 291 290 290 289 289 289 288 287 287 288 288 288 288 287 286 287 287 287 288 288
303 303 303 303 303 304 304 301 300 299 298 296 295 296 296 296 295 294 293 293 292 291 291 289 288 288 289 288 287 287 285 285 285 285 285 285 286 288 287 286 285 285 285
302 302 302 301 302 303 303 298 298 298 297 295 297 297 296 295 293 293 292 291 291 289 288 287 287 287 288 288 288 287 284 284 283 282 283 283 285 285 286 286 286 286 283
301 302 300 301 302 302 299 297 298 299 298 297 296 295 295 293 292 292 291 289 287 287 286 286 286 285 286 288 288 286 283 282 282 282 282 282 284 284 284 285 286 286 286
301 301 301 302 302 299 297 298 299 298 296 295 295 295 293 291 291 290 288 286 286 285 284 284 285 284 285 286 286 285 282 281 282 282 282 282 282 283 284 283 283 285 286
301 301 302 301 298 297 297 297 297 296 295 294 292 292 291 290 289 287 285 285 284 284 284 284 283 282 282 285 284 284 282 282 282 283 283 283 282 284 285 284 283 282 283
301 300 300 298 297 296 297 296 296 295 292 292 291 290 290 289 287 285 284 284 284 283 283 282 283 284 281 284 285 285 283 282 282 284 284 285 285 284 285 283 282 281 282
299 300 298 295 296 297 297 294 292 291 290 290 290 289 289 287 286 285 284 283 282 282 281 279 281 281 282 282 285 285 283 282 281 281 281 282 284 284 285 285 283 282 284
298 297 295 295 296 296 295 291 288 288 289 289 288 288 287 286 286 284 282 282 282 280 279 278 279 280 280 283 283 283 283 283 281 281 282 283 284 284 284 284 284 284 283
295 295 295 295 295 294 291 289 288 288 288 287 287 286 286 285 284 282 281 281 281 280 279 279 278 278 280 281 282 282 283 283 281 281 282 283 284 284 283 283 283 282 281
293 295 294 292 291 292 289 288 288 288 287 285 285 284 283 283 282 282 282 280 279 279 279 277 277 278 279 279 280 280 282 283 282 282 282 281 281 281 282 282 283 283 283
293 294 292 292 290 289 288 288 287 287 285 284 283 283 283 281 281 281 281 280 280 280 278 278 278 278 276 278 281 282 282 282 282 281 282 281 280 279 280 281 284 282 281
293 292 292 290 289 288 288 288 287 285 283 282 283 282 281 281 281 281 280 283 282 283 283 282 280 279 280 282 283 283 284 283 283 281 279 277 277 278 278 279 281 282 280

GFSMW_sfc_thetae_003.txt.gz
Theta_e
303 306 306 304 304 303 303 303 303 303 303 301 301 300 300 302 303 303 307 307 306 305 303 302 303 303 301 301 300 300 299 298 299 297 297 297 298 298 300 304 311 317 322
302 304 305 303 303 303 303 302 303 303 302 302 301 301 300 301 302 303 304 306 305 305 304 303 300 301 300 299 299 300 298 298 299 296 295 292 295 297 299 300 304 306 312
300 302 304 303 303 302 303 304 303 303 303 302 301 301 301 301 299 300 302 303 305 305 304 303 302 301 300 299 300 298 297 295 298 298 296 293 291 294 297 298 299 300 303
302 302 301 300 303 304 304 305 305 305 304 303 300 300 299 298 299 300 300 302 304 305 305 304 303 302 300 300 300 302 299 298 295 297 300 298 297 294 293 296 298 300 300
301 301 300 301 301 304 304 305 305 305 306 304 302 300 298 300 301 301 301 300 303 304 304 302 302 301 300 299 297 297 297 298 297 297 296 296 297 297 295 292 296 297 299
300 302 302 304 303 305 304 304 304 305 305 305 304 302 301 301 300 300 299 300 300 299 299 298 297 296 296 296 296 296 294 294 295 296 296 294 294 294 294 292 293 294 294
300 302 300 302 303 304 304 304 305 305 305 304 304 304 303 301 300 300 297 297 295 296 295 296 296 296 296 296 296 295 294 294 293 293 294 295 294 294 293 292 290 290 292
302 301 301 303 303 304 304 304 305 306 305 304 303 304 303 303 302 301 298 294 294 295 295 295 295 295 295 295 295 294 293 293 293 292 292 294 295 296 295 293 291 289 290
303 301 302 303 303 303 304 302 302 304 304 302 301 299 299 297 295 293 294 294 295 295 294 294 293 294 294 295 294 293 292 292 292 293 293 293 294 294 295 295 294 291 287
301 302 302 303 303 303 302 302 302 301 300 297 296 295 294 293 294 295 293 293 293 293 293 293 294 294 294 293 293 292 292 291 291 292 291 291 293 293 293 294 294 293 291
300 301 302 304 302 302 301 301 302 301 296 295 294 293 293 292 291 292 292 292 292 293 293 293 293 293 292 292 292 291 290 290 290 289 289 289 290 290 291 291 292 291 291
300 301 301 302 301 301 302 302 302 297 295 294 292 292 291 290 290 291 292 292 291 293 292 292 292 292 292 291 290 289 288 288 287 288 287 287 290 287 287 288 288 289 290
301 301 301 302 302 301 301 301 301 294 294 292 291 290 289 289 289 290 290 291 292 292 291 292 291 291 290 290 289 288 288 287 287 286 286 287 286 285 286 286 286 287 290
300 300 300 301 299 300 301 300 295 295 295 291 290 289 289 289 290 289 290 290 291 290 290 290 290 290 289 288 288 287 286 285 285 285 285 284 284 283 282 284 284 285 285
299 300 300 300 298 300 300 296 295 296 296 293 290 291 291 292 291 290 290 290 290 290 290 289 287 287 287 287 285 284 283 282 282 283 283 283 284 287 287 285 283 283 283
299 300 300 300 300 300 297 296 296 297 297 296 295 295 294 293 292 291 291 290 288 287 286 285 285 284 286 288 288 285 282 282 281 280 281 282 284 284 285 286 286 284 281
299 299 299 299 300 298 296 294 296 297 297 296 295 295 295 294 293 292 289 287 285 284 283 282 282 282 283 287 287 286 282 281 280 280 280 281 282 283 282 283 284 284 285
299 297 298 298 296 294 294 295 296 298 296 295 295 295 294 292 289 288 287 284 282 281 281 281 281 281 283 286 286 285 282 280 280 280 280 280 280 281 282 281 281 281 282
298 298 297 295 293 293 294 295 294 295 295 293 293 289 289 287 286 285 282 281 280 280 280 281 281 280 280 284 285 284 281 280 280 281 282 282 281 283 285 283 281 281 281
298 296 296 293 292 293 294 294 294 293 287 287 287 288 287 286 284 282 280 280 280 280 280 280 281 282 278 282 283 283 281 280 280 281 282 283 283 284 285 283 282 280 281
295 294 293 294 294 294 293 289 284 284 287 288 288 287 286 284 283 281 280 279 279 279 274 273 276 278 279 279 282 283 280 280 280 280 280 281 283 284 284 285 283 282 283
292 292 292 292 292 292 290 283 284 287 288 287 286 285 284 284 283 279 278 279 278 274 272 270 272 276 275 280 281 282 282 281 279 279 281 281 282 283 283 284 284 284 283
290 292 291 293 293 288 286 286 286 287 286 285 284 283 283 283 280 278 278 278 276 273 271 275 274 276 278 279 281 281 281 282 281 282 282 283 284 284 282 283 283 283 282
289 291 291 290 289 287 286 286 286 286 285 283 282 282 280 280 278 279 279 277 272 271 275 274 275 277 278 277 278 280 282 283 282 281 281 281 281 280 280 280 282 282 282
289 291 289 289 287 286 285 286 285 284 282 281 281 280 279 278 278 279 278 276 275 274 277 277 278 276 275 277 281 282 282 281 281 279 278 277 276 277 278 278 279 280 278
290 291 291 286 286 285 284 285 284 282 281 281 280 277 276 276 277 277 278 281 281 282 281 282 280 278 279 281 282 282 283 283 282 278 275 275 274 274 275 276 277 279 280

GFSMW_sfc_thetae_006.txt.gz
Theta_e
300 301 302 302 301 301 302 302 302 301 301 300 299 298 299 300 301 302 308 308 307 306 302 302 303 303 300 300 299 298 298 296 296 295 296 295 296 296 298 299 301 307 312
300 302 301 299 300 300 301 301 301 301 301 299 299 300 298 299 301 301 302 306 306 304 303 301 301 301 300 299 299 299 297 296 297 295 293 291 294 295 297 299 299 299 302
299 301 302 300 299 300 301 301 301 301 301 301 300 299 298 298 298 299 300 302 305 305 303 301 301 299 299 298 297 297 296 294 296 296 294 290 288 294 296 297 298 298 299
300 300 299 299 300 301 300 301 302 302 302 301 299 298 300 299 301 302 299 301 304 304 303 302 301 299 299 298 298 298 297 296 293 295 298 296 294 290 289 295 297 299 300
299 298 298 299 300 302 302 302 302 303 304 303 301 299 299 300 301 298 297 298 300 302 303 302 301 299 299 297 295 295 293 294 293 293 292 292 293 292 290 288 291 295 298
298 300 300 300 301 302 302 303 303 303 304 303 303 300 299 300 298 299 298 298 296 296 298 298 296 296 295 295 294 294 292 292 293 292 292 292 289 289 289 288 288 289 292
299 299 299 300 301 300 301 302 302 304 305 303 302 302 301 301 299 299 299 298 296 295 294 295 295 294 294 294 293 295 295 293 292 290 290 292 292 293 292 290 289 289 292
299 299 300 301 301 302 301 302 303 302 302 302 302 301 301 300 300 298 297 294 295 294 294 294 294 295 295 294 295 296 295 294 291 291 291 292 292 293 292 291 289 287 288
299 300 301 301 300 300 300 301 300 301 302 300 297 295 294 295 292 292 292 293 293 294 293 295 295 296 297 297 294 292 291 292 291 290 290 291 292 292 293 292 291 288 284
299 300 300 301 301 300 301 301 301 301 300 296 294 293 291 292 292 291 291 291 293 295 296 297 297 297 295 294 293 291 290 290 290 290 289 290 291 291 292 292 291 290 288
297 299 301 303 303 303 302 301 299 299 294 293 293 292 290 291 290 290 290 291 292 293 294 294 293 293 293 292 290 289 289 288 288 288 288 288 289 289 289 289 289 289 288
298 299 300 301 300 300 299 299 299 294 293 293 292 291 290 289 288 289 290 291 291 292 292 292 292 291 291 290 289 288 288 286 285 286 286 287 288 286 286 286 286 286 286
298 299 299 300 300 299 299 299 298 293 294 292 290 289 288 287 288 288 289 290 290 290 290 290 290 290 290 289 288 287 286 286 286 286 285 285 285 283 283 283 283 284 286
299 299 298 298 299 298 298 298 294 294 294 293 289 288 287 287 288 288 289 290 290 289 289 289 290 290 289 287 287 286 284 283 283 283 283 283 283 282 281 282 281 283 282
298 298 297 297 298 298 298 295 295 295 294 291 289 289 290 290 290 289 289 291 290 289 289 288 286 285 285 286 284 283 282 281 281 282 282 282 283 286 286 284 282 282 281
298 298 299 299 298 298 296 295 294 294 295 294 295 295 294 293 292 293 293 292 289 288 286 284 283 282 284 287 287 285 281 281 281 280 281 281 283 283 284 285 285 284 280
297 297 298 298 297 295 294 293 293 295 296 296 295 295 295 294 293 292 291 287 284 283 282 281 281 281 281 286 286 286 282 281 280 280 279 280 281 282 281 283 284 284 285
298 298 297 296 295 294 293 293 293 294 294 294 294 293 292 290 288 286 284 282 281 280 280 280 280 280 281 285 285 284 281 280 280 280 280 280 280 281 281 281 280 281 281
298 298 295 294 293 291 292 292 291 292 290 286 286 286 286 286 285 282 280 280 279 279 279 280 279 280 280 283 283 282 278 278 279 281 281 282 282 283 285 282 281 281 281
296 293 293 292 291 291 291 285 284 285 285 287 287 287 287 285 282 281 280 279 278 278 279 280 279 280 277 281 282 281 280 278 278 279 280 282 281 283 283 281 281 280 281
292 292 292 291 291 293 289 284 284 284 287 287 287 286 285 283 282 280 279 278 278 277 272 271 274 276 278 278 281 282 280 279 278 279 279 280 282 283 283 283 281 281 282
291 291 290 290 293 287 285 284 283 286 287 286 285 284 283 283 282 279 278 278 276 273 272 269 271 274 273 279 281 282 281 281 279 279 280 281 283 283 284 283 283 283 282
289 290 289 291 290 286 286 284 284 285 284 283 282 282 282 281 280 278 277 277 275 272 271 274 272 275 277 277 280 280 281 282 281 281 281 282 281 281 281 282 282 281 281
288 289 291 289 287 285 284 284 285 284 282 281 281 281 280 279 278 278 278 276 271 270 275 273 274 276 276 276 277 279 280 282 282 279 278 278 278 276 277 278 279 280 280
288 290 290 289 287 285 284 284 284 283 282 281 281 280 279 277 278 278 277 276 275 274 273 273 277 274 273 276 281 280 280 281 280 278 275 275 275 275 276 276 277 278 280
290 290 290 286 285 284 283 284 283 282 281 281 280 276 275 274 277 277 277 281 280 281 281 281 278 277 279 281 280 281 281 281 281 278 273 273 273 273 274 274 274 276 277

GFSMW_sfc_thetae_009.txt.gz
Theta_e
298 299 299 299 299 300 301 299 299 299 300 299 299 298 298 299 300 301 305 308 308 307 303 302 303 301 300 299 299 297 296 296 295 294 294 294 295 295 296 297 298 299 301
298 299 299 297 299 299 299 300 300 300 299 298 298 298 297 298 299 300 301 306 308 307 304 301 302 302 300 298 298 297 295 295 295 293 291 289 292 293 296 296 297 298 299
298 299 299 298 297 298 299 300 300 300 300 300 298 298 297 297 297 298 298 301 306 308 305 302 301 301 301 300 298 297 296 294 295 295 293 288 287 290 293 294 295 295 296
298 299 299 299 299 299 299 299 300 300 301 300 299 297 298 298 301 301 300 301 302 304 306 305 301 300 298 296 296 297 295 294 292 292 297 294 292 286 284 290 291 291 294
297 298 299 298 298 299 299 300 301 302 303 302 301 300 298 300 301 301 297 298 298 301 303 304 301 299 299 298 296 294 292 292 292 291 290 289 290 290 288 284 286 290 291
297 298 299 299 300 300 300 300 302 302 303 303 302 300 298 299 298 299 298 299 296 297 299 299 298 296 295 295 293 294 293 292 292 293 293 291 289 287 285 284 286 287 289
296 297 296 299 300 299 299 300 300 300 300 300 300 300 299 298 298 298 298 296 293 292 293 294 293 293 294 294 296 295 296 296 295 293 294 293 292 291 289 287 287 286 287
298 298 299 299 298 298 299 299 300 300 300 300 298 297 296 296 298 297 295 294 292 291 292 293 296 297 297 297 298 297 295 295 294 293 292 290 290 290 290 288 286 285 286
297 298 299 299 299 299 299 299 299 300 300 297 294 294 293 293 294 291 291 290 291 293 293 294 296 297 296 296 296 294 293 293 292 291 290 289 289 289 290 291 290 287 283
297 298 298 299 300 300 299 299 299 299 298 293 293 294 292 291 291 290 290 290 291 293 295 296 296 297 296 295 294 292 291 290 290 290 288 288 289 289 290 290 290 289 286
296 298 299 300 300 299 299 298 298 298 294 292 292 292 291 290 288 289 289 290 292 293 293 293 294 293 292 292 291 289 289 288 287 287 287 287 287 287 287 287 288 287 287
297 299 299 300 299 298 298 298 297 295 293 293 292 292 290 288 287 288 290 291 291 292 291 291 291 290 290 289 288 287 287 286 285 285 285 285 287 285 285 285 284 284 285
298 299 299 300 299 299 298 297 297 293 293 294 293 291 288 286 287 288 290 291 290 290 290 290 289 289 289 288 287 286 286 285 285 284 284 284 284 282 283 283 282 282 284
299 299 299 298 298 299 298 297 295 294 294 294 292 288 286 286 287 288 289 290 291 289 289 289 289 288 286 286 285 284 283 282 282 282 282 281 281 281 281 281 281 281 281
298 298 298 298 298 297 296 296 294 294 294 294 289 288 290 290 289 291 292 292 292 291 289 287 285 284 284 284 283 282 282 281 281 281 281 281 282 285 284 283 282 281 280
298 298 297 298 297 297 295 294 293 293 294 293 293 294 295 295 294 294 293 291 290 287 285 283 282 281 283 286 287 285 282 281 280 279 280 280 282 282 283 284 284 283 280
297 296 296 297 297 295 294 292 292 293 293 293 293 293 294 294 293 293 291 286 283 283 281 281 281 281 281 284 285 285 281 280 280 279 279 280 281 282 281 282 283 283 284
297 297 297 296 295 294 292 291 291 291 291 289 286 288 288 287 285 284 282 281 280 280 279 279 280 280 281 284 284 283 280 278 279 280 280 280 280 281 281 281 280 281 281
296 296 295 294 292 291 290 286 285 285 286 286 286 286 287 286 283 281 280 279 278 279 279 280 280 279 279 282 282 281 276 277 277 280 280 280 280 282 283 281 280 280 281
296 293 293 292 290 291 285 286 285 286 284 287 286 285 284 283 281 280 279 279 279 279 279 279 278 279 276 280 281 281 278 278 278 279 280 281 281 282 282 281 280 279 279
293 293 290 289 290 290 286 284 283 284 285 285 285 284 284 283 281 279 279 278 277 277 272 271 273 275 277 277 281 282 280 278 278 278 279 280 282 282 283 283 282 281 281
290 290 289 289 290 285 284 282 281 283 284 284 283 282 282 281 280 278 278 277 276 274 272 268 271 273 273 278 280 281 281 281 279 279 281 281 282 282 281 281 282 282 282
288 288 288 289 291 286 284 283 283 284 283 282 281 281 281 280 279 278 277 276 275 272 271 274 273 274 276 275 279 280 281 281 280 281 280 280 280 280 278 279 280 279 279
286 287 288 288 287 287 285 285 284 284 282 281 281 281 279 279 278 278 278 276 273 271 274 273 273 275 274 274 276 279 279 281 282 279 278 277 277 276 276 277 278 278 279
287 288 288 287 287 286 283 284 284 283 282 281 280 279 279 277 278 278 277 277 276 273 273 272 275 274 273 275 280 279 279 280 280 278 275 275 273 273 274 275 275 276 276
287 288 288 286 284 283 282 283 283 282 281 281 280 276 275 274 277 276 277 280 279 280 280 280 277 277 278 280 280 280 280 280 279 276 274 272 271 270 272 272 272 273 274

GFSMW_sfc_thetae_012.txt.gz
Theta_e
296 297 298 299 300 301 300 300 301 301 300 299 299 298 299 299 300 300 302 304 307 308 307 305 304 303 301 300 299 297 296 295 295 294 294 294 295 295 295 297 298 300 301
296 298 298 296 299 300 300 299 299 298 298 298 297 297 296 297 298 299 300 301 303 306 307 305 303 302 302 298 298 296 295 295 295 293 291 290 292 293 295 296 297 297 299
297 297 298 297 296 297 298 298 298 298 298 299 298 298 297 298 297 298 298 300 301 303 305 306 304 302 302 301 299 298 295 295 294 295 293 288 287 289 292 293 293 295 293
296 298 298 296 296 297 297 298 300 300 301 300 299 298 296 296 299 299 299 300 300 300 303 305 304 302 300 300 296 297 296 294 292 293 296 293 292 285 284 290 293 292 293
296 295 295 297 298 298 298 299 300 301 301 300 300 299 299 300 300 299 298 299 299 298 299 301 301 299 297 297 298 293 293 294 292 292 291 290 290 290 287 284 287 290 292
295 298 297 299 298 298 298 299 300 300 301 300 300 298 296 296 296 297 297 297 297 295 295 297 296 293 293 292 293 295 295 294 294 293 292 291 289 289 288 287 287 286 290
295 295 296 297 298 298 298 300 299 300 300 302 298 295 295 294 294 295 296 296 294 290 290 292 293 293 293 294 295 295 296 295 294 294 293 294 292 292 290 288 286 285 287
297 297 297 297 297 298 299 299 300 300 300 298 295 294 295 294 294 294 293 292 290 290 292 293 294 294 294 295 297 296 295 294 292 290 291 292 292 292 292 290 287 285 285
296 297 298 298 298 298 299 298 298 298 299 296 293 293 293 293 292 291 290 289 290 293 293 293 294 294 297 297 296 294 292 292 292 291 291 291 292 291 291 291 290 286 282
297 298 298 299 300 299 299 298 298 298 298 293 293 295 293 294 291 289 289 289 291 293 293 293 293 293 293 295 295 294 293 292 291 291 290 289 289 289 290 290 290 288 286
296 297 298 299 299 298 299 298 298 297 297 293 293 293 294 293 290 287 288 289 291 292 292 292 292 293 292 292 291 290 289 288 288 287 287 286 287 286 286 286 287 286 286
297 297 298 298 298 298 298 298 297 297 295 293 294 294 293 289 287 287 288 289 290 291 290 291 290 290 289 289 288 287 287 286 284 284 284 284 286 285 285 285 284 284 284
297 297 299 298 298 298 298 298 297 296 294 294 293 292 288 285 285 287 288 290 290 290 290 290 290 289 289 288 286 285 284 284 283 283 282 282 282 281 282 282 282 282 284
297 299 298 298 298 298 297 297 296 294 294 293 292 288 286 285 286 288 290 291 291 291 291 290 288 287 285 284 284 284 283 282 282 282 282 281 281 280 280 280 280 281 281
297 297 296 298 298 298 298 296 295 293 293 293 291 289 290 290 291 291 291 292 291 291 289 286 285 284 283 283 283 283 282 281 281 282 281 281 282 284 283 282 281 281 280
295 296 296 295 296 297 295 294 294 293 293 292 292 295 295 294 292 293 292 292 292 291 286 282 281 281 282 285 286 286 282 282 281 280 280 280 282 282 283 283 284 283 280
295 293 294 295 297 295 294 293 292 291 292 290 290 291 291 290 289 290 288 284 282 281 280 280 280 281 281 284 284 284 281 281 280 279 279 280 281 282 281 282 282 282 283
294 294 294 296 293 293 291 289 287 287 286 286 287 288 288 287 286 283 281 281 281 280 279 279 280 280 280 282 282 282 279 278 278 279 279 279 279 281 281 281 281 281 281
294 294 293 293 291 290 286 284 284 284 285 286 287 286 283 283 282 281 280 280 279 279 279 280 279 278 278 281 282 281 276 276 277 279 280 280 280 282 283 281 280 280 281
295 293 292 291 290 290 285 287 286 285 283 284 283 283 282 281 280 279 278 279 278 279 280 278 278 278 276 279 281 281 278 277 278 278 280 281 281 282 283 281 280 279 280
293 292 289 288 289 290 287 284 282 282 283 284 283 282 282 280 279 278 278 277 277 277 273 271 273 275 277 276 280 281 279 278 278 279 279 280 282 282 282 282 279 279 281
291 290 288 288 290 290 285 282 280 284 284 283 281 280 280 280 279 278 277 277 276 274 272 269 271 273 272 278 279 280 280 281 279 278 280 280 281 281 280 279 280 280 280
288 288 287 288 289 288 284 286 287 286 283 281 280 280 280 280 279 277 276 276 275 272 271 274 273 274 276 275 278 279 280 281 279 281 281 280 279 278 277 278 279 278 278
287 286 286 287 286 287 286 283 283 283 281 280 280 280 279 279 278 278 278 276 273 271 274 273 273 274 274 274 275 278 278 280 281 280 279 278 277 275 275 276 276 276 277
286 287 287 286 286 286 285 283 283 282 281 281 280 279 279 278 278 278 277 276 275 273 274 272 272 273 273 275 279 279 278 279 278 278 276 275 274 273 274 274 274 275 275
286 286 286 285 286 284 282 282 282 281 280 280 280 275 275 274 276 276 276 280 279 280 279 279 276 276 278 279 279 279 279 279 278 275 273 272 271 270 272 272 271 272 272

GFSMW_sfc_thetae_015.txt.gz
Theta_e
305 305 306 307 309 312 314 316 314 314 314 312 310 311 310 310 311 311 311 312 312 314 315 315 316 316 314 314 314 312 310 308 307 305 305 306 307 307 307 307 306 306 308
304 304 306 307 308 310 311 309 307 307 307 308 309 309 308 309 308 310 311 312 311 311 311 313 313 313 312 313 313 310 308 307 308 304 304 300 303 304 305 306 305 305 306
305 304 305 307 307 307 306 306 306 307 308 308 309 309 310 310 309 309 309 310 310 310 310 310 311 311 311 310 312 311 309 307 307 306 303 299 297 302 303 304 303 303 301
304 305 305 305 306 306 308 309 309 309 309 309 308 307 305 304 306 306 307 308 309 309 308 308 309 310 310 309 309 309 308 307 304 304 303 303 300 298 297 299 300 301 299
302 303 304 305 305 307 307 308 309 308 308 308 306 305 305 305 305 305 305 306 307 307 306 305 306 307 308 307 306 306 305 304 304 301 300 299 298 299 295 294 296 296 298
302 302 305 306 306 308 308 309 308 308 309 308 305 305 304 303 303 304 303 304 304 304 302 302 303 303 302 301 301 301 300 300 299 299 298 297 294 294 294 291 291 292 296
303 303 304 305 306 306 307 307 307 307 307 307 304 303 303 304 303 303 302 301 300 301 299 300 301 301 301 301 301 299 297 295 293 292 292 291 290 290 290 289 290 290 294
303 303 303 305 305 306 306 307 306 306 307 306 304 303 304 303 302 301 301 299 298 299 300 301 301 301 302 301 299 296 295 293 292 291 291 291 291 292 291 290 289 288 290
302 303 304 305 306 306 306 306 305 305 305 305 303 302 302 302 301 301 299 297 298 299 300 302 301 300 300 298 297 296 293 293 293 293 293 292 292 294 294 293 292 288 284
303 304 305 306 306 307 306 306 307 305 305 305 302 301 301 301 300 298 296 296 298 300 300 300 298 298 298 298 297 297 297 295 295 294 294 293 293 294 293 292 292 291 288
303 304 305 306 306 306 306 306 305 304 304 303 301 301 300 299 296 294 295 296 298 298 296 295 295 295 294 295 295 295 294 294 293 293 292 292 292 291 291 291 291 289 289
303 304 304 305 305 305 305 305 305 304 302 300 300 299 297 294 293 293 294 295 294 295 295 296 295 293 294 293 292 291 291 290 289 290 290 289 289 289 290 289 289 289 289
303 304 304 303 304 303 303 303 303 302 300 300 299 296 293 292 292 295 296 296 296 296 295 294 293 291 290 289 289 288 288 288 288 288 288 287 287 286 287 287 286 287 286
302 303 302 302 301 301 301 301 300 300 299 298 297 295 293 292 295 296 296 296 296 295 295 293 291 289 288 287 287 287 287 287 287 287 287 286 285 285 285 284 285 285 285
301 300 298 297 298 299 299 299 299 298 298 298 297 296 295 295 295 295 294 295 294 294 295 292 288 287 286 286 287 287 287 286 286 286 285 285 285 284 284 284 284 285 284
297 296 296 296 297 298 296 296 296 296 296 295 294 292 292 292 293 293 294 294 292 288 287 286 285 285 285 284 285 285 285 284 283 283 283 284 284 284 283 283 283 284 282
294 293 294 296 297 296 295 295 294 294 292 292 291 291 292 292 291 289 288 287 286 286 285 285 285 285 285 283 283 283 283 283 283 282 282 282 283 283 284 283 282 282 283
292 294 295 297 296 295 295 292 291 291 290 290 291 292 289 287 287 287 286 285 285 285 284 284 285 284 283 282 282 282 283 283 282 282 283 282 282 283 281 282 282 283 284
295 295 298 296 294 294 294 289 289 289 290 289 288 287 287 286 286 285 284 284 284 284 284 284 283 282 282 281 281 282 282 282 281 282 283 283 282 282 283 282 282 282 283
295 296 296 294 293 295 295 291 290 290 287 287 287 287 286 285 284 284 284 284 284 283 283 282 282 281 281 281 281 281 281 280 280 282 283 282 282 282 282 282 281 280 281
294 297 294 292 293 294 294 291 288 286 288 288 286 286 285 285 285 284 284 283 283 282 281 281 281 281 281 281 280 280 281 280 280 281 282 283 282 281 281 281 281 280 281
294 295 292 292 293 294 291 288 288 290 290 287 286 285 285 284 283 283 283 283 282 281 281 280 281 281 281 280 279 280 280 280 280 280 282 283 280 280 279 279 279 280 280
294 293 291 291 293 293 292 289 291 291 290 286 285 285 285 284 284 283 283 282 282 281 280 279 279 279 280 280 279 279 280 280 280 282 281 280 279 278 278 278 278 279 280
292 292 291 290 291 293 291 291 290 288 287 285 285 285 284 284 284 284 283 282 281 280 279 278 277 278 278 278 279 280 280 280 281 280 280 278 278 277 278 278 279 279 279
291 291 290 290 291 292 290 290 288 287 285 285 284 284 284 283 282 282 282 282 282 280 279 278 278 276 276 277 279 279 278 279 278 279 278 276 276 276 277 277 277 278 278
290 289 290 289 287 287 286 286 286 286 285 284 284 284 283 283 281 281 281 281 279 279 279 279 278 278 277 278 278 278 278 277 277 276 274 273 274 274 275 275 275 277 276

GFSMW_sfc_thetae_018.txt.gz
Theta_e
314 314 315 316 317 322 323 323 323 320 322 322 317 317 317 317 317 318 318 319 319 318 319 318 318 319 318 319 320 318 317 317 317 313 311 311 313 313 312 312 311 311 311
312 313 315 317 317 318 317 316 314 314 314 317 317 316 316 317 317 318 317 317 316 316 314 315 315 315 315 316 317 317 316 316 316 312 309 305 308 311 311 312 311 311 310
310 311 312 314 315 315 315 314 314 315 316 316 317 317 317 317 314 312 312 313 313 313 313 313 313 314 314 312 314 315 314 312 315 316 309 305 302 307 310 310 310 310 309
310 310 311 312 314 315 316 315 315 315 315 315 314 313 311 309 310 311 311 311 312 311 311 311 312 312 312 311 312 312 313 312 310 312 312 312 309 303 301 307 308 309 307
309 310 311 312 313 315 316 316 315 314 314 314 312 312 310 311 311 311 310 311 310 309 309 309 310 310 311 311 310 309 309 309 306 306 305 303 304 307 301 300 301 305 305
309 309 311 312 313 315 316 315 313 312 313 313 312 311 310 308 307 308 307 306 306 307 308 307 308 309 308 308 307 303 300 300 299 298 296 295 294 294 293 295 299 299 301
310 310 310 311 312 313 314 313 312 311 312 312 310 308 309 309 308 307 305 304 304 304 306 306 307 308 306 303 302 300 298 296 294 293 292 291 290 290 289 289 290 291 295
309 309 309 311 311 312 312 312 312 310 309 309 309 309 309 309 307 306 305 304 304 304 305 306 307 306 304 303 300 298 296 295 295 295 295 294 293 293 293 291 290 289 290
307 308 310 311 312 312 312 312 312 311 311 310 310 310 309 308 305 305 304 303 304 303 305 304 303 303 302 301 300 299 298 298 297 296 296 295 294 295 294 294 292 289 286
308 309 310 311 311 312 313 313 312 310 311 310 309 307 307 306 304 302 301 301 302 303 303 302 301 299 298 298 297 296 297 297 296 297 296 296 296 295 295 293 293 292 289
308 308 309 310 310 312 311 310 310 310 309 308 307 306 304 302 301 300 300 301 302 301 300 299 298 297 297 296 297 295 295 294 294 295 295 294 295 293 293 293 292 291 291
307 308 309 309 309 309 308 307 307 306 306 306 304 303 302 300 300 299 299 300 299 299 298 298 297 297 296 295 294 293 293 292 291 292 293 292 291 291 292 291 291 291 291
306 307 308 307 306 306 305 304 304 304 304 302 302 301 300 299 299 299 299 299 299 298 298 297 295 294 294 294 293 293 292 291 291 291 290 290 290 289 289 290 289 289 289
305 306 306 305 305 303 303 303 303 302 301 301 301 300 300 300 296 298 298 297 297 296 296 295 295 294 291 290 290 290 290 290 290 290 290 289 289 288 288 287 287 287 287
303 303 302 299 300 301 302 301 300 300 301 300 299 298 297 296 297 297 297 297 296 295 294 292 291 290 290 288 288 288 288 288 288 288 288 288 288 286 286 285 286 287 286
300 300 298 297 298 300 300 298 298 299 299 297 297 296 296 296 296 295 294 293 292 292 291 290 290 289 289 284 284 284 286 286 286 286 287 287 287 286 286 285 284 285 283
298 298 297 297 300 300 298 298 297 298 297 296 295 295 295 293 293 292 291 290 290 290 290 289 289 289 289 283 283 283 285 285 286 286 286 285 286 286 285 284 285 284 283
296 297 298 299 300 299 298 298 297 296 296 295 294 293 292 291 291 290 289 289 290 289 289 288 288 287 287 283 282 282 285 286 286 286 285 285 285 284 284 283 283 284 285
297 298 299 300 300 298 298 298 297 296 295 293 293 292 292 290 289 288 288 289 288 288 288 287 287 286 286 284 282 282 283 284 283 283 283 284 283 284 284 284 283 283 284
298 297 298 300 299 298 298 296 295 295 293 293 293 293 291 289 288 289 288 289 289 287 287 286 286 285 285 283 282 282 282 280 281 282 283 283 284 283 283 283 283 281 282
298 298 298 298 298 298 297 295 294 292 293 293 293 292 290 289 289 289 289 289 288 287 285 284 284 284 284 283 282 281 280 281 280 281 282 284 283 281 281 281 281 281 282
297 297 296 296 297 298 297 295 293 294 294 294 293 291 290 289 288 289 289 288 287 285 284 284 284 284 284 282 281 280 281 281 281 281 283 284 281 281 280 280 280 279 280
296 297 295 295 296 297 297 294 294 295 294 293 292 290 289 289 289 288 288 286 285 283 282 281 281 281 282 283 281 280 281 280 281 282 282 280 280 280 280 279 279 279 282
295 295 294 293 293 295 295 295 294 294 293 291 290 290 289 288 289 288 286 285 283 281 280 280 279 280 280 281 280 280 281 280 281 280 282 280 279 280 280 281 280 281 281
294 293 292 291 291 293 292 293 292 291 289 290 289 289 288 288 287 286 285 284 283 281 280 280 280 278 277 278 279 278 278 279 278 279 280 279 278 279 279 279 280 280 280
293 292 291 291 291 290 290 290 289 289 288 287 288 288 288 287 285 284 284 282 280 279 279 278 278 279 278 278 278 277 277 277 277 278 276 276 276 276 277 277 277 278 278

GFSMW_sfc_thetae_021.txt.gz
Theta_e
320 319 319 320 323 326 327 329 328 325 324 322 319 318 318 319 319 320 321 321 320 319 319 317 318 319 316 319 321 320 319 318 321 318 317 318 319 318 316 317 315 314 314
314 316 318 320 320 320 321 320 319 318 318 319 318 319 318 318 319 320 319 318 317 316 315 316 314 316 314 317 318 318 315 316 319 315 314 310 312 316 317 316 315 316 315
312 313 315 317 319 318 318 318 318 318 318 318 318 318 318 318 316 316 316 316 316 315 314 314 313 314 314 313 315 315 314 311 314 317 312 307 305 310 314 315 314 315 315
312 313 314 315 317 318 319 318 317 317 317 318 315 315 313 312 314 315 316 315 315 314 312 311 311 311 312 313 313 311 312 311 308 311 311 311 311 303 303 311 311 312 310
312 313 314 315 316 318 319 318 317 316 316 316 315 314 313 314 314 313 312 312 311 310 309 309 310 310 310 310 310 310 308 308 306 304 302 303 305 306 298 298 304 307 309
312 312 314 314 316 318 318 317 316 315 316 316 316 314 312 311 309 309 308 307 308 308 308 307 308 309 309 308 307 304 302 300 300 298 296 293 292 291 290 290 292 290 299
312 312 312 313 314 315 316 316 315 314 315 314 313 312 311 310 309 308 307 306 305 305 305 307 307 307 307 304 303 302 301 299 296 296 295 295 293 292 291 290 290 290 293
311 311 312 313 314 314 315 315 315 314 314 314 313 313 313 310 309 308 306 304 303 304 306 306 306 304 304 303 302 301 300 300 299 296 297 296 296 296 294 292 290 288 290
309 310 312 313 313 314 314 314 314 313 312 313 313 312 310 309 307 306 304 303 304 303 304 305 304 303 301 300 299 299 299 298 298 298 297 296 296 296 295 293 292 289 285
309 311 311 312 312 313 313 314 313 311 311 310 309 309 308 307 305 303 302 302 303 304 303 302 302 299 299 299 298 298 298 297 297 297 296 296 297 296 296 295 294 292 288
309 309 310 310 311 312 311 310 310 309 308 308 307 306 305 304 303 302 301 302 302 301 300 300 298 299 297 297 296 296 295 295 295 296 295 295 295 294 294 294 293 292 292
308 308 308 309 309 309 309 308 308 306 306 305 304 303 303 303 302 301 301 301 299 300 300 299 297 297 296 296 295 294 294 293 293 293 293 293 292 292 292 292 291 291 291
307 307 307 307 306 307 307 305 305 304 303 302 302 302 302 302 300 300 300 300 299 299 299 298 297 296 296 294 293 292 291 291 291 291 290 290 290 290 290 290 290 290 289
304 305 306 306 306 305 303 303 303 302 301 301 300 300 300 298 298 299 299 297 297 296 295 295 294 293 292 292 291 291 290 289 290 290 290 290 289 289 289 288 288 288 287
304 305 303 303 302 301 302 303 301 301 300 299 299 299 298 297 297 297 296 295 295 294 293 292 292 292 291 290 289 288 287 287 287 288 289 290 290 288 287 286 286 285 285
303 301 300 300 299 300 301 300 300 299 299 298 298 298 297 296 295 295 294 293 292 292 292 291 291 291 290 284 284 284 285 285 286 286 287 288 289 288 288 287 286 285 283
299 297 298 299 300 301 301 299 299 299 298 297 297 296 295 294 294 293 292 291 291 291 290 290 290 290 290 284 284 283 285 284 285 286 287 286 287 287 287 287 286 285 285
299 300 299 299 300 301 301 300 299 298 297 297 296 296 294 293 293 291 291 290 291 290 290 290 289 289 288 285 283 283 284 284 285 285 285 285 285 286 285 284 284 285 285
300 300 300 299 299 300 301 299 298 298 296 295 295 295 293 293 292 290 290 290 290 290 289 289 288 287 287 286 284 283 283 283 282 283 284 284 284 285 285 284 283 283 284
300 299 299 299 299 299 299 298 297 297 295 294 294 294 293 292 291 290 290 290 290 289 289 288 287 285 285 285 284 283 283 281 281 283 283 283 284 284 284 284 283 281 282
299 299 299 298 298 298 298 296 295 295 295 295 295 294 294 292 291 290 291 290 289 289 288 287 287 286 286 285 284 283 282 281 281 281 282 284 282 282 282 282 281 281 282
297 298 297 297 297 297 296 294 294 295 297 296 295 295 293 292 291 290 290 289 288 287 286 285 285 285 286 284 283 281 281 281 281 280 283 284 282 281 281 280 281 280 280
296 297 295 295 295 295 294 292 294 295 295 294 294 293 293 291 291 290 289 287 287 286 283 282 282 282 284 284 283 281 281 280 280 282 281 281 281 281 281 282 280 280 281
293 294 294 293 292 293 293 293 293 293 291 290 291 292 291 290 290 289 288 287 286 283 282 281 280 281 281 282 281 280 280 280 280 279 280 281 280 281 282 282 282 282 282
293 293 292 292 292 293 292 293 292 291 289 289 289 289 290 289 288 288 287 286 285 283 281 280 279 278 277 278 279 278 278 278 278 278 281 279 278 278 279 280 281 281 281
292 292 292 292 292 292 292 291 291 290 288 287 287 288 289 288 286 285 285 283 282 280 279 278 278 279 278 278 278 278 278 277 277 278 277 276 276 276 277 277 278 279 279

GFSMW_sfc_thetae_024.txt.gz
Theta_e
316 318 320 322 324 327 326 326 324 324 322 321 318 317 317 318 318 319 321 319 319 316 315 314 313 313 312 312 312 311 309 310 311 311 310 311 313 314 314 312 309 309 310
314 316 318 319 319 319 320 319 319 319 318 317 317 317 317 318 318 319 316 318 316 315 313 312 310 310 309 309 309 308 308 308 309 307 306 302 306 309 311 313 311 309 310
311 314 316 317 318 318 318 317 317 318 318 318 317 316 316 316 314 314 314 316 315 314 314 313 311 309 308 306 306 306 305 304 306 307 304 299 298 302 306 308 309 311 311
312 313 314 315 317 318 319 318 318 317 317 317 315 315 313 311 312 313 312 312 314 312 309 308 308 307 307 305 306 307 305 303 300 302 302 299 299 297 297 301 304 306 306
312 312 313 315 316 319 319 318 317 316 317 316 316 314 311 311 311 310 310 308 309 308 307 306 305 306 306 306 304 302 300 299 297 296 295 295 295 295 293 291 294 296 297
312 312 314 315 316 319 318 318 316 315 317 315 314 312 310 309 308 308 306 306 305 305 305 305 304 305 305 305 303 302 299 299 297 296 294 292 291 290 288 288 287 288 293
312 312 312 312 314 315 316 316 315 314 315 315 314 313 311 311 308 306 304 302 301 301 301 303 303 303 304 302 301 299 299 298 293 293 292 293 292 291 290 289 289 288 290
312 312 313 313 313 315 314 315 314 312 312 313 311 311 310 308 306 305 302 301 300 300 302 303 303 303 303 301 300 299 299 297 296 294 295 294 295 293 292 290 288 286 285
310 310 312 313 313 313 313 313 312 311 311 310 310 309 308 307 304 303 301 300 300 301 301 301 301 300 298 299 298 297 296 296 297 296 296 295 295 295 294 292 290 287 282
309 310 310 311 311 311 312 313 310 308 308 308 307 305 305 304 303 301 300 300 300 300 299 299 298 298 299 297 297 296 295 296 295 295 294 294 295 295 295 294 293 291 287
308 309 309 310 310 311 311 309 307 306 306 304 304 303 302 302 302 301 300 300 299 299 298 298 298 297 296 296 295 294 294 293 291 292 292 292 293 292 293 292 291 290 290
308 307 308 308 308 308 307 306 306 305 303 302 301 301 301 301 299 299 298 299 298 299 298 297 296 296 295 295 294 292 291 291 290 290 290 290 291 289 289 289 288 287 287
306 306 307 306 305 306 305 304 304 303 302 301 299 299 299 298 297 297 298 298 297 296 295 294 293 293 292 291 290 289 289 287 287 287 287 287 288 286 287 287 287 286 287
305 305 304 304 304 304 302 302 302 302 301 299 298 298 298 297 296 297 297 296 296 294 292 292 291 291 290 290 289 289 286 285 285 286 286 286 286 285 285 285 284 285 283
304 303 302 302 301 301 301 301 302 300 300 298 297 297 298 297 296 296 295 295 294 292 291 290 290 290 289 287 286 285 284 283 283 284 285 286 287 290 287 285 282 282 281
302 301 300 300 300 300 300 301 300 299 300 298 297 297 297 296 295 295 294 293 291 290 290 289 289 288 289 285 285 283 282 283 283 281 283 285 287 287 288 288 288 285 281
299 299 300 300 299 299 299 298 299 300 298 297 297 297 297 295 294 293 293 290 289 289 288 288 288 287 287 285 285 284 282 282 281 281 282 283 285 285 284 284 285 285 286
299 300 300 299 299 298 298 299 299 299 298 297 296 296 296 294 293 293 291 289 288 288 287 287 287 286 286 287 285 284 281 280 280 281 280 280 281 282 283 282 281 282 283
300 299 299 299 299 298 298 297 296 296 296 296 295 295 295 293 293 291 289 288 288 287 287 287 286 284 284 286 286 284 280 280 280 280 281 281 280 283 284 282 281 281 282
299 298 299 298 298 297 297 295 294 294 294 295 295 295 295 293 292 291 289 288 288 288 287 285 285 286 283 286 286 285 281 278 279 279 281 282 282 282 282 281 280 279 279
297 297 296 296 295 296 295 292 292 291 293 294 295 295 295 293 292 291 290 289 287 285 284 283 283 283 284 283 285 283 280 279 278 278 278 280 282 283 282 282 279 279 281
294 294 293 293 294 294 293 291 290 292 293 293 293 293 294 293 292 289 288 288 285 284 282 279 280 282 283 284 283 282 280 280 277 277 279 280 281 282 281 281 281 282 280
293 293 292 292 293 293 293 291 291 292 292 291 290 290 292 292 291 289 287 284 284 281 280 280 279 280 280 280 281 279 279 279 277 278 279 280 281 281 280 281 282 281 279
292 292 291 291 291 293 293 292 292 292 290 289 288 289 289 289 289 288 286 283 282 280 282 279 277 277 277 277 276 277 277 278 278 277 277 278 279 279 280 280 281 281 280
292 292 292 291 291 292 292 292 291 291 289 288 287 286 287 287 286 285 284 283 282 280 278 277 277 273 273 275 277 277 276 276 277 276 278 277 276 276 277 277 278 279 279
291 291 291 291 291 291 291 291 291 290 287 284 284 284 284 285 284 283 283 284 282 281 281 280 276 275 277 278 278 278 278 278 278 276 275 274 274 274 275 275 275 276 277

GFSMW_sfc_thetae_027.txt.gz
Theta_e
312 313 314 314 314 313 314 313 313 312 312 310 309 308 308 309 310 312 312 311 312 311 310 309 307 307 306 305 305 304 304 305 305 304 305 305 307 307 309 310 308 308 308
310 312 312 312 311 310 310 311 311 311 311 309 309 309 309 310 310 312 311 312 311 310 310 307 307 306 305 304 303 302 301 302 303 300 301 298 301 302 305 305 309 307 309
308 310 311 309 308 308 308 310 310 310 310 309 309 309 309 308 307 308 307 309 308 307 305 304 304 303 304 302 301 301 300 298 300 299 297 294 294 296 301 302 302 302 299
309 310 309 308 309 308 309 309 310 309 310 309 308 307 305 303 305 305 305 305 305 304 304 303 302 301 302 301 302 300 297 296 294 296 298 296 297 290 290 297 297 296 296
306 306 308 309 309 309 308 308 309 309 310 310 309 307 304 305 305 304 303 302 303 302 302 302 301 300 300 301 298 297 299 299 297 295 292 291 291 291 288 287 289 291 292
305 306 308 310 309 309 308 308 308 309 309 308 308 306 304 305 303 301 300 299 299 299 300 300 299 300 300 299 301 300 299 298 297 293 291 290 290 288 287 287 285 286 289
303 304 305 305 307 305 307 308 308 308 308 308 306 305 304 304 303 302 300 298 297 297 296 299 299 300 300 300 299 299 296 296 293 290 290 290 290 291 289 288 286 286 287
304 303 305 305 305 306 306 306 307 307 307 306 305 303 302 302 300 299 297 296 295 296 297 298 297 296 296 296 297 296 297 295 293 292 293 295 291 294 291 288 285 284 283
303 304 305 304 304 304 306 305 303 304 304 303 302 301 301 300 297 296 296 295 296 298 296 296 295 295 295 295 298 295 293 293 292 291 292 294 294 295 294 293 291 288 282
303 302 303 304 304 304 305 304 303 302 300 299 299 298 297 298 297 296 296 296 296 296 295 295 295 295 295 295 294 293 293 292 290 292 291 292 293 292 293 293 293 292 288
301 302 303 303 303 304 303 302 301 300 298 297 297 296 296 297 296 295 294 295 295 296 295 296 295 295 294 293 292 291 292 292 289 289 289 289 290 290 291 291 291 290 289
301 301 302 302 301 301 301 300 299 298 297 297 296 295 296 295 294 293 294 294 294 295 294 293 291 293 293 292 291 290 289 286 284 284 284 284 287 285 286 286 286 286 286
300 300 300 299 300 300 299 298 298 296 296 295 294 294 294 293 292 293 294 294 293 292 291 290 288 289 289 288 287 286 285 284 284 283 283 283 283 283 283 284 284 284 285
299 299 298 298 298 299 297 296 297 296 296 296 294 293 293 293 292 292 293 292 292 290 288 288 288 289 288 287 286 286 283 283 283 283 283 283 283 282 282 284 283 283 281
298 298 296 296 297 296 295 296 297 297 296 295 295 293 294 293 293 293 292 292 291 289 288 288 287 287 287 285 283 282 281 281 281 282 282 283 284 287 287 285 283 281 279
298 297 297 298 297 295 295 295 295 296 296 295 294 295 294 294 293 292 291 291 288 287 287 286 286 285 286 285 285 283 280 281 280 279 280 281 283 284 284 285 285 284 281
296 296 297 297 295 294 294 292 293 295 295 295 295 294 295 294 294 294 292 289 286 285 285 285 286 284 283 285 285 284 281 280 279 278 279 279 281 281 281 282 284 284 285
296 296 296 295 294 294 293 292 292 292 292 293 293 294 294 293 293 293 291 287 286 284 284 284 285 283 284 287 287 285 280 280 280 279 279 278 279 280 281 280 280 280 281
296 295 293 293 292 292 292 291 290 289 290 291 292 293 293 293 293 289 288 288 286 285 284 285 283 282 282 286 286 284 279 279 279 280 280 280 279 281 283 281 279 279 280
293 291 290 290 290 290 290 289 287 288 288 291 291 292 293 291 289 288 289 288 286 285 285 283 282 284 281 284 285 282 277 274 278 278 279 280 280 281 282 281 278 276 277
290 290 289 288 288 289 289 288 286 286 289 290 290 290 291 291 291 289 287 285 284 283 280 279 280 281 282 280 283 282 278 277 277 276 277 278 280 280 282 282 279 278 279
289 289 287 287 288 289 289 287 286 288 290 289 289 288 288 290 290 288 286 286 282 280 278 271 273 277 278 281 280 280 279 279 275 276 277 278 280 282 281 281 282 282 281
288 289 287 288 289 289 289 288 288 289 288 287 286 286 287 287 288 287 286 281 279 275 275 277 271 274 276 275 279 278 278 278 276 277 278 279 280 280 279 281 280 281 280
287 288 287 287 287 288 289 288 288 288 287 285 284 285 284 285 285 285 282 279 275 274 277 274 272 271 274 272 274 276 273 276 277 277 277 278 278 278 278 278 278 279 278
287 287 287 287 287 288 288 288 288 287 285 284 283 282 281 281 282 282 280 279 277 276 274 273 272 265 264 271 278 277 276 276 277 276 276 275 274 274 276 276 276 277 277
287 287 288 288 287 287 287 288 287 286 284 282 281 279 278 277 280 280 280 284 282 283 283 281 273 269 276 278 279 279 279 278 278 274 272 271 272 272 273 273 274 275 276

GFSMW_sfc_thetae_030.txt.gz
Theta_e
309 311 311 311 311 311 312 313 313 311 310 309 309 308 307 308 309 309 310 309 309 309 306 305 304 304 303 302 302 301 300 300 301 300 301 301 303 303 302 304 305 306 307
307 309 309 308 309 310 309 309 309 308 308 308 307 307 306 308 307 307 307 306 305 305 303 301 301 301 302 301 300 299 299 299 298 296 296 295 298 298 299 300 303 298 300
306 307 308 308 307 306 307 308 308 308 307 308 307 307 306 305 304 304 303 303 303 302 302 301 300 299 300 299 299 298 297 295 295 297 296 291 289 291 295 295 297 296 295
307 307 306 306 306 305 306 307 307 308 308 308 307 305 303 302 302 302 301 301 301 301 301 300 299 298 299 299 298 298 295 297 295 297 298 297 295 289 286 292 293 292 293
306 305 306 307 307 307 305 306 308 308 308 308 306 305 303 303 302 301 299 299 299 300 299 300 299 299 299 298 297 296 296 295 293 293 294 289 289 288 288 283 286 289 290
303 305 306 307 306 306 305 305 306 306 307 306 305 303 302 301 299 298 296 297 297 297 297 299 298 298 297 297 296 295 294 293 292 292 290 289 287 286 288 286 285 284 287
302 304 305 305 305 304 304 306 306 305 306 305 303 302 301 299 299 298 295 295 294 294 295 297 296 297 296 295 295 294 293 292 292 292 291 290 289 291 290 288 287 286 285
302 302 302 302 303 303 303 304 304 304 304 303 301 300 301 299 297 296 295 294 293 294 294 296 295 295 295 294 293 293 293 293 291 290 290 291 294 293 293 290 288 285 286
301 301 302 302 302 303 303 301 301 302 301 300 298 297 298 297 295 295 295 294 294 296 294 294 294 294 294 294 293 291 291 291 290 290 290 290 292 293 292 291 291 286 283
300 301 301 302 302 302 301 300 300 298 297 297 296 296 296 296 295 294 294 294 294 294 294 293 294 294 294 293 292 290 290 289 289 290 289 288 288 288 288 289 290 289 287
300 300 299 300 299 300 299 298 298 297 296 295 295 295 295 295 294 293 293 293 293 293 294 293 293 293 292 292 290 290 290 288 286 284 284 284 284 283 284 284 285 286 288
298 298 298 298 298 297 297 298 297 296 295 295 295 294 295 294 293 292 292 292 292 293 293 291 288 288 288 288 287 287 285 283 282 283 282 283 284 281 282 282 282 283 284
297 297 297 297 297 297 297 296 296 295 295 295 293 293 292 293 292 291 292 293 292 292 292 289 287 287 287 286 285 284 283 283 282 282 282 282 281 280 280 281 281 282 284
296 297 296 296 296 296 295 294 295 295 295 294 292 292 292 291 292 291 292 293 293 293 290 288 288 288 286 285 284 283 281 281 281 282 281 281 280 280 280 281 281 282 280
296 296 296 295 295 295 294 293 293 294 294 293 293 292 293 292 293 291 292 293 294 293 290 288 287 286 285 284 281 281 281 280 280 281 281 281 282 283 283 282 281 280 280
295 295 295 296 296 294 292 292 292 292 293 293 293 294 294 294 292 292 293 293 292 292 288 286 286 285 285 286 285 283 280 280 280 279 279 279 281 280 282 282 283 282 280
295 294 294 294 293 291 291 290 290 291 291 292 292 293 292 292 292 292 292 292 291 287 286 285 285 283 282 286 286 287 282 280 279 278 278 279 281 281 279 281 282 282 283
294 294 292 291 290 290 289 289 289 289 289 290 291 292 291 291 291 291 290 288 287 287 286 285 284 283 284 286 287 286 281 279 279 279 279 278 278 278 279 279 280 280 280
293 289 288 289 288 288 289 288 287 287 288 289 289 290 290 290 290 288 288 287 288 287 285 284 282 281 280 285 284 281 277 278 277 279 279 278 278 280 281 280 279 279 279
288 287 287 287 287 287 287 286 285 285 287 288 289 289 290 289 288 287 289 288 288 284 284 282 281 283 279 282 282 281 276 271 276 277 277 279 278 280 281 279 278 277 278
287 288 286 286 286 287 287 285 285 286 288 288 288 288 288 288 288 288 286 286 283 282 279 278 278 279 279 278 280 280 275 275 276 275 276 277 279 281 281 281 279 279 280
287 287 286 286 286 287 287 285 285 287 288 287 286 285 285 286 288 287 286 283 280 279 277 268 272 275 276 279 278 279 278 278 273 275 276 278 280 280 280 280 281 280 280
285 286 285 286 287 287 287 286 286 287 287 285 284 283 284 285 284 284 281 280 279 274 275 276 270 273 276 274 278 278 279 278 275 276 278 278 278 279 278 279 279 279 277
285 285 285 285 285 287 287 286 287 287 285 283 283 283 281 282 282 281 281 279 274 272 276 273 272 270 273 272 273 275 272 276 277 276 277 276 277 276 277 277 277 277 277
285 285 285 285 286 287 286 287 286 286 284 283 283 281 280 280 280 280 279 278 277 276 273 272 272 263 263 270 278 278 276 275 276 270 272 273 273 273 274 274 275 276 276
285 285 285 285 286 286 286 286 287 286 283 283 282 279 278 277 279 279 279 282 282 283 284 283 272 269 275 279 280 279 278 277 276 269 267 269 270 270 271 271 272 273 273

GFSMW_sfc_thetae_033.txt.gz
Theta_e
306 309 310 310 311 312 314 316 315 311 310 310 312 309 305 305 305 305 305 304 304 305 303 302 300 301 300 300 300 299 298 298 297 296 297 298 299 297 295 298 300 298 299
305 306 308 309 310 311 308 307 307 307 307 307 306 306 305 304 303 302 302 303 303 302 300 299 298 299 300 298 297 298 298 297 296 293 293 290 292 293 295 295 297 294 296
304 306 308 307 306 305 305 306 306 306 307 307 306 305 304 304 302 301 300 300 300 300 299 298 298 298 298 297 297 296 295 294 294 294 291 287 285 288 291 292 292 291 292
306 307 305 303 303 304 304 305 306 306 306 306 305 304 302 301 301 299 299 298 299 298 299 299 299 298 298 297 296 297 294 293 291 293 295 292 293 285 284 289 289 290 291
304 305 306 305 305 304 303 304 305 306 306 306 305 303 302 302 301 299 297 297 297 298 299 299 298 297 297 296 295 293 293 293 291 290 291 288 289 288 287 284 287 289 288
305 305 306 306 304 304 303 303 304 305 305 304 304 303 301 299 297 296 297 296 295 295 297 297 296 296 295 295 294 293 292 291 290 290 289 288 288 285 287 287 286 286 287
303 303 304 305 306 304 303 303 303 303 303 302 301 301 299 298 297 296 294 293 293 293 294 295 295 295 295 294 293 292 291 290 289 289 289 288 288 291 291 289 287 286 287
302 304 305 304 303 302 302 301 303 302 302 300 299 300 299 297 296 295 294 293 293 293 293 294 294 294 293 293 292 291 291 290 289 288 288 288 289 290 291 289 287 283 285
299 300 300 301 301 301 300 299 300 300 300 298 297 298 298 296 295 294 293 293 293 294 293 293 293 293 293 293 292 290 290 289 288 288 287 287 288 288 288 287 287 285 281
299 299 299 299 300 300 299 299 299 297 296 296 295 295 295 296 295 294 293 293 293 293 293 292 292 292 292 292 290 289 289 287 287 288 285 283 284 283 283 283 284 284 284
297 297 298 298 298 298 296 296 296 295 294 294 294 294 294 294 293 293 293 293 292 292 293 293 292 292 292 291 290 288 288 285 283 282 282 282 282 282 282 282 282 281 281
297 297 297 297 297 295 295 296 296 295 295 294 293 292 294 294 293 292 292 292 291 292 292 291 289 289 289 288 286 285 284 283 282 281 281 281 284 280 280 279 279 280 280
295 295 296 295 295 297 295 294 294 295 293 293 292 291 291 291 291 292 291 291 292 291 291 292 290 289 288 287 285 284 283 282 281 281 281 280 280 279 279 279 279 280 282
295 295 295 295 296 296 293 292 292 293 293 292 291 291 291 291 291 291 290 290 291 290 291 292 290 289 288 286 284 283 281 281 281 281 281 280 279 278 278 279 279 281 280
294 295 295 295 294 293 291 290 290 291 291 291 291 291 292 291 291 290 290 291 291 291 291 291 290 287 286 284 281 281 281 280 280 281 281 281 281 284 282 280 278 278 278
295 295 294 293 291 290 289 290 289 289 290 291 290 292 291 291 291 291 290 290 290 291 291 285 284 285 285 286 286 285 281 281 280 279 280 280 282 281 282 282 282 281 278
292 292 290 289 289 289 289 288 288 289 288 289 290 291 290 290 290 290 290 289 288 290 285 285 285 284 283 286 286 286 282 281 280 279 279 279 280 280 279 280 281 281 282
291 289 288 288 287 287 287 288 287 287 288 288 289 289 289 289 289 288 287 285 285 287 288 284 283 282 283 285 284 282 278 277 278 278 278 277 277 278 279 279 279 280 280
290 287 287 287 286 286 286 286 285 285 287 287 287 287 288 288 287 286 287 288 288 287 283 283 281 280 279 283 283 280 276 277 276 277 278 277 277 279 281 279 278 278 279
286 286 285 286 285 285 285 284 284 285 286 287 287 287 287 287 286 285 285 288 287 283 282 281 280 281 277 281 281 279 274 270 275 276 277 278 279 280 281 279 278 277 278
286 286 285 284 284 285 286 284 284 284 286 287 287 286 285 284 285 287 287 287 283 281 278 277 278 278 278 277 280 279 274 274 275 275 275 277 279 280 280 280 279 279 279
285 285 284 284 285 285 285 284 283 285 286 286 285 284 284 284 285 287 286 281 280 279 278 267 271 274 275 278 278 279 279 278 273 275 276 278 279 279 279 278 280 279 278
284 285 284 284 285 285 285 284 285 286 285 284 284 283 282 283 282 283 282 280 279 275 274 275 269 272 276 274 278 278 279 278 274 275 277 277 277 277 277 277 278 277 276
284 284 283 283 284 285 286 285 286 285 284 284 284 284 282 281 282 283 282 278 274 271 275 273 272 270 272 272 273 276 272 275 275 273 272 272 275 274 275 275 275 276 276
284 284 284 284 284 285 285 285 285 285 284 284 285 283 281 279 280 282 279 279 278 276 274 273 272 263 262 270 278 277 273 269 273 267 266 268 270 271 272 272 273 273 273
284 284 284 283 284 284 283 284 286 286 284 282 284 283 279 277 279 279 279 282 281 283 283 283 272 269 275 279 280 279 277 276 275 267 263 260 262 266 270 269 270 271 270

GFSMW_sfc_thetae_036.txt.gz
Theta_e
305 307 309 311 313 314 318 320 320 320 315 312 308 305 304 302 302 301 302 303 302 301 299 298 298 298 298 297 298 298 297 297 296 295 295 296 298 294 294 297 298 295 296
304 306 307 309 311 312 312 310 307 307 307 306 304 304 302 301 301 300 300 300 300 299 299 297 297 297 297 298 297 296 295 296 294 292 291 288 290 292 294 293 295 292 293
303 306 307 305 304 303 303 304 305 305 306 306 304 303 303 301 300 299 298 298 299 298 298 298 298 298 298 297 296 294 293 292 293 293 291 286 284 288 291 291 291 291 291
304 305 303 302 302 303 303 304 305 305 305 305 303 301 300 299 299 298 297 296 297 297 299 298 298 297 297 295 295 296 293 292 290 291 294 292 290 285 284 289 290 290 291
303 303 303 304 302 302 302 302 304 305 305 305 303 302 300 299 298 297 296 296 296 297 298 298 297 296 296 295 294 293 292 292 290 290 289 288 288 287 287 285 288 290 290
302 303 304 304 302 302 301 302 304 303 304 303 303 302 300 297 296 295 295 295 294 294 296 296 295 295 294 294 293 292 292 291 290 290 289 288 289 288 288 286 287 287 290
302 302 304 303 303 304 304 303 302 302 302 301 301 300 299 298 297 296 294 293 293 292 292 293 294 294 294 293 292 291 291 290 288 288 288 288 287 288 289 287 287 286 286
302 302 305 305 302 302 301 301 302 301 300 300 299 299 298 296 296 295 294 293 292 292 293 293 293 293 293 292 292 291 290 290 288 287 287 287 288 288 289 287 284 280 283
301 299 300 300 300 299 299 300 300 300 299 298 298 298 297 296 295 294 292 292 292 294 293 292 292 292 292 292 292 290 291 290 289 287 288 286 287 285 285 285 286 284 277
297 297 298 298 299 297 297 298 298 297 297 295 294 294 294 294 294 293 292 292 292 292 291 291 291 291 293 292 292 291 289 289 288 288 285 283 283 282 283 283 283 284 282
295 295 296 296 296 295 296 296 295 295 294 293 293 292 292 293 293 292 292 292 292 291 291 291 291 292 290 291 291 290 288 287 284 283 282 282 282 281 281 281 281 280 281
295 294 295 295 295 295 295 295 295 296 293 292 292 291 291 291 291 291 292 291 290 290 290 290 289 288 288 289 287 286 286 283 282 282 281 281 283 280 280 280 279 279 280
294 294 294 294 294 296 295 295 293 293 292 292 291 290 290 290 289 289 290 290 289 290 289 289 289 289 290 289 287 285 283 282 282 281 281 281 281 279 279 279 279 279 281
294 294 294 294 295 296 293 290 290 290 290 290 290 290 289 289 289 289 289 289 290 289 288 290 291 290 288 286 285 283 282 282 282 281 281 281 280 279 279 279 279 279 279
293 294 293 293 294 290 289 289 289 289 289 290 290 289 290 289 289 289 289 289 290 290 291 292 291 287 285 284 282 282 282 281 280 281 281 281 282 284 283 281 280 279 277
293 293 293 291 290 289 288 288 288 288 288 289 289 290 290 290 289 288 288 288 288 288 291 286 285 284 285 286 286 286 282 282 281 280 280 280 281 280 281 281 281 280 278
292 293 290 288 288 287 288 286 287 287 286 288 289 289 289 288 288 288 287 285 284 285 287 285 285 283 283 286 286 283 280 278 278 277 277 277 278 279 278 279 280 280 281
291 289 287 287 287 286 285 286 286 285 286 287 287 287 287 286 287 286 286 284 287 288 288 284 281 280 282 284 283 282 278 277 277 277 277 277 276 278 279 279 279 279 280
291 287 287 286 285 285 285 285 284 284 285 286 286 286 286 285 285 284 284 287 287 286 281 281 280 279 279 282 281 280 276 276 276 277 277 277 277 279 282 280 278 278 279
286 285 285 285 284 284 284 284 283 283 284 285 285 286 285 284 283 283 286 287 287 284 282 281 280 280 277 280 280 279 275 270 275 276 277 278 278 280 280 279 277 276 278
286 285 284 284 284 285 284 283 283 283 285 285 285 285 284 283 283 285 287 286 284 282 279 277 278 278 278 277 280 280 275 274 276 275 275 277 279 279 279 279 277 278 278
285 285 284 284 284 285 284 283 282 284 285 285 284 284 285 283 283 284 286 283 280 279 278 268 271 275 275 278 278 280 279 279 272 274 275 276 278 278 278 277 278 278 277
284 284 284 284 285 285 284 283 284 285 284 283 283 284 285 283 282 282 282 281 279 275 273 274 270 272 276 274 278 278 279 278 272 274 275 276 276 276 276 276 277 276 275
284 284 284 283 283 284 285 284 284 284 283 283 285 285 284 283 281 281 282 281 276 272 274 272 272 271 272 272 273 275 273 274 274 272 271 270 274 271 272 273 274 274 273
284 284 283 283 283 284 283 283 283 283 283 285 284 284 283 282 279 280 280 280 279 277 274 273 272 264 264 270 275 276 272 267 271 265 265 267 267 268 270 270 271 272 271
284 284 284 283 283 283 282 282 283 283 283 283 283 284 283 281 279 279 279 282 281 282 283 283 274 269 276 279 280 279 277 276 274 267 262 258 258 262 267 267 268 269 268

GFSMW_sfc_thetae_039.txt.gz
Theta_e
311 316 318 322 325 327 327 322 322 321 317 313 312 309 310 308 308 309 309 309 308 308 309 307 307 307 305 306 306 305 304 303 304 302 300 301 306 304 303 302 302 301 301
313 314 316 319 323 324 325 325 320 319 317 315 314 314 311 310 309 308 308 308 307 307 306 307 306 306 304 304 304 304 301 302 303 298 297 294 296 302 301 301 300 300 300
311 311 312 314 316 318 319 322 320 317 317 315 313 311 311 309 307 307 307 306 306 306 306 306 307 306 305 302 303 303 301 298 301 301 297 291 290 294 298 298 299 299 299
310 309 308 308 310 311 312 313 313 313 313 313 313 312 312 310 309 308 306 306 305 305 306 306 306 306 305 303 302 303 302 301 297 298 299 299 297 288 287 295 295 297 297
309 308 308 309 310 311 311 312 312 312 312 313 313 312 309 308 307 306 305 306 306 304 305 305 305 305 304 304 303 302 302 302 298 297 296 296 295 295 290 287 290 294 295
308 308 309 309 309 310 311 312 311 310 311 312 311 311 309 307 306 306 306 305 304 303 304 304 304 304 304 303 302 302 301 300 299 298 296 294 291 290 289 287 288 289 292
308 308 308 308 309 309 309 310 311 309 309 310 310 310 309 308 307 306 305 303 303 303 303 303 303 302 303 302 302 301 300 299 298 297 296 296 294 294 292 290 288 287 290
308 308 309 309 310 310 310 309 309 307 307 308 307 308 307 308 306 304 303 303 302 302 303 302 302 301 301 301 300 300 299 299 298 296 296 295 295 295 293 291 288 285 286
307 308 309 309 308 307 307 308 308 307 306 305 306 306 305 304 303 303 303 302 302 300 301 301 300 300 300 300 300 299 297 297 296 296 295 294 295 295 292 291 289 286 282
304 305 305 305 305 305 305 306 306 304 304 303 302 301 301 300 301 301 301 301 301 300 300 300 300 299 299 299 298 297 296 295 295 294 293 292 291 290 290 289 289 288 285
302 302 302 302 302 302 303 303 302 300 300 300 300 300 300 299 300 299 299 299 299 298 298 298 298 298 296 295 295 294 293 292 292 290 289 289 289 288 289 288 287 286 285
300 300 300 300 301 301 302 300 300 299 299 299 299 298 298 298 297 297 297 298 297 298 297 297 296 295 294 293 292 291 291 289 288 288 288 288 287 287 287 286 285 284 285
299 299 299 299 300 298 298 297 298 297 297 297 297 297 297 296 296 296 297 296 296 295 296 296 295 293 294 292 292 291 289 288 287 287 287 287 286 285 286 285 284 284 283
298 299 299 299 299 298 296 295 295 296 296 296 296 296 296 296 296 296 296 295 295 294 294 296 295 294 292 292 290 288 288 288 288 287 287 286 285 284 284 283 283 283 282
297 298 297 297 297 295 294 295 295 295 295 294 295 295 296 296 295 294 295 294 294 293 294 294 293 291 290 289 288 288 288 287 286 286 285 284 283 283 282 282 282 281 280
297 297 296 295 293 293 293 293 293 293 293 293 294 295 295 294 293 293 293 293 292 291 291 289 289 288 288 287 286 286 286 284 282 281 282 281 281 281 280 280 280 281 279
296 296 294 293 293 293 292 292 292 292 291 291 293 293 293 292 292 292 291 291 291 291 289 289 288 287 287 285 285 283 283 282 281 280 280 280 280 280 281 280 281 282 282
296 295 293 292 292 292 291 291 291 291 290 291 291 291 291 291 290 290 289 290 290 288 289 287 286 286 285 283 283 281 282 281 281 280 280 280 280 280 280 281 281 281 281
296 294 293 292 291 290 290 290 290 289 289 290 290 290 290 289 289 288 289 288 288 288 287 287 285 284 283 282 281 281 281 280 280 280 280 280 279 279 281 280 279 279 280
292 290 290 290 290 289 290 289 289 288 289 289 290 290 290 288 288 288 288 288 288 287 287 285 285 282 282 280 280 281 282 280 280 280 280 279 279 279 279 279 278 277 278
289 289 289 289 289 289 289 288 288 288 289 290 290 289 289 288 288 288 288 289 287 286 285 283 284 283 282 281 280 280 281 280 279 278 278 279 278 278 278 278 278 278 279
288 289 289 288 289 289 289 288 288 289 289 289 289 289 289 288 286 287 287 287 285 284 283 282 282 283 282 280 280 280 280 280 279 278 278 278 277 277 276 277 277 277 277
287 288 288 287 288 288 289 287 289 288 288 288 288 288 288 287 286 285 285 285 285 283 283 282 282 282 283 283 279 279 280 279 278 278 277 276 275 275 276 275 275 276 276
288 287 287 286 286 287 287 288 287 287 287 287 287 288 286 286 286 285 285 284 284 283 282 281 281 282 282 282 282 281 281 278 278 276 276 274 274 273 274 275 275 275 274
287 287 286 286 286 287 287 287 287 287 286 286 287 287 286 285 285 285 284 284 285 284 282 282 282 282 281 282 280 280 280 280 277 275 275 275 274 273 274 274 274 274 272
286 286 286 286 286 286 285 286 287 286 286 285 286 286 286 286 285 284 284 284 283 282 283 283 283 284 281 280 280 281 279 277 274 275 274 273 272 272 272 273 272 273 271

GFSMW_sfc_thetae_042.txt.gz
Theta_e
320 325 327 329 329 329 330 330 328 325 323 326 320 315 312 314 315 316 315 315 315 315 315 312 310 309 307 307 307 306 305 304 306 303 302 303 305 308 307 306 305 304 304
322 323 327 329 329 328 329 329 330 331 329 325 322 320 318 318 317 316 315 314 314 312 310 310 308 308 306 307 306 306 303 303 304 301 300 295 298 301 305 303 303 304 303
321 323 325 328 329 329 330 329 328 327 324 322 320 319 318 316 314 314 313 313 312 311 309 309 308 308 307 305 306 305 304 300 302 303 299 294 292 296 300 300 300 302 301
319 319 319 322 324 326 326 323 323 322 321 321 319 318 317 315 316 318 315 314 311 309 308 308 308 308 307 306 306 304 304 303 299 300 300 300 298 290 290 297 298 298 298
316 314 314 316 317 319 320 321 320 319 319 319 318 319 317 316 316 315 312 313 312 309 307 307 308 308 307 307 306 305 304 303 300 299 296 296 295 295 292 289 292 295 297
314 313 315 315 316 318 319 319 318 317 318 319 318 317 315 313 312 312 309 309 308 308 307 307 307 307 307 306 305 305 303 302 301 299 297 294 291 291 290 290 290 291 293
313 313 313 314 315 316 317 318 317 316 317 317 316 315 313 310 308 307 306 306 305 305 306 307 306 305 305 305 305 303 302 301 299 299 297 296 294 294 293 291 290 289 291
313 313 314 315 315 316 317 316 316 315 315 314 313 311 308 310 308 307 307 306 305 306 306 306 305 304 303 303 303 302 302 301 300 298 297 295 294 294 292 290 288 286 288
313 314 315 315 316 316 317 317 315 313 312 311 310 308 310 308 307 307 307 307 306 304 302 302 301 301 301 302 302 301 300 299 298 297 296 294 294 294 293 293 291 288 284
313 314 314 315 315 315 314 315 313 310 308 307 306 306 306 306 307 308 305 302 301 300 300 300 299 299 300 301 301 299 299 297 296 295 294 294 293 293 292 292 291 289 287
312 313 313 313 312 311 311 310 308 306 306 304 304 305 305 305 305 303 300 300 300 299 299 298 299 298 298 299 298 297 297 295 295 294 293 292 293 291 292 291 290 289 288
312 311 310 310 308 308 308 307 307 305 304 302 303 302 302 302 300 299 299 300 299 299 298 298 297 298 297 297 296 295 295 293 292 292 292 291 290 291 291 290 289 288 288
309 308 307 306 306 306 305 304 304 303 301 301 301 301 300 299 298 298 299 299 298 298 297 297 297 297 297 295 294 294 294 293 292 292 291 290 290 289 289 288 287 287 286
306 306 306 306 305 304 303 300 301 301 300 299 299 298 298 299 298 299 298 298 297 297 296 296 296 295 295 294 293 292 292 292 292 291 291 290 288 287 287 285 285 285 284
305 305 305 305 304 302 301 301 301 299 299 297 297 297 298 299 298 297 297 297 296 296 295 295 294 294 294 292 292 291 291 290 290 289 288 287 285 283 283 283 283 283 281
304 305 304 303 301 300 300 299 297 298 298 296 295 297 298 297 297 296 296 296 295 295 295 292 292 291 291 286 285 286 289 289 287 286 286 286 284 284 282 282 281 282 281
304 303 302 300 299 298 298 296 297 297 296 295 295 296 296 295 295 295 294 294 294 294 292 292 291 290 290 285 284 283 287 287 286 285 284 284 284 283 283 282 282 283 283
304 303 300 297 296 297 296 296 296 295 294 293 294 294 294 294 294 294 293 293 293 291 292 291 290 290 289 283 282 282 287 286 285 285 284 284 283 283 281 281 281 282 282
304 303 299 296 296 295 296 295 294 293 292 292 293 293 294 293 292 292 292 292 290 290 289 290 290 289 289 282 281 282 286 285 284 284 284 283 282 280 280 279 280 280 280
303 299 296 294 294 293 295 293 292 291 291 292 292 293 293 292 292 292 291 291 290 289 289 288 289 285 288 282 281 282 285 284 284 284 283 282 280 278 279 279 279 278 279
298 296 295 294 294 294 293 291 291 291 292 293 293 293 293 292 292 291 291 289 289 289 288 286 288 288 287 286 281 280 283 283 282 282 282 282 279 278 278 278 279 278 278
293 294 292 292 293 293 292 290 290 292 292 293 292 291 292 292 291 291 290 288 288 287 286 286 286 287 287 284 283 281 280 281 282 281 282 281 278 277 277 277 276 276 278
290 291 291 291 292 292 291 289 291 291 291 291 290 291 292 291 290 289 288 286 287 285 285 284 284 284 286 286 282 281 280 280 281 282 280 277 276 277 277 276 276 277 278
291 291 291 290 290 290 290 291 291 291 290 289 290 291 290 289 290 288 287 286 286 285 284 283 283 284 284 285 285 284 283 281 281 281 281 279 276 277 277 278 278 278 277
290 290 290 289 289 290 290 291 290 290 289 289 289 289 290 289 289 288 287 286 287 286 284 284 284 283 282 283 283 282 283 283 281 278 280 280 279 278 278 278 278 278 277
291 289 289 288 289 289 290 290 290 290 289 288 288 289 289 288 287 287 286 286 284 284 284 284 283 285 284 283 282 281 281 280 278 279 279 279 279 277 277 277 277 278 276

GFSMW_sfc_thetae_045.txt.gz
Theta_e
322 325 327 328 328 333 333 330 328 327 330 330 324 322 319 318 318 318 318 318 318 317 317 314 312 311 309 309 309 307 306 305 305 302 302 303 307 307 306 307 306 305 305
322 325 328 330 331 331 331 329 329 330 331 329 326 324 320 319 319 318 318 318 317 315 313 312 311 310 308 308 308 307 304 304 305 300 299 296 299 301 304 304 303 305 303
322 325 327 328 328 326 328 329 330 329 327 324 322 321 320 319 317 316 316 316 315 313 312 311 310 309 308 306 307 306 304 301 303 304 299 294 292 296 299 301 301 303 301
324 325 327 327 329 330 331 330 326 323 322 322 320 319 316 313 316 319 317 316 314 312 310 310 310 309 308 307 306 305 305 304 300 301 301 301 299 292 291 296 297 299 298
323 323 324 325 326 327 325 323 322 321 322 321 321 319 318 319 318 317 315 314 314 311 309 309 309 308 307 307 307 307 305 303 300 299 298 298 297 297 293 289 292 296 297
320 318 320 320 320 324 323 322 321 319 321 321 321 319 317 315 314 313 312 310 310 308 308 308 308 308 306 305 304 305 304 302 301 300 298 297 294 293 292 291 291 291 294
317 315 315 315 317 319 320 320 319 318 320 320 320 318 316 313 310 309 308 306 306 306 307 308 307 305 305 303 304 303 303 302 300 300 298 298 296 295 294 292 291 289 291
316 315 315 316 317 318 319 319 319 317 319 318 316 315 312 311 310 308 307 307 306 306 307 306 304 302 302 301 303 302 302 302 301 299 298 297 297 296 295 292 289 287 288
315 315 316 317 318 318 319 320 318 316 316 315 313 312 310 308 307 307 308 307 307 305 303 302 301 301 300 300 301 301 300 301 300 298 298 297 296 295 294 293 292 289 285
314 315 316 317 318 319 320 320 319 316 314 312 311 309 307 306 307 307 306 304 303 301 301 300 300 300 300 300 300 299 299 298 298 297 297 295 295 294 294 293 292 292 288
315 315 317 318 319 319 318 318 316 313 310 309 308 306 306 306 306 304 302 301 301 300 299 299 299 298 298 299 299 298 297 296 296 296 295 294 294 293 292 293 292 291 290
315 316 317 317 317 315 315 314 312 310 308 307 304 305 305 304 303 301 300 301 300 300 299 298 298 298 298 298 297 294 295 295 294 293 293 292 292 292 292 291 290 290 289
315 316 316 315 314 313 312 311 309 308 306 302 304 304 303 302 300 299 300 300 299 299 298 298 297 297 297 297 296 294 295 294 293 292 292 291 291 289 289 289 288 287 286
314 314 313 312 312 311 310 308 306 305 302 303 302 301 300 300 300 300 299 299 298 298 297 297 297 296 295 295 294 294 292 292 292 292 291 290 289 288 286 285 285 285 284
312 312 311 310 310 309 307 305 305 304 303 300 299 299 299 300 300 299 298 298 298 297 297 296 296 295 294 292 292 292 292 291 291 290 289 289 286 284 284 283 283 283 282
310 311 310 310 308 306 304 304 303 302 300 299 298 297 298 298 298 297 297 297 296 296 296 295 294 292 292 286 286 286 289 289 288 287 288 287 287 286 285 284 283 282 280
310 310 309 309 308 306 303 302 301 300 298 297 296 296 297 296 296 296 296 295 295 295 295 293 291 290 291 286 284 284 287 288 288 287 286 285 286 285 285 284 283 283 284
309 309 309 308 305 304 301 301 299 298 297 295 295 295 295 295 295 295 294 294 295 294 293 292 291 290 290 285 283 282 286 288 288 287 286 285 285 284 281 281 280 281 282
310 310 309 305 303 300 299 299 298 296 295 293 293 294 294 294 294 293 294 294 293 292 290 290 290 290 289 284 283 282 286 287 286 286 286 285 284 281 280 279 279 279 280
310 308 305 302 300 299 298 297 296 294 292 293 293 294 294 294 293 293 294 293 293 290 290 289 289 290 289 284 283 282 285 285 285 285 285 282 281 279 279 278 278 277 279
307 305 301 298 297 298 297 294 293 292 293 294 294 294 294 293 294 294 293 293 291 289 289 288 288 289 288 288 283 282 283 284 283 283 283 284 280 279 278 278 278 278 278
301 299 297 296 297 295 293 292 291 292 294 293 293 292 293 293 293 293 292 292 289 288 288 287 288 288 289 286 284 283 282 282 282 282 283 283 280 278 278 278 278 277 278
296 296 295 293 293 293 292 290 291 293 292 291 291 292 293 293 292 291 291 288 287 287 287 286 286 286 287 288 285 284 282 281 281 283 282 280 280 279 279 279 278 277 280
295 295 292 291 292 292 291 292 292 292 291 290 290 291 291 291 291 291 290 288 287 287 286 286 285 285 285 286 287 285 284 282 282 283 283 281 280 279 279 279 281 280 280
291 291 290 291 291 291 291 292 291 291 290 290 290 291 291 291 290 290 289 288 289 288 286 286 286 286 285 285 285 284 285 285 283 280 281 281 282 281 281 281 280 280 280
290 291 291 291 290 290 291 291 292 291 290 289 290 290 290 290 290 289 288 288 286 286 285 285 285 287 285 284 284 283 282 282 281 280 280 281 281 280 279 279 279 280 279

GFSMW_sfc_thetae_048.txt.gz
Theta_e
318 322 323 324 326 332 331 330 326 326 325 327 323 320 318 316 316 316 316 317 316 316 313 312 309 308 307 305 305 303 301 301 301 298 298 298 299 300 299 299 300 301 302
318 322 324 327 328 330 329 329 328 327 327 329 324 323 318 317 316 317 317 317 316 313 312 309 308 308 305 305 304 303 301 300 300 296 296 292 294 297 298 297 297 296 298
318 321 324 326 330 329 328 327 328 327 329 326 323 321 319 317 315 315 314 315 314 312 310 309 308 306 305 303 303 302 301 297 298 299 295 291 288 292 295 295 295 295 295
320 323 324 325 327 326 328 329 329 329 326 322 319 317 314 312 314 314 314 313 313 311 309 308 306 305 305 303 302 302 301 299 296 297 299 296 294 289 288 292 293 294 294
320 322 324 325 326 328 328 329 328 323 321 321 320 318 317 314 316 315 314 313 313 312 308 307 306 304 304 303 302 301 299 298 296 295 294 293 293 292 289 286 288 291 292
322 322 325 326 326 329 327 323 320 319 320 320 320 319 318 314 313 311 311 310 310 308 307 307 305 304 303 302 300 299 299 298 297 296 295 293 291 290 290 286 286 287 289
320 320 321 321 320 320 321 321 319 317 319 320 319 318 316 313 310 308 307 305 305 304 305 305 303 302 301 299 299 298 297 297 296 295 295 296 294 294 291 288 286 286 287
318 316 317 316 317 319 319 319 318 317 318 319 318 316 314 311 309 306 306 305 304 304 305 302 301 300 299 298 298 296 296 296 296 295 295 294 293 294 292 290 285 282 284
315 314 315 315 316 317 319 320 317 317 318 316 315 312 310 308 306 306 306 305 305 302 300 299 299 298 298 298 297 296 296 297 295 293 293 292 292 293 293 290 288 284 281
315 314 314 315 316 317 318 320 319 315 315 314 312 310 308 306 307 305 304 302 300 299 299 298 298 297 297 296 296 295 295 293 293 293 293 292 292 291 290 289 288 287 285
315 314 315 316 317 317 318 319 318 313 312 311 309 307 305 306 305 304 301 299 299 298 298 297 297 296 296 296 295 295 293 292 292 292 292 292 291 289 289 288 288 287 285
315 315 315 316 315 317 316 317 317 312 310 308 305 304 305 305 304 301 299 299 298 298 298 297 296 296 296 295 294 292 292 292 291 292 290 289 291 288 287 286 284 284 283
315 315 315 315 315 316 315 314 313 310 306 304 304 304 305 303 300 298 298 299 298 298 297 296 296 295 295 294 293 293 292 292 290 290 289 289 288 285 284 282 282 282 283
313 314 314 315 315 314 313 311 309 306 305 304 303 302 302 300 299 298 299 298 298 297 296 296 295 295 293 293 293 293 290 290 290 290 290 287 285 282 281 281 279 280 279
311 313 314 314 313 312 311 309 306 305 304 304 301 300 300 300 299 299 298 298 297 296 296 295 295 294 292 290 288 289 288 288 287 288 287 286 286 287 282 280 279 279 278
310 312 313 312 311 310 308 305 305 304 304 301 299 299 298 298 298 297 297 296 296 295 295 294 293 291 291 286 286 285 284 286 285 284 284 284 286 285 284 285 283 282 277
308 311 311 311 310 308 306 303 303 302 299 299 298 297 297 296 296 296 295 295 294 294 293 291 290 291 290 287 285 284 283 283 284 283 283 283 285 283 281 282 282 281 282
308 311 311 310 308 306 305 303 300 299 299 297 296 295 295 295 295 295 294 293 293 292 291 290 290 290 290 287 285 283 281 283 284 284 283 282 281 278 279 278 277 278 279
310 311 310 308 305 303 301 299 298 298 296 294 293 294 294 293 294 293 293 293 292 291 289 290 289 288 289 287 285 282 282 282 282 283 283 283 280 280 281 277 276 277 277
310 309 305 303 301 298 299 297 294 294 293 293 293 294 294 293 292 292 292 292 291 290 289 288 289 289 286 286 285 284 281 280 281 282 282 281 279 279 279 274 274 273 276
307 304 302 299 298 297 296 294 294 292 293 294 294 293 293 292 292 292 292 291 290 288 286 286 286 286 286 286 286 285 281 280 280 280 280 280 280 280 279 278 275 275 276
300 299 297 296 296 295 293 290 291 293 294 293 292 292 292 292 292 292 291 290 288 285 285 283 284 285 285 287 287 285 283 283 278 279 280 280 281 281 280 278 279 279 277
295 296 294 292 293 293 292 290 292 292 292 291 291 291 292 292 291 290 290 287 286 284 283 283 282 283 284 283 287 285 284 283 278 279 281 282 281 281 279 281 279 277 275
293 293 292 291 291 292 292 292 292 292 291 290 290 290 290 290 290 290 289 287 284 283 283 283 282 283 283 283 283 283 282 283 281 280 281 279 278 276 276 276 278 277 275
291 291 291 290 291 293 292 292 292 292 290 290 290 290 289 289 289 289 288 285 286 285 284 283 283 283 284 283 284 282 284 283 282 277 276 276 278 277 276 276 276 276 276
291 291 292 292 291 291 290 291 292 291 290 289 289 287 287 287 287 287 286 288 286 287 286 286 284 284 285 285 285 285 284 284 282 276 274 274 275 277 275 273 274 274 274

GFSMW_sfc_thetae_051.txt.gz
Theta_e
310 312 315 323 324 326 326 324 322 321 321 319 317 315 312 310 309 309 311 311 312 310 307 306 305 303 302 301 301 299 298 297 297 294 294 294 296 295 295 295 295 296 297
313 316 317 324 325 325 325 323 322 321 321 323 319 315 312 309 310 310 311 311 309 308 307 304 303 302 301 300 299 298 297 296 297 293 292 289 292 293 296 294 294 292 294
313 316 318 320 324 323 323 323 323 322 322 325 319 315 311 310 308 308 309 309 309 308 306 305 303 301 301 299 298 297 296 294 295 295 292 288 285 289 292 293 292 292 291
316 317 318 321 323 322 324 325 324 322 323 324 317 312 307 307 307 308 308 308 308 307 305 304 302 301 301 299 298 300 297 295 292 294 296 292 291 286 287 289 291 291 292
316 317 320 322 323 324 324 322 323 323 323 317 314 310 308 308 309 310 310 308 307 306 305 303 301 300 300 299 297 295 295 295 293 292 291 291 290 290 286 285 286 289 290
316 319 322 323 323 322 321 321 322 321 314 313 312 311 309 310 310 309 309 307 307 304 303 302 300 299 298 296 295 294 294 293 293 293 292 291 289 290 289 287 285 285 287
316 319 321 320 321 319 321 322 319 312 312 313 312 311 308 307 306 304 302 300 301 301 301 299 298 296 295 295 294 293 293 292 292 292 292 293 292 292 293 290 286 284 285
313 317 319 320 321 316 313 316 312 312 313 313 311 309 307 304 302 302 303 302 302 302 297 296 295 295 295 295 294 293 292 292 292 291 291 292 293 292 292 290 286 282 281
310 311 311 313 312 312 312 311 311 311 313 312 309 306 303 301 302 302 302 302 300 299 296 294 294 294 294 294 293 292 292 291 290 290 290 290 290 291 291 289 288 286 280
309 308 309 311 312 312 313 312 311 312 312 311 308 306 302 302 302 303 302 300 298 297 296 294 294 294 294 293 293 291 291 290 289 291 290 289 290 290 289 288 289 286 283
308 307 307 311 312 312 312 312 311 312 310 308 305 302 302 304 303 302 300 297 297 296 295 294 294 294 293 293 292 291 291 290 289 289 289 289 289 288 287 286 284 282 280
310 308 308 309 311 313 315 314 312 309 307 303 303 305 304 303 303 301 298 297 296 296 295 294 294 294 293 293 292 289 290 289 289 289 288 287 289 285 283 281 279 279 279
309 308 308 310 313 314 314 314 309 304 304 304 304 304 303 303 300 298 297 297 295 295 294 295 294 293 293 291 291 290 290 289 289 289 287 287 286 281 280 279 278 278 280
310 309 308 311 313 313 312 310 304 303 303 303 304 302 302 299 297 297 296 295 295 294 294 295 294 293 291 291 290 290 288 288 288 288 288 286 282 280 279 279 277 279 277
306 307 308 309 309 309 307 304 303 303 303 302 300 296 297 297 297 296 295 295 295 295 294 294 293 291 290 289 287 287 286 285 285 284 285 283 286 288 282 280 277 277 276
305 307 309 309 308 307 303 302 302 302 302 297 297 297 297 297 295 294 294 294 294 293 293 292 291 289 290 288 287 285 283 283 283 281 282 282 285 284 285 284 283 281 276
303 306 307 307 306 303 302 301 301 299 297 296 297 296 296 294 294 294 293 292 292 292 291 290 289 288 288 288 287 285 281 281 281 281 281 282 283 281 279 280 280 279 280
304 305 303 301 301 301 301 299 298 297 296 295 294 294 293 293 293 293 293 291 291 290 289 288 288 288 289 289 288 285 280 280 281 281 281 280 279 279 278 277 276 276 277
303 301 300 298 295 295 296 296 296 294 292 291 291 293 293 292 292 292 291 291 290 289 288 288 287 286 286 288 287 284 281 281 281 282 281 281 278 280 280 277 276 275 276
299 297 294 294 293 292 293 291 291 291 290 292 292 293 293 292 291 291 290 290 290 288 287 286 286 287 285 287 287 285 280 280 280 280 280 281 278 279 279 273 273 272 274
294 294 293 291 291 292 291 290 290 290 292 293 293 293 293 291 290 290 290 289 288 286 284 284 284 284 284 284 288 286 281 280 280 279 278 278 280 280 281 280 275 273 276
291 291 290 289 289 290 291 290 289 292 293 292 292 291 291 290 290 289 289 288 286 283 283 278 281 281 283 285 287 287 286 282 278 279 279 279 282 282 282 280 279 280 278
290 291 290 290 291 291 291 290 290 291 291 290 289 289 289 289 288 287 286 284 283 280 281 281 279 280 282 282 286 287 286 284 279 279 279 282 283 282 281 281 281 278 274
290 291 290 290 290 291 291 290 292 291 289 287 287 287 287 286 286 287 286 284 280 279 281 280 280 279 280 280 280 281 283 284 282 279 279 277 278 276 277 276 278 276 274
290 291 290 289 289 290 291 290 289 289 287 287 287 286 286 285 285 286 285 283 282 281 280 280 281 279 278 281 283 282 280 278 280 277 277 278 275 275 277 276 276 275 274
291 289 289 289 288 287 287 288 288 288 286 286 285 283 283 282 283 283 285 286 285 286 287 286 283 284 285 286 287 286 286 285 283 278 273 269 269 271 275 275 274 272 272

GFSMW_sfc_thetae_054.txt.gz
Theta_e
313 316 317 318 319 321 322 321 319 317 317 316 316 314 310 309 308 308 310 310 310 310 305 303 302 301 300 299 299 297 297 296 296 293 293 293 294 293 293 293 293 294 294
309 315 317 317 319 322 321 320 319 318 318 319 316 314 311 308 307 308 309 310 308 306 304 302 301 300 299 298 297 297 296 295 295 292 290 288 290 292 295 292 293 290 292
308 313 317 318 320 321 321 320 320 319 319 320 318 312 309 307 306 306 306 306 307 307 304 302 301 300 299 297 297 296 294 293 293 293 291 287 284 287 290 291 291 290 290
311 316 318 319 320 321 322 321 321 320 320 322 318 310 307 306 306 306 307 306 307 306 304 303 301 300 299 297 297 297 294 293 290 292 295 291 290 286 284 288 291 290 291
311 315 319 321 322 322 322 322 322 322 321 322 317 311 306 307 306 307 306 306 305 304 303 301 300 299 298 296 294 293 293 292 291 290 290 289 289 288 285 284 285 288 289
312 315 320 322 321 322 322 322 322 321 320 320 314 311 308 307 306 306 305 305 305 302 302 300 298 297 295 294 293 292 291 290 290 290 290 290 288 287 287 286 288 288 287
312 316 319 320 321 321 322 322 320 319 315 313 312 310 308 307 307 306 304 302 300 301 300 298 298 296 295 295 293 291 291 290 289 289 290 291 291 292 290 288 286 285 284
315 317 318 319 319 320 319 321 320 314 310 310 309 307 306 304 303 304 303 302 301 299 298 296 297 296 296 294 292 291 290 291 290 289 289 290 291 291 290 288 284 282 281
315 316 317 318 318 317 316 316 314 311 310 309 306 304 303 302 304 303 302 300 299 298 297 296 296 294 292 292 292 290 290 289 288 288 289 289 292 292 291 290 290 287 282
310 313 315 315 314 314 310 309 312 312 311 308 306 304 303 302 304 304 302 299 298 298 297 295 294 293 292 292 292 291 290 289 289 289 289 288 289 289 289 287 288 287 284
308 310 312 314 313 312 310 309 309 310 309 306 303 303 304 304 303 302 299 298 298 297 296 295 293 293 293 294 292 290 291 290 289 289 288 289 288 287 287 285 283 280 279
308 309 310 311 310 311 311 310 311 311 306 303 302 304 304 305 303 300 299 299 296 296 295 294 293 293 293 293 291 289 289 289 288 288 288 287 289 284 283 280 279 278 278
307 307 308 309 310 311 311 309 306 302 302 303 303 303 302 303 301 300 298 297 295 293 293 293 293 293 293 290 290 290 290 289 288 288 287 287 286 282 280 279 278 278 280
309 307 306 308 310 310 308 305 304 304 305 305 304 302 303 303 298 296 295 295 295 292 293 294 293 293 290 290 290 289 287 287 287 286 285 284 282 280 279 278 277 278 277
307 306 305 306 309 309 305 303 304 304 305 302 299 300 297 296 296 296 293 294 293 293 294 294 292 291 290 289 288 287 285 284 284 284 284 283 284 287 282 279 277 277 276
303 305 308 308 308 305 302 302 303 302 301 296 295 296 296 296 295 293 293 292 293 293 292 291 291 288 290 289 288 286 283 283 282 281 282 281 284 284 285 284 283 280 276
304 306 307 307 305 302 303 300 298 296 294 294 295 296 296 294 293 293 293 292 291 291 290 290 289 288 288 289 289 287 282 281 281 280 280 281 283 282 280 281 280 279 280
301 300 299 298 298 298 295 295 295 295 293 292 293 294 293 292 293 293 292 290 290 289 289 288 288 287 288 289 289 288 281 280 280 280 281 280 279 279 279 278 277 277 276
294 293 293 293 293 294 294 292 290 291 291 292 292 293 294 293 292 290 290 289 288 288 287 287 286 285 285 288 288 287 280 279 280 282 282 281 279 280 282 278 276 276 276
292 291 291 291 291 290 291 290 289 290 290 292 293 295 294 291 291 290 289 288 287 287 286 285 285 286 284 287 288 287 279 281 281 281 281 283 280 281 280 275 274 272 274
289 289 289 288 289 290 291 290 290 290 292 294 294 292 292 291 290 288 287 287 286 284 283 283 283 283 284 283 287 288 283 282 281 280 279 279 282 281 281 281 275 273 276
289 289 288 289 291 292 291 290 289 291 292 290 290 289 289 288 288 287 286 286 284 282 282 278 281 281 282 285 286 288 287 285 280 280 280 279 282 282 282 281 280 281 278
289 290 289 289 290 290 290 289 289 289 289 288 288 287 287 287 286 285 284 283 282 280 280 281 281 281 281 281 286 287 287 286 283 281 281 282 282 282 282 282 282 278 274
290 290 290 289 288 290 290 289 290 290 288 286 286 286 285 285 284 284 284 283 281 280 281 281 280 280 281 280 281 282 282 285 285 281 281 278 279 275 276 276 278 277 275
290 290 289 288 288 288 288 287 287 287 285 285 285 285 284 284 284 284 284 284 283 283 283 281 280 278 278 281 283 283 281 281 282 281 278 278 277 276 275 276 276 276 275
290 289 287 285 284 285 285 286 287 286 284 284 283 282 282 282 282 283 284 286 285 286 285 286 283 282 285 286 286 286 286 285 284 280 278 278 275 275 275 274 274 273 273

GFSMW_sfc_thetae_057.txt.gz
Theta_e
318 319 321 317 317 319 319 318 317 315 316 314 312 310 309 308 307 308 309 310 309 307 303 301 300 300 299 298 297 296 295 294 294 292 292 292 292 292 292 292 291 292 293
313 316 316 314 316 319 319 318 318 316 316 315 314 313 309 308 307 307 308 309 308 305 303 301 299 300 299 297 296 296 294 293 293 291 289 286 289 291 293 291 292 290 291
310 312 312 313 315 318 318 319 318 317 316 317 314 309 307 306 305 305 305 306 306 305 303 301 300 298 298 296 295 294 294 292 292 292 290 285 283 286 289 290 290 290 289
310 312 313 313 315 319 320 320 319 317 317 318 314 309 307 304 305 305 305 305 305 304 303 301 300 298 298 296 295 296 294 292 290 291 294 290 289 285 284 288 289 288 290
308 311 313 314 316 319 319 319 319 318 319 319 317 311 306 305 305 305 305 304 303 303 302 300 299 298 297 294 293 292 291 292 291 289 289 288 287 286 285 282 285 288 289
307 312 315 316 318 319 320 318 319 319 319 319 316 311 307 305 305 304 303 303 302 300 300 299 298 297 294 293 292 291 291 289 289 289 288 288 287 287 285 283 284 284 287
307 312 315 317 318 319 320 319 319 319 319 319 316 312 308 307 306 305 305 301 298 299 298 299 298 297 295 294 294 292 290 289 288 288 289 290 290 290 288 286 285 284 283
310 314 317 318 318 320 321 320 320 319 318 316 314 310 308 307 305 304 303 301 300 298 298 299 297 297 297 295 293 291 290 290 288 288 288 288 289 289 290 287 284 281 283
310 315 317 319 319 321 319 319 319 318 314 312 309 306 306 303 302 303 302 299 299 300 299 297 297 296 295 293 292 290 289 289 288 287 287 287 288 289 289 288 288 287 283
311 314 316 317 318 319 319 318 317 315 310 308 306 304 303 303 302 301 299 299 299 299 297 296 296 294 294 292 292 291 289 289 288 288 287 287 287 287 287 289 288 289 286
311 314 316 317 318 317 313 315 312 310 307 305 302 301 301 302 301 299 299 299 299 298 298 297 295 294 292 292 291 290 289 288 288 288 288 288 287 286 285 284 282 281 280
310 313 315 315 313 312 312 311 311 309 307 301 301 302 302 302 301 300 298 299 298 298 297 296 293 292 292 292 290 288 288 288 287 287 287 286 288 284 283 281 280 279 278
306 308 310 312 313 312 311 307 304 300 302 303 302 303 303 302 299 298 299 298 297 296 294 292 292 292 291 290 289 288 288 288 288 287 286 286 285 283 280 279 278 277 279
307 304 306 308 310 309 306 303 302 302 302 303 303 302 301 301 301 298 295 295 295 293 293 293 292 292 290 289 289 289 287 286 286 286 284 283 283 281 279 279 278 277 276
305 304 303 305 306 305 303 303 303 305 305 304 303 303 302 300 296 294 293 295 294 294 293 293 292 290 289 289 287 286 285 284 283 283 283 282 283 285 282 279 277 276 275
302 305 305 306 306 303 301 303 303 304 304 302 299 297 296 296 295 295 294 293 293 293 293 291 290 288 288 289 289 287 283 283 282 281 281 281 284 284 286 285 283 279 276
303 304 305 304 302 301 302 300 298 296 295 297 296 296 296 294 293 293 293 293 292 291 290 290 288 287 287 289 290 289 283 282 281 280 280 281 282 283 281 284 283 281 281
296 296 297 297 296 294 294 294 294 295 295 294 293 293 293 293 294 295 294 291 290 288 287 287 287 286 287 289 289 289 284 281 280 280 280 281 280 280 280 278 277 277 277
290 290 291 292 292 292 292 291 291 293 292 292 293 295 295 295 295 292 290 289 287 286 286 286 286 285 284 287 288 287 282 281 280 281 281 282 281 282 284 278 277 277 277
289 289 289 289 289 288 290 289 289 291 291 292 294 295 294 293 291 289 287 287 286 285 285 284 284 285 284 287 288 287 281 280 281 281 282 284 282 282 282 276 275 273 276
287 289 289 288 288 290 290 289 289 290 293 294 293 293 291 290 289 287 286 285 284 283 283 283 283 283 283 284 288 288 282 282 283 282 281 281 283 283 283 282 276 274 277
287 288 288 288 289 290 290 289 289 291 291 290 289 288 288 287 287 285 284 284 283 282 282 278 281 281 282 285 286 287 287 285 283 282 281 281 283 283 283 281 281 282 278
286 288 289 289 289 290 290 287 288 289 288 287 286 286 286 285 285 283 283 282 282 280 281 281 281 282 282 281 285 286 286 286 285 284 283 283 283 284 282 283 282 279 276
288 290 289 289 289 290 289 287 287 287 286 284 284 284 283 283 283 283 283 282 280 280 282 282 282 282 283 281 281 281 281 285 285 284 285 282 281 280 280 278 280 277 275
289 290 288 287 285 285 285 285 285 285 284 283 283 283 282 282 283 283 282 283 283 283 283 284 283 283 282 282 283 282 280 280 281 282 282 280 279 278 278 277 277 276 275
288 286 285 284 283 284 284 285 285 284 283 282 282 281 281 281 281 281 282 285 285 286 286 286 284 285 286 286 287 286 285 286 285 281 280 277 277 277 277 276 276 274 273

GFSMW_sfc_thetae_060.txt.gz
Theta_e
317 317 319 319 317 317 318 318 316 315 316 315 312 310 309 309 309 309 309 309 308 305 303 301 300 299 298 297 296 296 295 294 294 292 291 292 292 293 292 293 293 293 294
315 316 317 316 315 317 319 317 317 315 317 317 312 312 309 308 307 307 308 308 306 303 302 300 299 299 297 297 296 296 294 293 293 290 289 286 289 291 293 292 293 292 292
314 315 316 315 315 316 318 318 318 316 317 316 313 308 307 307 305 305 305 306 307 304 302 300 299 298 297 296 295 294 293 291 292 292 289 284 283 286 290 291 291 291 291
313 314 314 312 313 315 317 318 318 316 315 316 312 309 308 305 305 305 305 305 305 303 301 300 299 297 297 295 295 295 293 291 289 290 294 290 289 286 284 289 290 290 291
310 310 313 313 313 315 316 317 317 316 316 316 314 311 308 308 307 305 305 304 302 302 301 299 298 297 296 295 295 294 293 292 290 289 288 288 288 287 286 283 286 289 290
307 309 310 311 311 314 315 316 316 316 317 317 315 313 312 308 307 304 304 302 300 299 298 298 297 295 295 296 294 292 292 290 290 290 289 289 287 287 285 283 284 284 288
303 305 308 310 313 315 316 317 317 316 317 317 316 314 313 309 306 304 304 300 297 296 296 296 296 297 297 296 295 293 292 291 290 288 288 290 290 290 288 287 286 284 285
303 305 309 312 314 316 317 318 318 319 318 318 317 316 313 308 305 305 305 300 298 297 297 299 298 298 297 296 294 294 292 291 289 288 288 288 289 289 289 288 285 285 285
303 307 310 314 315 316 317 319 319 319 318 319 317 313 310 307 304 302 301 299 298 298 299 296 297 297 296 295 294 291 290 289 288 287 287 287 288 288 288 288 288 288 283
305 308 312 315 317 318 319 320 319 319 318 316 313 312 308 304 303 302 299 298 299 299 297 297 297 296 295 294 293 290 289 288 288 288 287 287 287 287 287 287 288 288 288
306 309 312 315 316 317 318 318 318 317 311 311 308 303 301 300 301 300 299 300 299 298 298 297 297 295 295 291 290 289 289 288 288 288 287 287 287 286 286 285 284 283 283
308 310 311 313 314 315 315 315 314 313 309 302 300 300 300 300 300 299 300 300 299 299 298 298 296 295 292 290 289 288 289 288 287 288 287 287 288 284 283 282 281 280 279
307 309 310 312 314 315 312 311 309 306 303 302 301 301 301 300 299 299 299 300 299 298 297 296 294 293 291 290 290 289 289 288 288 287 286 286 285 284 283 281 280 279 280
306 306 307 308 310 309 306 304 302 304 304 303 303 302 301 301 299 300 299 298 297 296 295 294 294 292 291 291 290 289 288 287 287 286 285 284 283 282 282 280 279 279 277
304 304 304 305 306 305 302 301 301 302 303 303 302 302 302 301 299 296 296 296 296 295 294 293 292 292 291 289 288 287 286 284 284 284 283 283 284 286 283 280 279 277 276
301 303 302 304 304 302 302 302 302 301 302 301 300 300 299 297 296 296 295 294 293 293 293 292 291 290 289 289 290 287 284 284 283 282 282 282 284 285 287 288 285 280 277
300 301 301 301 300 299 301 299 298 298 297 297 297 297 296 294 294 293 294 294 294 294 292 291 289 288 287 289 290 289 285 283 283 282 281 281 282 284 282 284 285 284 283
293 294 294 293 292 293 293 294 295 294 295 294 293 293 293 294 295 295 295 294 292 290 287 287 286 285 286 289 289 289 285 283 282 282 281 280 280 281 281 280 280 279 279
288 288 289 290 290 290 291 292 292 292 293 294 295 295 295 294 294 294 293 289 287 286 285 285 284 284 284 288 288 287 284 283 283 283 281 281 280 282 285 282 278 278 278
287 287 287 288 288 288 290 291 291 292 292 294 295 295 295 295 292 289 288 286 284 284 284 283 284 285 283 286 288 287 283 282 282 282 282 284 283 284 284 280 278 275 277
287 287 287 287 286 288 289 289 291 291 294 294 294 292 290 289 287 285 284 284 283 282 282 282 282 283 283 284 287 288 284 283 283 281 283 282 283 285 285 283 278 276 278
286 287 287 287 288 288 289 287 289 290 290 289 288 287 286 286 285 283 283 283 282 281 281 279 281 282 282 284 286 287 287 286 284 283 284 284 284 284 285 283 282 281 278
286 288 287 287 287 287 288 288 287 287 287 285 285 284 284 283 283 282 282 281 281 279 280 281 281 282 284 281 285 286 286 286 285 284 285 285 284 284 284 284 283 281 279
286 287 287 285 283 286 286 285 285 285 284 283 283 282 282 282 282 282 282 280 278 279 281 281 281 282 283 283 281 281 282 284 285 284 285 285 284 283 282 281 283 282 280
287 286 284 284 284 285 284 284 283 283 282 281 281 281 280 280 280 280 280 281 280 280 281 281 281 280 280 282 285 285 285 284 283 283 283 283 282 280 280 279 279 280 278
285 284 284 284 283 281 280 281 282 280 279 279 279 278 278 278 278 277 278 281 282 283 283 283 281 282 283 284 285 285 285 286 286 282 281 280 279 278 278 278 278 278 277

GFSMW_sfc_thetae_063.txt.gz
Theta_e
320 321 322 323 323 326 326 327 327 327 325 323 321 321 323 323 322 323 321 319 317 316 312 311 310 310 309 308 308 307 306 305 306 303 302 303 302 302 303 304 304 303 303
318 319 321 323 322 323 325 325 326 324 325 325 324 324 323 321 321 320 319 318 316 313 311 311 309 309 307 307 307 307 305 305 305 300 299 296 298 301 302 302 302 302 303
318 319 319 321 322 321 323 324 325 325 325 326 323 319 318 317 316 316 315 314 312 310 311 310 309 309 308 307 307 307 304 302 302 301 298 293 292 294 300 300 301 301 302
319 321 320 320 322 322 325 325 325 324 324 324 323 320 321 317 317 316 313 311 311 310 310 309 309 308 307 307 306 305 304 302 298 300 300 300 297 292 291 298 299 300 300
319 320 321 322 323 323 324 325 325 324 324 323 323 322 320 319 316 314 312 311 311 311 309 309 308 307 307 306 305 303 300 299 298 298 298 297 298 297 293 290 294 298 299
318 320 322 322 321 322 323 324 323 323 323 322 322 321 319 315 313 313 311 311 311 310 308 307 307 307 305 303 300 302 298 298 297 298 298 296 294 294 294 292 293 293 295
317 316 316 317 318 319 322 323 322 322 321 320 320 319 319 316 314 314 311 310 309 307 306 306 305 304 304 302 300 300 299 295 296 298 298 298 298 298 297 295 293 291 293
313 314 315 316 317 319 321 321 321 322 321 319 320 319 318 317 316 311 312 311 308 306 306 305 304 304 303 299 298 299 297 298 299 299 299 298 298 297 296 293 292 289 290
308 311 313 316 317 318 320 321 322 322 322 321 320 320 320 318 314 312 314 312 309 305 304 304 304 301 301 299 297 297 296 299 299 299 298 297 297 296 296 296 294 292 287
306 307 310 314 317 319 321 322 323 322 322 322 322 321 320 318 315 312 311 309 305 304 303 302 299 300 299 298 298 296 298 298 298 297 296 296 296 296 296 295 295 294 291
310 310 313 316 319 321 321 322 323 323 322 323 321 320 321 317 313 310 309 306 304 302 299 301 301 298 297 297 295 297 298 296 297 296 295 295 296 295 295 295 294 293 292
313 314 315 318 319 320 322 322 322 322 323 322 320 317 313 309 307 305 304 304 302 301 301 299 299 299 296 296 296 297 296 296 295 295 295 294 293 294 294 293 292 291 291
312 314 316 317 319 321 321 320 319 319 317 313 310 307 305 304 304 303 303 304 301 300 299 298 297 297 298 296 297 297 296 296 295 295 294 293 293 292 293 292 291 291 289
310 314 315 316 317 318 318 318 315 312 308 307 307 306 305 304 303 302 301 300 301 298 297 298 298 296 297 297 296 296 296 295 295 295 294 293 292 292 291 290 290 289 288
304 310 311 314 315 313 310 309 309 308 308 306 305 304 304 304 301 299 299 300 298 298 299 297 296 297 296 295 296 296 295 294 294 293 292 292 292 290 289 288 289 288 286
306 307 308 310 309 307 307 306 306 307 307 306 303 302 301 300 297 298 297 296 296 295 295 294 294 293 296 292 290 292 295 293 292 292 292 292 289 289 288 288 287 286 286
302 303 304 305 306 305 305 304 304 304 304 303 301 299 298 296 295 294 295 295 297 296 295 296 297 296 296 290 290 290 294 293 293 292 291 290 289 288 289 287 286 286 285
298 298 299 299 300 301 301 301 301 300 298 296 294 294 295 296 296 297 297 296 296 296 296 295 294 293 293 289 289 289 293 294 293 293 292 291 290 290 288 287 286 286 287
294 294 296 296 297 298 299 298 297 295 295 295 295 296 296 296 297 296 296 296 294 293 292 292 292 292 292 289 288 289 292 292 291 292 292 291 290 288 286 286 284 285 286
293 293 293 294 294 295 297 296 295 295 295 295 295 297 296 296 295 294 293 293 292 291 291 290 291 290 291 289 288 288 291 290 290 291 291 287 288 286 285 286 285 283 285
291 292 293 292 292 295 296 295 295 294 296 296 293 292 292 291 291 291 291 290 290 290 289 288 290 290 290 290 288 288 289 290 289 289 290 290 286 285 285 285 286 285 286
290 291 291 291 293 294 294 292 291 291 290 290 290 290 290 289 289 289 290 289 289 288 287 287 287 288 288 287 287 287 287 287 287 287 289 290 287 285 285 285 286 284 283
290 291 290 289 290 291 291 289 289 289 289 289 288 287 287 286 286 286 285 285 285 284 283 283 284 284 285 286 286 286 285 285 286 287 287 286 287 286 284 284 285 284 283
289 289 288 287 286 288 287 288 288 288 287 285 285 284 284 283 283 283 283 282 282 282 282 282 281 282 282 283 285 284 285 285 285 285 287 286 285 285 285 284 284 285 285
288 288 287 286 285 285 284 284 284 285 283 283 282 281 281 281 281 281 281 281 282 282 281 281 281 281 280 280 280 281 282 284 284 284 285 285 285 285 285 284 284 284 285
287 287 286 283 281 282 281 282 282 282 282 280 280 279 279 279 279 279 279 280 280 281 281 280 280 280 279 278 279 280 280 282 284 283 283 284 285 284 283 283 283 283 282

GFSMW_sfc_thetae_066.txt.gz
Theta_e
322 324 325 329 326 327 328 329 330 333 334 332 327 325 326 330 333 333 334 332 330 328 325 321 319 319 316 315 315 312 311 310 313 311 310 308 308 307 307 307 305 305 305
322 321 324 326 328 328 330 330 331 333 334 331 328 326 327 329 331 332 331 330 327 325 322 321 318 318 315 314 313 312 310 311 311 307 305 304 305 306 306 306 304 305 305
321 323 322 325 326 326 328 330 332 333 333 331 328 328 330 330 329 328 328 328 324 324 320 318 319 317 315 313 314 313 311 308 308 306 302 296 298 300 304 303 303 304 304
323 323 324 324 326 327 328 331 332 332 333 332 328 326 325 324 327 328 328 322 322 319 317 318 318 316 315 314 313 312 311 308 304 305 300 301 299 296 295 301 302 303 302
323 323 324 325 327 328 329 329 330 332 333 333 332 329 327 328 330 328 326 323 319 317 316 317 317 316 315 315 313 311 308 304 305 301 299 299 301 301 297 295 298 300 301
323 324 325 326 327 331 331 331 329 329 332 333 333 331 330 329 326 325 322 317 317 313 315 315 316 316 315 313 311 309 306 304 302 300 300 300 298 297 297 295 296 296 298
323 324 324 326 326 328 330 330 330 328 331 331 331 331 331 330 326 324 321 318 315 314 315 315 315 314 314 312 307 307 302 302 300 299 301 301 300 300 298 297 296 294 296
318 323 325 326 327 327 329 329 329 328 329 328 330 330 328 326 325 323 321 316 313 317 317 315 314 313 311 308 302 306 304 300 299 302 302 301 300 300 299 296 294 292 293
317 319 323 326 327 328 327 329 329 329 330 328 329 327 326 322 322 323 320 314 315 316 315 314 313 311 307 302 302 301 299 299 301 303 302 300 300 300 299 299 297 294 290
314 316 318 322 325 327 328 330 329 328 329 329 327 327 326 326 324 322 318 314 317 317 313 312 309 301 302 302 301 299 298 299 301 301 300 300 300 300 299 298 297 296 294
316 316 317 318 321 324 326 327 327 327 327 328 328 326 324 324 323 321 317 315 315 314 310 307 302 301 299 299 298 297 297 298 300 301 299 299 300 298 298 298 297 296 295
316 319 319 320 321 322 324 325 326 326 327 328 327 323 322 321 314 312 310 310 307 305 301 302 299 299 297 297 296 297 300 300 299 299 299 298 297 297 297 297 296 295 295
316 319 321 321 323 324 325 325 327 326 327 324 320 313 310 308 306 305 304 303 301 300 301 301 298 297 297 298 299 301 300 300 299 299 298 298 297 296 296 296 295 295 293
313 318 320 322 324 325 325 324 320 319 316 314 310 307 306 305 304 304 303 301 302 300 299 299 298 299 299 299 301 300 300 300 299 299 298 298 297 296 295 295 294 293 293
309 314 319 322 323 323 323 323 317 311 311 308 307 306 306 305 303 302 301 301 299 299 299 299 298 299 299 298 298 300 300 299 298 298 298 298 296 294 293 292 293 293 291
311 313 316 319 318 317 317 316 315 311 310 307 305 304 303 303 303 300 299 300 299 297 296 296 296 296 297 295 292 293 298 298 297 296 297 297 295 293 289 289 288 289 290
310 312 314 315 314 314 314 313 312 311 308 305 304 304 304 301 299 297 295 296 296 297 296 298 299 299 301 293 292 290 296 296 296 296 296 295 295 293 294 290 287 287 287
307 308 310 310 311 312 311 310 310 309 307 305 304 303 300 297 297 297 297 298 299 299 301 300 298 298 296 291 290 289 295 295 296 296 296 296 295 295 294 293 292 291 291
306 307 308 308 309 308 308 306 304 302 301 300 298 298 298 297 297 297 297 299 300 299 298 296 295 295 295 290 289 289 294 293 294 294 295 294 294 291 291 292 290 290 290
303 304 305 306 306 306 305 303 301 300 298 298 298 299 300 299 298 298 297 298 298 295 295 294 295 293 294 291 289 289 291 291 292 293 293 290 291 289 288 291 290 287 289
301 303 303 303 303 304 303 301 301 299 300 300 297 296 296 296 295 295 295 296 295 294 294 292 293 292 291 290 288 287 288 288 287 287 288 290 287 288 288 287 289 288 290
299 300 300 300 302 303 302 299 298 298 297 295 293 294 294 293 293 294 294 293 292 290 289 290 288 290 290 287 286 286 285 284 285 285 288 289 287 287 286 287 287 286 286
298 299 298 297 298 299 298 295 295 295 294 293 292 292 291 290 289 289 288 288 288 287 286 285 286 286 287 287 285 283 282 283 283 285 286 284 285 285 285 285 285 285 285
296 296 295 294 293 295 294 294 293 293 292 290 289 289 286 287 286 287 286 286 286 285 284 284 284 284 284 284 282 282 283 282 282 283 285 286 284 284 285 285 286 286 286
295 295 294 292 290 290 289 290 290 290 288 287 285 285 285 284 285 285 285 284 285 283 282 283 282 281 280 280 278 279 279 280 280 280 283 285 286 286 287 288 287 287 286
294 292 291 289 288 286 285 286 287 287 286 284 284 283 284 284 284 284 284 280 280 279 279 279 279 280 278 277 277 278 277 278 278 281 281 281 284 286 286 286 286 286 285

GFSMW_sfc_thetae_069.txt.gz
Theta_e
320 323 323 324 321 323 322 325 328 331 332 330 327 324 322 324 327 332 333 334 333 332 331 327 324 323 321 321 318 315 314 312 313 311 312 311 311 311 310 309 308 307 307
319 321 324 323 324 324 327 327 328 330 331 329 327 325 324 325 327 334 333 334 332 331 329 327 324 323 321 320 317 316 313 314 313 310 309 306 308 308 309 309 308 308 306
319 321 322 325 324 325 327 327 328 329 331 331 328 326 326 326 326 330 330 331 331 331 329 327 325 323 322 318 317 315 315 311 312 310 308 303 302 304 308 308 306 306 305
320 322 321 323 326 328 330 330 330 330 332 332 329 326 322 322 325 329 329 328 330 329 326 325 324 324 322 319 317 316 316 314 310 309 307 307 303 299 299 304 304 305 304
321 321 323 323 325 328 329 331 330 331 331 333 331 327 326 326 328 330 329 329 327 326 324 323 323 323 320 320 320 317 315 312 309 305 305 303 304 305 300 297 300 304 303
321 322 323 325 325 331 331 330 330 330 332 333 333 331 328 328 326 330 327 327 325 323 320 320 322 322 317 319 317 316 314 310 308 305 303 303 302 301 300 297 298 298 300
321 322 321 322 324 327 329 330 329 328 331 332 333 333 332 331 330 329 327 325 322 320 319 319 318 319 317 318 316 314 309 305 305 304 303 303 303 302 300 298 296 296 298
319 322 324 324 324 325 328 330 329 328 329 331 333 334 334 332 333 330 328 325 322 322 320 316 315 315 315 317 315 309 306 303 304 302 302 303 302 302 300 298 296 293 294
318 319 323 325 327 327 329 333 330 330 330 332 334 333 334 332 331 330 328 325 323 320 318 316 313 313 313 311 306 302 299 300 301 300 301 303 302 301 301 300 298 295 291
316 319 321 324 327 329 330 333 332 329 330 331 332 332 332 331 329 325 325 323 321 317 315 314 312 310 304 303 302 300 300 299 299 299 300 302 302 301 301 300 298 297 294
317 318 319 323 326 329 330 331 331 330 329 330 332 331 330 328 327 324 324 322 318 315 312 308 304 303 300 299 299 298 298 297 297 300 302 301 301 300 300 299 298 296 296
315 319 320 320 321 324 327 329 330 330 330 330 330 329 327 325 323 321 315 311 304 305 302 302 300 300 299 298 297 296 298 298 298 300 301 300 299 299 299 298 297 297 297
314 317 321 321 322 323 325 326 328 328 329 329 328 321 315 312 309 306 304 303 302 302 302 301 300 298 297 297 298 299 299 301 301 301 300 299 299 298 298 297 296 297 295
314 316 319 321 324 325 326 326 327 328 325 320 317 310 308 306 305 303 303 303 304 302 301 301 299 299 299 299 299 300 301 301 301 301 300 299 298 297 298 297 297 296 295
311 314 318 321 324 326 327 322 317 315 313 310 308 306 306 305 305 302 302 301 301 301 300 299 299 299 299 299 300 301 300 300 300 300 300 300 299 296 295 296 295 295 293
312 313 316 322 323 324 324 316 313 311 310 308 306 306 304 303 302 302 301 301 300 300 299 298 298 298 298 295 294 295 299 298 298 297 298 298 297 295 292 291 290 292 292
313 314 318 321 321 320 318 313 311 309 306 305 305 305 305 302 301 300 299 297 297 297 297 300 300 300 301 295 293 291 296 295 296 296 297 296 296 295 297 293 289 289 288
313 315 317 317 318 318 316 313 311 308 307 306 305 304 302 299 299 298 297 297 299 301 302 302 301 299 298 292 290 289 294 294 294 295 295 296 297 297 295 295 295 294 294
313 314 315 315 315 314 314 313 311 309 307 305 303 302 302 299 298 297 298 300 300 302 300 299 297 296 296 290 288 290 293 293 293 294 294 294 294 292 290 291 291 292 292
311 311 312 312 311 311 310 308 307 306 303 302 301 301 300 300 301 301 302 300 299 297 296 295 295 291 295 287 288 288 289 288 288 289 289 288 288 287 287 289 289 288 289
309 310 310 309 309 309 308 305 304 302 302 302 301 300 300 301 300 298 297 296 296 295 295 293 294 292 291 290 287 285 286 285 284 284 285 287 285 285 286 286 287 287 287
306 308 307 307 308 308 306 304 302 303 302 300 298 298 297 295 296 296 295 294 294 292 291 290 289 291 291 287 284 283 282 282 282 282 285 285 284 284 283 284 285 285 285
305 306 305 305 306 306 305 302 300 299 299 298 296 295 294 293 293 292 291 290 290 289 288 287 287 288 288 288 284 282 281 282 282 283 283 282 283 283 284 286 285 284 287
303 304 303 302 301 301 300 299 298 298 296 294 293 292 291 289 289 289 289 289 289 288 286 285 285 285 285 285 283 281 281 281 281 281 282 281 282 284 284 285 287 288 288
301 301 300 299 297 297 296 296 296 295 292 291 289 289 288 288 287 287 286 286 285 283 283 284 283 282 281 280 278 278 278 279 279 279 281 283 283 283 283 286 286 289 289
300 298 297 296 294 293 292 293 293 292 289 287 287 287 287 286 286 286 285 281 281 280 279 278 279 280 278 276 276 277 277 277 278 278 280 279 279 279 280 280 283 284 286

GFSMW_sfc_thetae_072.txt.gz
Theta_e
320 320 321 322 320 319 318 317 318 319 323 323 322 322 321 322 323 326 329 331 331 331 327 327 324 320 318 316 317 313 310 307 308 306 306 306 306 305 304 305 303 304 304
317 319 318 319 319 318 318 318 320 325 327 327 325 323 322 323 323 327 330 331 331 331 329 327 322 320 318 319 314 311 308 309 310 304 304 300 303 305 306 304 305 303 302
316 318 319 317 319 318 319 321 324 327 328 328 326 324 323 322 321 328 329 330 331 330 327 326 323 320 320 316 314 312 310 307 307 306 302 297 297 297 302 303 303 301 300
318 319 319 319 318 318 322 324 326 327 329 328 325 322 319 317 321 327 329 328 329 329 328 326 324 322 320 317 314 315 311 310 305 304 305 304 301 296 294 300 300 301 301
317 318 320 321 322 323 325 326 327 327 326 328 327 324 321 321 322 324 327 326 327 327 326 324 322 321 320 318 315 313 312 310 304 303 302 300 299 301 295 292 296 299 300
319 320 321 322 324 325 326 328 328 327 328 329 327 327 323 323 323 326 325 325 325 324 324 322 321 319 319 316 315 314 313 305 303 302 300 300 299 299 296 293 293 293 295
319 319 320 320 321 323 326 328 328 326 328 330 328 328 328 325 324 326 325 324 322 320 321 319 318 318 317 315 314 313 308 303 300 299 300 302 300 302 297 295 294 291 294
319 319 319 322 322 323 326 326 327 326 328 329 330 330 329 329 327 328 326 325 323 320 318 318 317 317 315 314 312 306 305 302 302 300 300 300 301 301 298 295 292 289 289
317 319 321 321 323 324 326 327 327 326 327 329 330 330 331 330 329 328 328 324 323 321 319 317 315 313 311 308 305 303 300 300 300 299 299 300 300 301 299 297 295 291 284
317 318 319 323 323 324 326 328 328 328 328 328 330 330 331 331 331 329 324 322 322 319 317 313 312 306 304 303 301 300 299 298 298 299 298 298 299 300 298 297 295 293 290
316 317 319 321 325 325 324 328 329 329 329 329 329 330 330 327 324 323 323 321 319 316 312 306 303 301 300 299 299 298 298 297 297 298 298 298 299 297 297 296 295 292 291
315 317 319 320 321 326 327 327 329 329 329 328 330 329 328 324 321 320 316 314 312 308 305 303 300 300 300 300 298 296 297 296 296 297 297 298 300 298 296 295 293 292 291
313 316 318 318 319 321 323 327 329 329 330 326 325 322 318 312 309 306 306 306 305 302 302 302 300 299 298 297 297 297 298 298 298 299 298 298 298 295 294 294 292 291 293
311 314 317 319 321 322 323 324 325 324 322 320 316 311 309 307 305 304 305 304 303 302 300 300 299 299 298 298 298 299 299 299 299 299 299 298 297 294 293 293 291 292 289
310 312 313 319 322 323 322 320 319 317 315 311 308 306 305 304 303 304 304 303 302 301 300 299 298 299 299 300 299 299 299 298 298 297 298 297 297 296 294 294 290 290 288
312 313 314 320 323 321 316 313 311 310 310 306 304 304 303 303 302 301 301 300 300 299 298 298 298 298 299 295 294 293 295 296 294 293 294 294 294 294 292 292 291 292 290
313 314 316 322 322 316 314 310 308 308 306 304 304 304 303 302 301 301 300 299 298 298 297 297 298 298 298 295 293 291 292 291 291 290 291 292 294 292 293 291 290 289 290
314 316 320 320 317 314 312 309 307 306 305 304 304 303 301 300 299 298 297 296 297 297 298 299 299 299 293 290 290 288 290 289 290 290 290 289 288 288 287 286 285 285 287
315 316 318 318 316 313 311 309 307 306 305 303 302 301 300 298 297 296 296 298 299 300 300 299 295 293 288 287 287 289 288 287 286 288 287 286 285 287 287 283 282 283 284
314 314 315 315 314 313 312 309 307 305 303 302 302 301 300 299 298 298 299 300 300 299 295 294 294 291 286 287 286 286 283 282 281 282 283 284 284 285 285 282 280 279 280
312 313 312 310 310 310 309 307 305 302 303 302 301 300 300 301 301 300 298 295 294 294 290 289 288 289 288 285 284 284 281 279 279 279 279 281 284 284 283 283 280 280 281
309 310 308 307 308 308 307 304 302 302 302 301 300 300 299 297 296 294 293 293 292 288 286 285 285 285 285 284 283 282 281 281 278 278 279 280 282 282 282 282 283 284 283
307 309 307 306 307 307 306 302 301 302 300 298 296 295 294 294 294 292 289 288 288 285 284 283 283 283 283 281 282 281 280 280 278 279 279 280 280 281 281 284 284 284 283
305 306 305 304 304 305 304 301 299 299 298 295 293 292 290 289 288 288 288 287 285 283 283 282 282 281 281 279 278 278 277 279 278 278 277 277 279 278 279 279 281 281 282
304 304 303 302 301 300 298 298 298 297 294 292 290 288 287 287 286 284 283 283 281 281 280 280 280 277 276 276 276 276 276 275 276 274 275 276 277 276 276 276 277 278 279
303 302 300 298 296 295 294 295 295 293 290 288 287 285 286 284 285 284 282 282 281 280 280 279 279 278 277 276 276 277 277 277 278 274 273 272 272 273 274 274 274 275 275

GFSMW_sfc_thetae_075.txt.gz
Theta_e
315 316 315 315 315 314 315 313 312 313 314 314 314 315 317 318 319 321 323 325 328 327 324 321 319 318 316 314 312 311 307 305 305 303 302 302 301 302 301 301 300 301 300
314 315 314 313 313 314 314 314 313 314 315 316 317 317 318 319 319 321 325 326 326 327 324 323 320 318 316 313 312 308 305 304 305 301 300 297 299 301 302 302 302 299 301
313 314 314 313 314 313 313 313 314 315 317 319 320 320 317 317 316 317 321 325 327 327 326 323 320 317 316 314 311 308 305 303 304 304 301 295 294 296 299 301 301 300 299
314 314 315 313 313 314 315 314 315 316 318 323 322 320 316 315 317 319 323 325 326 327 327 325 322 317 317 314 312 311 308 306 304 302 303 300 297 294 294 297 298 299 298
314 312 313 314 313 314 314 315 316 318 324 324 323 321 316 316 316 322 324 325 326 326 326 326 322 318 317 316 313 311 309 310 306 303 300 299 297 296 294 293 295 296 297
315 315 315 315 313 315 316 317 318 321 324 324 324 321 316 316 315 318 322 323 324 325 325 324 321 319 318 317 315 313 311 308 305 303 300 299 297 296 297 295 292 292 294
314 315 315 315 315 315 315 317 319 321 324 324 325 321 319 317 316 319 322 322 320 319 321 319 317 315 316 316 315 313 309 303 302 301 300 301 300 300 299 296 293 290 291
314 315 316 317 317 317 318 319 321 321 322 323 323 323 321 320 320 321 323 322 322 321 318 316 315 315 315 314 312 307 304 303 301 301 301 300 301 302 300 297 294 289 288
314 314 317 318 318 320 319 320 323 323 323 322 324 322 324 322 320 320 322 322 320 319 317 316 314 312 312 308 306 303 302 301 300 299 299 299 301 301 301 299 296 290 282
310 315 317 318 318 320 321 322 323 324 324 323 324 325 324 324 324 323 321 320 320 318 316 315 312 308 306 305 303 301 300 299 299 299 299 299 300 300 300 299 295 293 290
307 308 310 317 320 319 320 322 323 323 323 324 323 325 326 326 325 321 320 318 316 315 313 309 308 304 302 301 300 299 299 298 298 299 298 298 299 298 297 295 294 292 289
308 309 310 312 318 319 321 322 323 325 325 325 323 324 324 322 321 320 320 317 313 311 308 307 304 301 300 301 300 299 299 298 297 297 297 297 299 296 295 294 292 290 290
307 309 310 311 312 316 320 322 324 323 320 325 324 320 316 314 314 312 311 310 308 307 306 302 301 300 299 298 298 299 298 297 298 298 298 298 297 294 293 292 291 291 293
306 309 310 311 312 318 319 318 317 318 316 314 312 311 310 309 307 306 307 306 305 302 301 301 300 299 299 299 299 299 298 298 299 299 298 297 296 295 292 291 290 290 287
305 305 309 311 317 316 314 312 310 309 309 308 306 304 305 305 304 303 302 302 301 301 300 299 299 298 298 298 298 299 298 298 297 297 298 297 296 295 294 293 289 288 286
308 308 311 318 317 314 310 309 307 307 307 305 304 304 304 302 301 301 301 301 300 299 299 298 297 297 299 295 295 296 293 293 291 289 290 290 292 291 290 288 288 287 284
308 310 318 318 314 310 308 306 306 306 304 303 303 303 302 301 301 301 300 298 297 297 297 297 297 297 297 293 293 291 290 289 288 287 287 288 289 287 285 285 285 285 286
309 314 314 312 310 307 306 305 305 305 304 303 303 302 301 300 300 299 298 297 297 297 296 295 295 294 291 290 289 288 287 286 285 285 285 283 282 283 284 282 280 281 281
309 312 312 310 308 306 306 305 304 304 304 302 301 300 299 298 297 296 296 295 294 295 296 298 290 287 286 288 288 286 283 283 282 283 282 282 281 284 285 281 279 278 279
310 311 311 309 307 306 306 304 304 303 301 301 300 300 299 298 296 295 294 296 298 298 293 290 288 286 284 287 287 284 280 279 278 279 280 282 282 283 283 279 278 277 279
309 309 310 308 307 307 306 303 303 301 302 301 300 299 298 297 296 297 297 295 291 289 285 284 285 284 283 284 285 283 278 278 278 278 278 278 281 281 282 282 280 280 282
307 306 304 303 304 306 304 301 299 302 301 299 297 297 298 299 296 292 290 290 288 284 283 282 282 281 280 283 283 282 281 280 278 278 278 278 280 281 281 281 282 282 281
304 304 302 302 302 302 302 299 298 300 300 299 296 292 294 293 292 288 286 285 284 282 281 282 281 280 279 279 280 280 279 279 277 278 278 278 279 280 279 280 279 278 277
302 302 301 300 300 300 300 299 299 298 295 292 290 288 286 285 285 285 286 283 281 280 281 281 280 280 277 276 276 276 276 277 277 277 276 276 277 277 276 277 277 276 275
300 301 299 295 294 296 296 297 296 293 290 287 286 285 286 283 281 282 283 281 280 281 280 278 279 276 274 276 277 276 276 273 277 273 272 274 275 275 275 274 274 274 274
299 295 293 292 290 286 285 289 291 289 286 285 284 284 283 283 283 281 280 281 281 281 281 280 278 278 278 277 277 277 277 277 278 273 270 269 266 267 272 271 271 271 271

GFSMW_sfc_thetae_078.txt.gz
Theta_e
311 313 314 315 314 315 314 312 312 313 314 313 312 311 311 313 313 314 317 320 321 322 320 318 315 315 313 313 311 309 307 305 303 301 300 300 300 299 299 298 298 299 301
311 312 312 312 312 313 312 311 310 311 312 312 312 311 312 315 315 315 317 320 322 323 321 319 316 316 313 312 310 309 305 304 304 301 299 297 300 301 301 299 299 297 299
310 311 312 311 312 312 312 311 311 311 312 313 312 314 314 314 314 315 316 320 323 325 323 321 320 317 315 312 310 308 306 304 304 303 302 296 295 296 298 300 300 300 298
313 312 311 310 311 311 313 313 313 311 313 314 313 313 313 312 315 315 317 321 323 324 324 323 321 317 317 313 311 309 307 307 305 304 304 300 298 294 293 297 297 298 299
312 312 312 312 312 313 312 312 313 313 313 315 315 315 314 316 316 315 316 321 323 324 324 324 322 318 315 315 313 311 310 310 307 304 302 300 299 297 295 293 295 298 298
313 313 314 313 312 314 313 312 312 313 314 315 317 318 317 317 314 314 316 319 322 323 324 324 322 321 317 315 313 311 311 310 306 304 301 301 300 298 297 295 296 295 297
312 313 313 312 312 312 312 312 312 312 314 317 319 320 320 318 316 314 317 318 320 321 323 323 322 320 318 315 315 313 312 308 306 303 302 303 302 302 300 297 295 293 294
312 311 313 313 310 311 312 312 312 313 315 316 321 322 322 320 318 316 319 320 321 322 323 323 323 317 315 314 313 308 305 304 304 303 302 302 302 302 301 298 295 292 291
312 313 313 313 313 310 311 312 314 315 317 318 321 323 322 320 319 318 318 322 322 322 321 321 317 314 312 309 307 305 304 305 303 300 301 301 301 302 301 301 299 294 288
312 313 315 315 314 315 314 315 315 315 318 320 321 322 322 322 320 318 318 320 321 319 318 316 315 312 310 307 306 304 303 301 301 300 300 300 300 300 300 300 300 297 293
312 313 314 316 317 317 317 316 317 318 320 321 322 322 321 321 321 318 318 317 317 317 317 315 313 310 308 305 303 302 301 300 299 299 299 299 299 299 299 299 297 294 289
309 312 315 315 317 318 318 319 319 320 322 323 322 322 323 321 320 319 318 318 316 317 316 311 311 308 305 302 301 299 300 299 299 299 298 298 299 297 297 296 293 290 290
305 305 307 310 315 317 317 319 320 321 322 322 320 318 317 319 321 321 318 319 317 312 310 309 306 303 301 300 300 300 300 299 299 298 297 298 298 296 294 292 291 290 292
305 306 306 309 312 316 317 317 319 321 320 316 315 312 313 313 313 313 312 312 311 307 305 304 302 301 300 300 300 300 298 298 298 299 298 298 297 294 292 291 289 290 289
303 305 307 309 314 312 312 312 312 311 311 310 309 306 307 307 307 306 306 305 304 303 303 302 300 300 300 300 299 299 298 298 298 298 297 295 293 290 289 286 283 282 282
304 305 306 315 314 311 308 309 309 308 308 306 304 304 304 304 303 303 303 301 301 300 299 298 298 297 298 294 295 297 297 295 292 289 287 288 288 288 287 287 287 285 280
305 309 312 315 312 309 308 307 307 307 306 305 305 305 304 302 301 301 301 300 299 299 298 298 298 298 298 294 293 291 291 287 286 284 284 285 284 284 283 283 283 282 283
308 313 313 308 306 307 307 306 306 305 304 304 304 303 302 300 300 300 298 298 298 298 297 297 297 295 292 291 290 288 285 284 283 282 281 280 280 283 282 280 278 278 279
311 311 309 306 304 304 305 305 304 305 304 303 302 301 300 299 298 297 297 297 297 297 296 295 289 287 286 288 287 285 283 282 280 281 281 280 280 282 282 279 278 278 279
311 309 307 306 305 304 304 303 303 303 301 301 300 300 300 299 298 297 296 297 297 296 292 288 286 286 285 287 286 284 280 279 278 279 280 281 280 281 281 279 278 277 278
310 308 307 305 304 304 304 301 302 301 301 301 300 299 299 298 297 297 297 295 289 287 286 283 283 283 283 284 284 283 279 278 279 278 278 278 280 280 281 282 279 279 278
307 307 305 303 303 303 302 300 300 301 300 299 298 298 298 297 297 294 292 289 286 284 282 281 280 279 280 283 283 282 281 280 279 278 278 278 279 280 281 280 280 279 278
302 304 303 301 301 301 301 297 297 298 299 298 297 295 294 293 291 290 288 287 285 282 282 281 279 278 278 279 280 280 279 279 278 278 278 278 279 279 279 279 278 276 275
300 302 301 298 298 301 300 298 297 298 294 290 288 287 286 286 286 286 285 284 283 283 283 282 279 278 278 277 277 277 277 277 277 277 277 276 277 276 276 276 277 276 274
300 298 294 292 291 295 296 296 294 291 287 286 285 284 284 284 283 281 282 280 281 282 281 280 281 278 276 277 277 277 277 276 277 274 274 274 274 274 274 274 274 273 272
293 286 286 285 285 286 286 288 288 287 285 283 283 283 282 282 282 281 280 282 281 281 281 281 279 279 279 278 277 278 278 278 278 274 271 268 265 267 271 270 270 269 268

GFSMW_sfc_thetae_081.txt.gz
Theta_e
311 314 315 315 315 315 314 315 314 314 314 313 312 314 316 313 314 316 319 321 321 320 319 317 315 315 313 312 310 307 306 303 301 300 299 299 298 298 297 298 300 302 303
308 313 312 314 314 314 313 313 313 313 314 314 313 315 315 315 315 314 317 317 318 320 319 317 315 314 312 310 309 308 305 305 302 299 298 295 298 299 299 297 297 297 298
308 309 311 311 312 311 311 311 313 313 314 314 312 313 313 314 313 312 311 315 318 320 320 318 316 314 313 311 310 308 306 304 302 303 301 296 295 298 300 298 297 297 296
310 310 309 309 310 311 313 310 310 312 314 313 310 309 310 309 307 308 311 313 318 319 321 320 317 315 314 311 310 311 307 308 303 304 304 302 299 297 296 299 299 300 300
310 309 310 310 311 312 312 311 310 310 311 312 311 310 309 308 309 311 312 312 315 318 320 320 319 317 315 315 312 309 308 308 307 306 301 300 299 299 297 295 297 299 299
311 311 311 311 310 311 311 311 310 310 310 311 311 310 310 311 312 311 312 313 314 317 319 321 321 320 318 316 313 313 310 308 308 306 303 302 301 300 299 297 297 297 300
311 311 310 310 310 309 310 311 310 310 311 311 312 312 312 313 313 313 313 314 315 318 320 320 320 320 320 317 314 314 312 309 308 304 302 304 304 304 301 299 297 296 296
311 312 312 311 311 311 310 311 311 310 311 311 312 313 314 315 316 315 315 315 316 317 318 321 322 321 320 317 316 313 308 306 306 304 304 305 304 303 302 300 296 293 293
310 312 313 313 311 311 311 311 311 310 311 312 312 313 314 316 317 318 317 316 317 318 318 321 321 317 316 314 312 310 308 306 306 305 305 304 303 303 302 301 299 296 291
310 312 312 314 313 312 312 312 312 311 311 312 313 314 317 320 320 320 317 315 318 319 317 315 314 313 313 311 310 308 306 305 304 304 304 302 300 300 302 301 300 299 295
310 312 312 313 314 314 311 312 312 312 312 313 315 316 317 320 321 321 318 316 318 318 317 316 313 313 311 309 308 306 304 303 301 300 301 300 301 300 299 299 299 297 295
311 312 313 314 313 313 313 311 312 313 314 317 317 317 319 320 320 320 316 318 318 317 318 316 314 311 309 307 305 303 302 301 300 300 300 299 300 298 298 297 296 294 292
308 310 311 312 314 314 314 314 314 314 315 317 317 319 319 320 318 319 318 318 318 318 318 316 312 308 306 304 303 303 302 301 300 300 299 299 298 296 296 295 294 292 292
303 306 309 311 313 315 316 315 315 316 317 317 317 318 318 318 319 318 318 318 318 318 315 313 310 307 304 304 302 301 300 300 299 299 298 298 297 296 294 293 290 289 285
302 303 305 306 308 310 312 315 316 317 317 317 314 314 311 311 311 311 310 309 310 309 310 306 303 302 302 301 301 300 299 298 298 298 298 294 291 290 290 287 282 281 280
301 304 305 306 311 311 310 309 308 309 309 311 307 306 306 307 306 306 305 305 304 304 303 301 300 299 300 296 295 297 298 297 295 289 289 288 287 287 286 286 286 283 279
301 302 305 308 311 308 309 310 308 309 307 306 305 305 305 304 303 303 302 300 299 300 298 298 298 298 298 293 293 292 291 289 288 286 286 284 284 284 282 283 282 281 282
301 304 308 307 307 308 307 307 307 306 306 305 305 305 304 302 302 300 299 298 299 298 298 298 299 298 296 292 290 288 287 285 284 283 281 280 281 282 281 279 278 278 279
303 309 306 307 309 307 307 306 306 305 304 303 303 303 302 300 299 298 298 298 298 297 297 295 293 292 290 289 288 286 285 282 281 281 281 280 279 281 282 279 278 278 279
309 306 304 305 305 305 306 305 304 304 302 301 301 301 300 299 298 298 298 298 297 296 292 288 288 288 286 287 287 284 282 279 279 280 280 281 280 280 281 279 278 276 277
307 306 305 304 303 304 305 303 303 301 302 301 300 299 300 299 298 297 297 294 291 288 285 284 284 285 285 285 285 284 281 280 279 278 278 278 279 280 281 281 279 277 277
306 305 303 302 303 302 302 301 300 300 300 299 298 297 297 297 296 293 291 289 288 285 283 282 281 281 282 283 283 282 281 280 279 278 278 278 279 280 280 279 279 278 276
305 305 303 301 301 301 301 297 297 299 298 297 293 291 291 291 292 290 288 286 286 284 283 282 280 279 279 279 280 280 279 278 278 278 278 278 278 279 279 278 277 276 274
302 302 301 299 297 298 298 297 296 294 291 288 287 287 286 285 285 285 285 284 284 283 283 281 279 278 277 277 277 277 277 278 277 277 277 277 277 277 277 276 276 275 274
296 295 293 293 294 295 294 293 290 289 286 285 285 284 283 282 280 280 280 280 282 283 282 281 280 276 277 277 277 277 277 277 277 276 275 275 275 274 273 273 273 273 272
288 287 286 285 285 286 286 287 287 287 285 283 282 282 282 281 281 280 280 282 281 282 282 281 280 280 280 279 278 278 278 278 277 275 273 270 269 270 271 270 270 270 270

GFSMW_sfc_thetae_084.txt.gz
Theta_e
311 316 315 316 315 316 316 315 314 315 315 315 315 316 316 316 318 319 319 319 319 318 316 315 315 314 311 311 309 307 306 304 301 300 300 300 299 299 298 300 303 304 306
308 312 313 313 314 314 315 315 314 314 316 316 316 317 316 314 315 316 319 320 319 319 318 317 314 313 312 310 309 308 306 305 302 299 298 297 299 300 300 298 300 302 303
306 309 310 312 313 312 313 314 313 314 315 316 313 312 313 314 313 313 314 317 319 320 320 318 316 314 313 311 310 307 306 304 302 302 300 296 295 298 300 299 299 299 298
307 308 310 310 311 312 313 313 314 313 314 315 313 310 313 312 314 311 313 315 318 318 319 318 316 314 314 311 311 310 307 306 303 302 303 302 302 299 297 299 300 300 300
307 307 309 309 312 312 312 311 312 312 312 313 313 309 312 313 306 308 309 310 313 316 318 318 316 314 314 313 311 309 306 306 305 303 301 301 299 300 299 298 297 299 301
308 308 309 311 311 312 312 312 309 310 312 312 310 308 307 307 307 307 308 309 311 313 315 318 318 317 316 314 312 311 309 310 309 306 304 303 301 301 299 298 299 299 301
308 308 308 309 310 309 310 311 310 309 310 310 310 310 309 308 309 310 309 309 309 310 314 316 317 317 318 318 316 313 312 309 308 306 306 307 305 305 304 302 300 298 299
309 309 309 309 309 309 309 309 310 310 310 310 310 311 310 311 311 311 312 311 311 312 314 317 320 320 320 319 316 315 314 313 311 310 306 306 306 305 302 302 301 294 295
309 310 311 310 310 310 309 310 310 310 310 310 310 310 310 310 311 312 311 312 312 313 313 315 317 317 316 315 316 315 312 311 311 309 307 306 306 305 305 303 301 300 294
308 310 311 311 311 311 311 311 311 310 310 310 310 310 311 311 312 313 314 315 313 313 315 316 317 316 315 315 314 312 311 309 308 308 307 306 304 304 302 302 301 300 298
307 309 312 313 313 312 311 311 310 310 309 310 310 310 311 312 313 313 315 316 315 315 317 317 317 315 315 313 312 311 309 308 307 304 305 304 303 302 301 301 300 299 297
307 309 310 310 312 312 311 311 311 311 311 311 311 311 312 312 314 316 318 318 316 316 318 318 317 316 315 312 310 308 307 306 303 303 303 302 302 301 300 299 298 297 296
306 307 308 309 310 312 312 311 311 311 312 313 312 312 313 314 314 316 318 319 316 317 317 318 317 317 313 308 308 307 304 304 305 304 302 301 300 298 297 297 296 295 294
304 306 306 309 311 311 312 312 311 311 311 312 312 312 313 314 315 317 316 315 316 316 316 318 318 315 310 308 305 304 303 302 302 301 301 300 299 298 296 295 293 292 290
301 304 307 307 309 309 311 312 312 312 311 311 311 311 312 312 313 311 311 313 316 316 317 313 309 308 306 305 304 303 301 301 299 298 297 294 294 293 293 291 287 286 284
299 302 304 306 306 308 309 309 309 309 311 311 311 309 309 310 309 308 308 307 307 306 305 304 302 301 302 297 296 299 300 299 296 290 289 288 288 287 287 287 285 284 282
299 300 304 305 305 307 307 306 308 309 309 307 307 307 307 305 305 305 304 303 302 301 300 299 300 299 298 294 294 294 296 292 289 287 285 285 285 285 284 283 282 282 282
299 300 302 305 306 305 306 308 309 307 306 305 305 305 305 303 302 302 301 299 299 299 298 298 298 298 294 291 290 288 287 285 285 285 284 283 282 282 281 280 279 280 280
302 301 304 305 306 306 308 307 306 306 305 304 304 303 302 301 300 298 298 298 298 298 296 295 295 292 289 288 288 286 284 283 282 282 282 282 281 282 282 280 279 279 280
305 305 306 307 307 307 307 306 305 304 302 302 302 301 302 300 298 298 298 298 295 292 290 288 288 288 287 287 287 285 282 280 280 280 280 281 280 280 281 280 279 277 277
304 305 305 304 305 306 306 304 303 300 300 300 300 299 300 298 297 296 295 292 289 286 285 284 284 284 284 284 285 285 282 281 280 279 278 279 279 280 281 281 279 278 277
303 303 302 302 304 305 304 301 298 299 299 298 297 296 296 296 294 292 291 289 287 284 283 282 281 281 282 283 283 282 282 281 280 279 278 278 279 280 280 279 278 277 276
303 303 302 301 301 301 301 297 297 297 294 292 291 290 290 290 290 289 288 286 286 283 282 281 280 279 279 280 281 281 279 279 278 278 278 278 278 279 279 278 277 276 274
301 301 300 297 296 297 297 297 295 293 292 289 287 287 285 284 284 285 285 285 284 283 282 281 279 279 278 278 278 278 278 278 278 277 278 277 278 277 277 276 276 275 274
294 295 295 293 292 291 289 289 289 288 285 284 283 282 281 281 280 280 281 282 282 283 282 281 280 278 277 278 278 278 277 278 278 276 276 276 275 274 274 274 273 273 272
288 286 285 284 284 284 284 285 286 285 283 282 282 281 281 282 282 281 280 282 282 282 282 281 280 280 281 279 279 279 279 278 277 275 273 272 270 271 271 271 271 270 270

GFSMW_sfc_thetae_087.txt.gz
Theta_e
313 317 317 317 318 319 317 316 316 317 317 319 318 318 317 320 320 321 321 322 322 321 322 319 318 319 318 317 317 314 313 311 310 308 308 308 309 310 311 312 312 313 316
311 314 315 316 316 316 316 316 315 316 317 319 319 318 317 319 319 320 320 320 320 320 321 321 319 318 318 319 317 317 314 315 311 310 309 307 308 308 309 309 310 313 313
310 312 312 315 315 315 315 316 315 316 317 318 317 315 316 316 316 318 318 320 321 322 321 321 321 321 320 318 319 319 317 315 312 312 313 306 306 308 310 309 305 306 310
311 312 311 312 314 315 316 316 316 316 317 318 317 315 314 315 317 317 318 319 321 323 322 322 322 322 321 321 321 320 319 318 314 310 310 312 312 309 308 304 305 309 303
312 311 313 313 313 315 315 317 315 315 317 318 318 317 316 318 317 317 318 319 323 324 324 324 325 324 324 323 322 320 319 318 319 315 312 311 310 310 308 307 306 304 308
312 313 315 315 314 314 315 314 315 315 316 317 318 316 319 318 314 317 316 317 319 321 323 325 325 325 324 323 323 322 321 320 319 318 317 313 312 309 307 305 306 305 305
313 313 312 313 314 313 313 313 313 315 316 315 318 317 317 317 316 315 316 315 316 317 319 322 323 323 324 324 324 323 322 321 320 319 318 317 317 317 310 308 304 307 309
313 314 313 314 314 313 312 312 312 313 316 316 316 317 317 316 316 317 317 316 316 317 319 320 322 323 324 324 324 325 324 323 321 320 318 316 313 312 311 308 306 298 301
313 313 315 315 315 314 313 312 311 312 315 316 316 316 317 316 316 317 318 318 319 319 320 321 322 323 324 324 325 325 323 322 321 314 313 311 311 311 311 309 308 308 297
312 314 315 315 316 315 315 313 312 313 316 316 317 316 316 317 318 319 318 319 320 320 321 321 322 322 324 325 324 322 322 319 317 314 311 311 309 308 307 307 307 307 304
312 314 316 317 317 317 316 315 315 315 315 316 316 317 317 317 318 318 319 320 321 321 320 321 321 321 320 317 315 317 318 314 313 311 310 310 310 307 305 306 304 303 304
312 314 316 317 316 316 316 315 315 315 316 316 316 316 317 317 317 317 318 320 320 322 321 321 320 319 318 318 316 316 314 313 312 311 310 310 307 305 303 303 302 302 300
311 313 314 315 316 316 316 315 315 316 316 316 315 316 316 315 316 315 316 318 318 320 320 320 320 318 318 317 317 316 314 312 311 310 308 307 304 302 301 300 300 298 298
306 312 313 314 316 317 317 316 316 317 316 316 315 315 316 316 316 315 317 319 321 321 322 322 322 320 319 318 316 312 311 309 308 307 306 304 302 300 299 298 298 297 295
304 307 312 314 315 315 316 317 317 316 316 315 315 315 317 317 317 319 320 321 321 322 323 322 321 318 316 312 310 308 306 306 303 302 300 299 299 297 296 297 293 293 288
305 305 308 312 313 314 315 315 316 315 315 315 315 316 316 316 318 319 319 320 320 319 318 317 315 310 308 298 297 302 303 302 296 290 290 289 288 287 287 287 286 287 287
306 306 305 308 312 314 314 314 314 315 314 314 314 313 313 313 313 312 312 312 311 307 305 304 303 301 300 294 294 294 297 293 290 288 287 286 286 285 284 283 283 283 282
306 306 306 307 310 311 312 312 312 312 311 311 310 310 309 308 307 307 305 302 301 301 300 299 299 295 292 290 290 289 289 287 286 286 285 284 283 284 283 281 281 282 283
307 308 307 309 309 310 311 311 310 309 308 307 306 306 305 303 302 300 299 299 298 295 294 294 292 289 288 288 287 286 285 283 283 284 284 283 282 283 282 281 281 281 282
306 308 309 309 309 310 311 309 307 305 303 302 302 302 302 300 299 298 297 294 292 290 289 287 287 287 286 287 286 285 283 281 280 281 281 281 281 281 281 282 282 280 281
308 309 309 308 308 309 309 305 303 300 301 301 300 299 299 298 297 295 293 290 288 286 284 283 284 284 285 285 285 285 283 281 280 279 279 280 280 281 281 281 282 280 280
304 305 305 305 306 306 304 300 298 299 299 298 297 296 295 295 294 291 290 288 286 284 283 282 281 282 282 283 283 283 282 282 281 280 280 280 279 280 281 280 279 278 278
302 304 303 301 302 302 301 297 297 297 295 293 291 290 289 289 290 289 288 286 285 284 282 281 280 279 280 280 281 281 280 280 280 280 279 278 279 279 280 278 278 277 278
300 299 298 296 296 298 298 297 297 295 292 289 286 285 284 284 285 285 285 285 284 283 282 281 279 280 280 280 281 281 281 280 280 279 279 278 278 279 279 279 278 278 277
294 293 290 288 288 289 290 292 291 290 287 285 284 283 283 283 282 282 282 282 283 284 283 282 283 282 280 279 280 280 280 280 279 279 280 279 278 277 277 277 276 276 275
288 287 287 286 285 287 287 287 288 287 285 283 283 283 283 283 282 281 281 283 282 282 282 282 282 281 281 280 280 279 279 279 277 278 277 276 276 275 274 274 274 274 272

GFSMW_sfc_thetae_090.txt.gz
Theta_e
321 321 321 320 321 319 320 321 321 320 320 320 318 319 319 321 321 322 324 324 323 323 324 321 322 321 320 321 321 319 317 314 315 310 312 313 315 316 316 317 316 316 321
319 319 320 320 319 318 318 319 322 321 322 321 320 320 320 320 320 321 323 325 324 324 325 324 322 323 321 322 320 318 317 318 316 315 317 313 314 314 315 317 316 317 316
318 318 318 319 318 318 319 318 319 320 322 323 320 318 318 318 318 319 320 323 325 325 325 325 324 324 324 322 322 322 322 319 320 320 318 315 312 319 318 316 316 316 315
319 318 318 318 320 320 321 322 319 319 321 321 320 318 317 317 318 318 320 322 325 326 324 325 325 325 324 323 324 324 324 323 321 320 318 321 320 315 313 317 315 316 312
320 318 319 319 319 319 321 322 320 319 319 321 320 317 316 321 320 319 318 319 322 322 323 325 325 325 325 325 326 325 325 324 323 322 321 319 319 320 316 313 315 315 314
320 320 320 320 320 319 320 322 321 319 319 320 319 317 315 317 317 317 317 318 318 320 322 324 326 326 325 325 326 327 327 325 325 324 323 321 318 317 316 314 316 316 318
319 320 319 319 319 318 318 320 320 319 319 319 320 320 321 320 321 319 318 319 320 320 321 325 325 326 327 329 330 329 328 328 326 326 325 326 323 324 321 317 315 314 313
320 320 320 321 320 319 318 317 317 317 320 321 320 323 324 322 322 323 323 322 322 324 325 326 326 327 328 329 329 328 327 327 327 326 326 325 326 324 323 318 306 304 304
319 321 321 322 321 320 320 319 319 320 320 320 322 322 323 323 322 322 324 325 324 324 327 325 325 325 325 325 325 325 325 327 328 327 328 327 326 325 320 312 314 308 302
319 320 322 322 322 322 321 321 320 319 322 323 322 322 323 323 323 323 322 323 324 323 322 324 324 324 324 324 325 326 326 326 327 324 322 320 320 319 315 312 313 310 307
319 320 321 323 323 323 322 321 320 319 320 322 323 323 323 323 323 323 323 323 323 323 323 323 324 324 323 325 325 326 326 322 319 319 317 316 316 313 312 312 312 308 308
319 320 321 322 323 323 322 320 320 320 321 322 323 323 324 324 323 322 324 325 324 325 324 323 322 323 324 325 324 321 317 316 316 317 317 315 313 311 312 312 311 307 306
316 319 320 321 322 323 323 322 321 321 322 322 322 322 323 323 323 324 324 324 323 324 324 323 323 323 324 323 323 319 316 316 319 319 317 314 313 310 312 311 307 308 301
314 318 319 321 322 323 323 323 323 323 322 321 321 321 321 322 323 323 324 324 323 322 322 322 322 323 322 323 323 322 318 317 318 317 314 312 311 309 306 303 301 299 298
310 315 318 320 322 322 323 324 324 323 323 321 320 320 322 322 321 321 322 321 321 320 321 322 323 325 324 324 324 319 317 314 312 307 304 301 303 299 299 300 301 298 294
311 312 314 318 320 321 323 323 323 323 323 322 321 321 321 321 321 321 321 322 322 322 323 323 323 323 317 297 298 303 311 305 298 292 291 289 289 288 287 287 286 288 288
311 312 313 313 318 321 322 323 323 323 322 321 321 321 321 320 321 321 321 321 322 322 316 307 304 301 298 293 294 294 296 292 290 289 288 287 286 285 284 284 284 284 283
311 312 313 314 315 319 322 322 323 321 320 320 319 320 319 319 318 318 315 308 305 303 301 298 295 292 290 289 289 289 288 286 286 286 285 285 284 284 284 283 282 283 283
311 313 314 315 317 317 320 320 319 320 318 316 314 314 316 311 306 303 302 299 297 294 292 292 290 288 287 288 287 287 286 284 284 284 284 283 283 283 284 283 283 283 283
312 311 313 315 316 317 318 317 314 313 310 308 306 305 304 302 300 298 295 294 292 289 288 287 287 286 286 286 286 285 284 281 281 281 281 281 281 282 282 283 283 282 283
312 313 314 314 315 316 316 310 306 302 303 302 301 300 300 298 295 293 291 289 287 285 284 283 283 283 284 284 285 285 283 282 281 281 280 280 281 281 282 281 283 282 283
309 311 310 309 311 311 308 302 299 300 299 297 296 295 295 294 292 290 289 288 286 283 282 282 281 282 283 284 284 284 284 284 282 282 283 282 280 280 280 281 280 278 279
305 306 304 303 304 304 302 297 296 295 294 292 290 290 290 290 290 289 287 286 285 283 282 282 281 280 281 281 282 282 281 282 283 282 280 279 279 279 281 279 279 278 281
300 299 296 295 296 297 298 297 296 295 292 289 287 287 287 286 286 286 286 285 284 283 283 282 281 281 282 283 284 284 284 281 282 281 282 280 280 279 280 280 280 281 279
294 293 291 290 291 293 293 295 295 293 288 287 286 285 284 283 282 283 282 282 282 284 284 284 285 283 281 280 281 281 281 281 280 281 282 281 280 279 279 279 279 278 278
290 289 290 290 291 292 293 292 292 291 289 287 286 285 284 283 282 281 280 282 282 282 282 282 282 281 280 280 279 279 278 278 278 280 279 278 278 277 276 276 276 276 275

GFSMW_sfc_thetae_093.txt.gz
Theta_e
324 325 325 324 323 323 323 323 320 322 322 322 320 319 319 321 321 321 322 321 321 322 325 323 321 321 321 320 321 322 321 320 319 314 314 316 318 318 317 317 319 320 321
322 322 324 323 321 321 321 322 323 322 323 323 323 320 319 320 320 321 321 321 321 322 322 321 321 322 322 321 322 322 319 319 318 314 315 312 313 316 317 319 318 321 318
321 321 322 322 320 320 321 322 322 323 323 322 323 323 321 320 318 319 319 320 322 322 323 323 323 323 322 323 325 324 322 318 318 321 319 314 312 316 318 319 319 322 320
322 322 322 322 321 322 323 322 322 321 323 326 323 319 318 316 319 319 320 321 323 322 322 324 324 324 326 326 322 324 323 325 320 321 320 324 320 315 314 319 320 321 319
321 321 322 322 323 322 323 324 321 320 323 323 323 321 319 317 319 319 319 321 318 320 320 324 327 325 326 327 326 326 327 326 324 323 322 320 320 321 316 312 317 319 320
321 322 323 322 323 323 322 324 321 320 321 323 323 322 318 317 317 317 316 318 319 317 320 325 326 328 327 326 328 328 328 326 326 326 324 322 318 317 318 316 317 317 319
321 321 321 320 321 322 320 321 321 319 320 322 322 322 321 321 318 317 316 316 317 318 320 322 324 326 328 327 328 328 328 328 327 327 326 326 323 324 323 320 319 317 320
321 322 322 322 321 322 322 322 320 319 321 320 321 322 321 318 318 321 320 317 317 317 319 320 320 326 328 328 329 329 330 330 328 328 328 326 326 325 323 322 320 313 314
320 321 323 324 322 322 322 323 322 322 321 322 322 321 321 320 319 322 325 323 321 320 321 322 324 325 328 328 329 329 328 328 328 328 329 327 326 326 328 327 321 315 308
319 321 323 324 324 323 323 324 323 322 322 323 324 323 322 324 324 323 323 325 324 325 325 326 327 328 328 328 329 327 328 327 327 328 327 327 326 325 325 322 319 316 311
319 321 323 325 326 325 323 323 323 322 323 323 324 324 323 324 324 324 326 325 326 325 324 326 326 326 326 328 327 327 327 326 326 327 325 324 321 317 317 319 317 313 312
320 321 322 324 325 325 323 322 323 322 323 324 324 324 325 326 325 326 325 328 327 328 327 326 325 325 326 327 326 325 325 325 324 325 323 317 316 319 319 316 312 311 310
318 321 322 322 324 325 325 323 323 322 323 323 324 326 327 326 326 326 327 327 325 324 325 325 325 325 326 325 326 326 326 325 324 321 316 315 315 317 315 313 311 309 309
314 318 320 322 323 324 325 324 324 323 323 322 323 324 325 325 326 327 328 328 328 326 325 327 326 326 325 325 325 324 325 324 322 320 317 316 317 315 314 311 310 306 302
312 314 318 321 323 324 325 326 326 325 324 322 322 324 325 326 325 326 327 326 326 325 325 325 325 324 324 322 324 324 321 322 319 300 296 293 293 292 292 300 299 298 297
310 314 315 319 321 323 325 325 326 327 327 324 323 323 324 323 324 325 325 325 324 323 323 322 322 321 307 294 296 303 309 301 297 291 289 288 287 287 287 287 286 286 289
311 313 314 316 318 322 324 325 326 327 326 325 324 323 323 322 324 322 322 322 322 321 311 305 301 296 295 292 292 292 293 290 289 288 287 286 286 286 286 285 285 285 285
312 314 315 316 317 319 324 326 326 326 325 324 324 323 323 322 322 322 321 313 309 303 297 294 292 290 289 289 289 288 287 286 285 285 285 284 283 284 284 284 284 283 283
314 314 315 316 317 318 321 324 324 324 324 323 323 323 323 321 316 307 302 298 294 291 290 289 288 287 286 287 287 287 285 283 282 283 283 283 282 284 285 284 283 284 282
315 315 316 316 316 319 321 322 321 321 320 321 318 316 310 305 300 297 293 291 289 287 286 285 285 286 285 286 286 285 283 281 281 281 281 282 282 282 283 283 283 282 284
313 315 316 316 317 319 320 320 317 308 306 304 302 300 298 296 293 291 289 287 285 284 284 283 284 285 285 286 286 285 284 283 282 281 280 281 281 282 282 281 283 281 281
310 314 315 315 317 318 311 303 299 299 298 296 294 293 292 291 290 288 288 286 284 283 283 282 282 282 283 284 284 285 285 285 283 283 283 281 280 281 281 282 280 279 280
305 307 307 306 306 304 301 295 294 293 292 290 290 290 289 289 289 287 286 285 285 283 282 281 281 281 282 282 283 283 283 283 282 282 280 280 280 281 280 279 279 280 281
299 300 299 297 297 297 295 294 293 292 290 288 287 286 285 285 285 286 286 285 284 283 282 282 281 283 283 283 284 284 284 283 283 282 282 281 280 280 281 281 281 281 280
294 295 294 293 293 294 293 292 291 290 287 286 286 284 284 282 282 282 282 282 284 285 284 284 283 281 279 279 280 281 280 281 280 282 283 281 280 279 279 279 279 278 277
289 291 291 292 293 294 293 293 293 291 289 286 285 283 282 282 281 280 280 282 282 282 282 281 280 279 279 279 279 278 278 278 279 281 279 278 277 276 276 275 275 275 274

GFSMW_sfc_thetae_096.txt.gz
Theta_e
322 325 325 324 323 322 322 322 322 322 322 320 319 322 322 325 324 326 326 325 323 322 321 320 321 319 318 318 320 317 314 314 314 312 312 310 314 314 315 316 316 317 319
322 322 323 322 322 321 321 322 321 322 322 321 320 320 321 321 321 321 321 322 320 321 319 318 318 319 318 317 317 316 315 314 314 309 308 306 309 311 313 312 312 313 316
320 321 321 321 321 319 320 321 322 322 322 322 320 319 320 319 318 318 318 319 320 320 320 319 318 319 319 318 318 318 316 313 314 313 313 309 307 308 311 312 313 311 313
321 321 321 320 320 319 321 321 323 323 321 322 320 318 316 314 316 317 317 318 319 320 320 322 321 320 321 319 319 320 318 318 312 313 315 316 316 309 307 311 313 314 315
321 320 321 321 321 321 322 321 322 322 322 322 321 319 317 317 316 315 314 317 318 319 320 321 321 321 321 321 321 320 319 319 319 317 316 314 315 315 311 307 311 313 314
320 321 322 322 321 322 321 322 321 321 322 323 321 319 318 316 314 314 313 315 317 318 319 320 321 321 321 321 321 321 321 321 320 319 319 316 314 313 311 310 310 310 313
319 320 319 319 321 320 320 320 320 318 321 322 322 321 319 318 316 315 315 315 315 316 316 316 316 319 321 321 321 321 321 321 320 319 319 320 318 317 315 312 310 310 312
320 320 320 319 321 320 319 319 320 319 320 321 321 321 319 318 318 317 317 317 315 315 316 317 317 320 321 322 323 322 322 322 322 320 320 319 319 319 318 315 312 309 311
318 319 321 320 320 321 320 320 320 320 319 321 322 321 320 320 318 318 318 318 317 317 317 317 317 319 320 322 322 322 321 322 321 321 320 319 321 321 321 318 317 313 307
318 319 321 321 321 321 321 322 321 320 320 319 321 321 320 319 319 318 317 318 317 318 317 318 317 318 318 322 322 321 321 320 320 321 320 320 320 320 321 321 318 315 313
317 319 321 323 322 322 322 322 321 320 320 321 321 321 320 319 319 319 319 320 318 318 317 317 317 318 319 319 320 320 321 320 320 319 319 319 320 320 320 315 314 314 313
317 319 320 323 322 321 321 321 321 320 321 322 322 321 321 321 320 320 321 321 321 320 318 318 320 319 319 321 320 320 320 319 318 319 319 319 320 318 315 314 313 313 314
318 319 320 321 323 322 321 321 321 321 322 322 322 321 321 321 321 322 321 322 321 321 321 320 320 321 321 321 320 320 320 319 320 319 318 318 316 314 314 313 314 314 312
313 317 319 320 323 324 323 322 321 322 321 322 321 321 322 322 321 322 322 322 323 322 322 322 322 321 321 321 320 320 319 319 320 317 307 299 297 297 303 311 310 308 307
309 312 315 318 321 323 324 323 322 322 322 320 321 322 322 323 323 322 322 323 323 322 322 321 321 321 321 318 314 318 318 314 299 293 291 290 291 290 289 294 291 295 294
308 309 312 317 320 321 323 324 323 322 321 320 319 322 323 323 323 323 323 322 322 322 322 322 319 312 301 292 295 303 299 295 292 288 287 287 288 287 287 287 286 286 287
308 309 312 315 319 322 324 324 324 324 322 320 321 321 322 322 322 322 322 321 321 319 312 301 297 293 292 291 291 290 290 289 288 286 286 285 286 286 286 285 286 286 286
312 313 314 314 315 317 323 325 326 325 324 322 321 321 321 321 321 321 319 309 303 298 293 291 290 289 288 289 288 287 286 285 284 284 284 284 284 285 285 285 284 283 283
313 313 314 315 316 315 315 323 324 324 324 323 322 322 321 319 318 309 299 296 293 290 288 288 287 286 286 287 286 285 283 282 282 283 283 283 283 285 286 284 283 283 283
312 311 312 314 315 315 317 318 321 322 321 321 320 318 314 305 298 295 292 289 288 286 286 285 285 285 285 286 286 285 283 281 281 281 282 283 282 283 283 283 282 280 279
309 310 312 313 315 317 317 315 310 306 306 303 301 300 298 294 291 289 287 286 285 284 284 284 284 285 285 285 286 286 283 282 281 281 280 280 282 282 283 281 279 278 279
305 307 308 309 308 308 306 301 298 299 298 295 293 292 291 290 288 287 286 285 284 282 282 281 281 282 283 285 286 286 285 285 282 281 280 281 282 282 281 280 280 281 281
301 301 301 302 300 301 300 294 293 293 293 291 289 288 288 287 287 285 285 284 284 282 281 281 280 280 282 282 284 283 283 283 281 281 281 281 283 281 280 281 281 279 277
295 296 297 296 293 294 294 292 292 291 289 287 287 287 286 285 286 286 285 284 283 282 282 282 281 280 280 282 283 283 282 283 282 282 281 280 281 280 280 279 278 277 275
292 292 292 292 291 291 290 291 290 289 286 285 284 283 283 282 282 282 282 282 283 284 281 280 279 277 276 277 279 279 279 279 280 281 279 277 277 276 275 275 274 274 273
284 283 283 285 290 291 290 289 289 287 285 283 282 282 281 280 280 278 278 281 281 281 281 280 278 279 279 279 279 279 279 280 281 277 275 273 272 271 271 271 271 271 269

GFSMW_sfc_thetae_099.txt.gz
Theta_e
320 319 319 319 317 318 321 319 320 321 320 320 320 320 322 324 324 325 326 325 324 322 323 323 322 320 321 320 318 313 313 311 311 309 308 309 312 313 313 313 315 316 315
317 317 317 317 315 318 320 320 321 320 321 320 320 321 323 325 324 325 325 324 322 319 320 320 318 319 317 317 314 313 311 310 309 308 308 304 306 310 310 311 313 313 316
315 316 316 315 315 318 319 320 320 319 321 320 320 320 321 321 321 323 322 321 321 319 318 319 319 318 317 315 314 314 312 310 310 310 307 306 304 305 309 309 308 309 311
316 316 315 314 314 318 320 321 321 320 321 318 319 318 317 316 318 320 322 319 320 319 318 319 319 318 317 317 315 315 313 312 309 310 312 313 314 308 305 308 308 309 309
315 315 315 315 315 317 318 320 321 320 321 320 318 318 317 317 318 317 317 318 318 320 320 320 319 318 318 318 318 317 317 316 312 312 311 310 310 311 308 305 308 308 310
315 317 316 316 315 317 318 320 320 319 320 320 319 318 315 315 313 315 315 315 317 318 318 319 319 319 319 319 320 319 318 317 317 316 315 314 310 309 309 307 308 308 310
315 315 315 315 315 316 318 319 319 319 320 320 318 317 315 314 313 314 314 314 314 316 316 317 317 318 319 320 320 319 319 318 315 316 317 316 315 315 313 310 308 307 310
315 315 315 315 316 316 316 318 318 319 320 320 319 318 316 314 314 314 314 314 314 315 317 316 317 319 320 320 320 319 319 319 318 316 316 316 316 316 315 312 309 305 305
314 314 315 316 316 316 316 316 316 318 320 320 320 318 317 315 314 314 313 314 315 316 317 316 316 316 319 320 320 319 319 318 317 317 315 316 316 316 316 315 313 311 307
314 315 314 316 317 317 316 316 317 317 318 320 320 319 318 317 316 315 314 315 314 315 315 315 315 316 318 319 319 319 319 318 317 317 315 317 316 316 317 318 318 316 313
314 315 315 316 318 317 317 316 316 316 316 318 320 320 318 317 317 315 315 317 316 316 315 316 315 315 315 315 317 317 318 316 316 315 315 316 317 317 318 317 318 316 314
312 315 316 316 317 317 317 317 317 317 317 317 319 319 318 317 316 316 316 317 316 316 316 315 315 315 314 314 314 314 317 316 315 316 315 316 316 315 317 318 316 312 313
307 314 317 316 317 316 317 317 318 317 318 318 317 318 318 316 315 316 317 317 317 315 316 316 314 314 315 315 315 317 317 316 317 316 314 315 312 311 311 311 312 313 312
304 309 316 317 316 317 318 318 318 318 318 318 318 317 318 318 316 317 317 318 318 317 315 315 315 316 316 316 316 317 317 316 312 300 297 295 294 295 297 302 298 301 301
308 307 306 316 318 317 317 318 318 318 318 318 318 317 317 319 318 318 318 318 319 320 319 318 318 317 318 317 317 316 312 302 293 291 290 290 291 290 290 293 292 294 292
310 311 311 311 313 319 318 318 318 318 319 318 318 319 319 319 318 318 318 317 318 319 318 318 318 312 300 293 297 302 297 294 290 287 287 288 288 288 288 287 287 287 288
308 309 309 310 311 313 320 318 318 319 318 317 318 319 319 319 319 319 318 317 315 316 302 298 296 292 291 291 292 291 291 289 287 286 286 286 286 286 286 285 285 285 285
308 308 308 309 310 312 312 320 320 319 318 317 317 318 320 319 319 319 318 313 302 297 293 291 290 288 288 289 288 287 286 285 285 285 285 285 285 285 285 284 283 283 283
307 307 308 309 311 310 311 310 318 319 318 317 316 317 318 318 317 308 297 295 292 290 288 288 287 286 286 287 287 286 284 283 283 283 283 283 283 285 287 284 282 281 282
306 305 307 309 307 306 308 309 309 314 315 316 316 316 316 314 300 295 292 290 288 286 286 285 286 286 285 286 286 285 283 281 281 282 282 283 283 283 282 280 279 279 280
304 304 304 305 303 303 301 298 299 298 300 298 300 299 297 295 292 290 289 287 286 285 284 284 284 285 285 285 286 285 283 282 280 280 280 282 282 282 282 282 281 280 280
299 300 300 300 299 299 297 294 293 294 296 296 295 293 293 292 291 288 286 285 285 283 283 282 282 283 284 285 286 285 284 283 280 280 281 281 282 282 282 281 280 279 278
293 295 296 297 296 295 294 292 292 292 292 291 290 290 290 289 288 286 284 284 284 283 282 281 280 280 282 282 283 283 283 282 281 281 282 282 282 281 280 279 278 277 275
290 291 293 292 291 291 291 291 291 290 289 288 287 287 286 286 286 285 285 284 283 282 281 280 280 280 280 280 281 282 282 283 281 281 281 280 279 278 277 276 275 274 272
286 286 285 289 289 289 289 289 288 288 285 284 283 282 282 281 280 281 283 282 282 281 279 278 278 276 276 278 280 280 280 280 279 278 276 275 275 273 273 272 271 271 270
283 283 283 284 285 288 287 287 287 285 283 282 281 280 279 279 279 278 278 281 280 281 281 280 278 279 280 280 281 281 281 279 278 274 272 269 269 269 269 269 268 269 268

GFSMW_sfc_thetae_102.txt.gz
Theta_e
317 316 318 318 317 316 316 317 316 320 321 319 319 318 321 322 324 327 328 328 325 321 317 319 316 317 315 317 315 312 311 309 310 308 306 308 313 314 314 316 315 314 314
314 316 316 316 316 316 315 316 317 321 320 319 318 318 321 324 323 325 326 326 325 323 319 321 318 320 318 316 314 312 309 308 309 307 305 304 306 309 311 313 315 313 315
313 314 314 314 314 314 315 317 317 319 319 320 320 320 321 324 321 322 321 322 322 323 322 322 320 320 319 317 315 313 311 311 308 311 306 302 301 304 307 308 311 311 311
315 315 314 313 314 314 316 317 317 316 318 320 320 319 319 319 321 322 321 318 319 320 321 319 320 319 318 316 315 314 311 310 309 309 311 312 311 304 305 308 307 308 310
314 314 313 314 314 316 316 316 317 317 318 319 319 319 318 320 321 322 319 317 317 319 321 320 318 318 317 316 315 313 312 311 310 309 308 307 309 310 307 303 306 307 308
314 315 314 314 314 315 316 317 316 317 318 318 319 318 316 316 317 318 318 316 317 318 319 320 320 318 317 317 318 317 315 314 312 312 312 310 308 308 308 305 306 306 309
314 313 312 312 313 313 315 317 316 317 319 317 318 317 316 316 316 317 316 315 316 316 317 318 318 318 318 318 319 318 317 316 315 314 313 315 315 313 312 309 307 307 309
314 313 313 313 313 313 315 317 317 317 319 318 315 317 317 316 316 317 317 316 316 316 317 317 317 317 318 318 319 319 318 317 316 315 316 316 317 316 315 312 309 304 304
313 313 314 313 314 314 315 316 317 319 319 319 318 316 316 314 315 316 317 316 317 317 316 316 316 316 317 318 318 318 317 317 317 316 316 315 316 314 315 313 312 309 304
313 314 314 314 315 315 315 316 316 318 319 320 319 317 316 314 314 315 314 315 315 316 316 315 315 316 316 317 318 317 318 317 317 317 316 315 315 314 314 315 316 314 312
312 314 315 315 315 316 315 314 315 316 318 320 320 318 316 315 313 313 312 313 314 315 316 315 315 314 314 316 317 316 317 317 316 315 316 316 316 316 316 314 315 314 313
306 314 315 315 315 314 315 314 315 315 316 319 320 319 318 316 315 313 312 314 312 313 314 316 315 314 313 314 315 316 316 316 314 315 313 315 316 315 316 315 314 314 315
306 310 313 315 315 314 315 315 315 315 316 316 319 319 318 316 316 314 314 315 315 314 313 314 314 314 314 313 313 314 313 314 315 315 315 315 312 312 310 310 313 313 312
308 309 312 314 315 316 316 315 316 316 316 316 316 317 318 317 317 315 314 314 315 314 314 314 313 313 313 313 313 313 312 313 312 302 299 297 297 297 299 302 298 300 298
308 308 309 311 312 316 316 317 317 317 317 316 315 315 317 318 317 316 315 315 315 315 314 314 314 314 313 313 312 312 312 309 295 292 291 291 291 290 290 293 291 293 292
306 307 307 308 310 312 316 317 317 317 317 316 315 316 316 317 316 316 315 315 315 315 314 314 313 312 310 295 297 306 302 296 291 288 288 288 289 288 288 288 287 287 288
305 306 306 308 309 309 311 311 317 318 317 316 317 317 316 316 316 316 315 315 314 315 316 312 306 295 294 293 294 293 293 290 288 287 287 286 287 286 286 285 285 285 285
305 304 305 307 307 306 306 309 316 318 317 316 317 318 317 316 316 316 315 315 309 303 297 294 292 289 289 290 290 289 288 286 286 286 286 285 285 285 284 283 282 282 283
304 303 304 306 304 302 303 303 304 308 317 316 316 317 318 316 316 315 313 298 295 293 291 290 288 287 286 288 288 287 285 284 283 284 284 285 284 286 286 282 281 281 281
301 300 301 302 300 300 301 299 299 300 300 304 315 315 316 316 313 301 296 293 291 288 287 286 286 286 285 287 287 286 284 282 282 282 282 282 282 282 283 281 280 278 278
296 297 298 298 297 297 298 296 296 295 297 298 303 302 303 300 297 293 290 288 286 285 285 284 285 285 285 285 286 285 282 281 281 280 280 281 283 283 282 281 279 278 279
293 294 295 296 294 294 295 294 292 294 294 294 294 295 296 293 291 289 288 287 286 284 284 283 283 284 284 285 284 284 283 283 281 280 280 282 282 281 280 279 278 277 276
290 291 292 293 292 292 292 291 291 292 291 290 289 289 289 289 288 286 285 284 285 284 282 282 280 280 282 283 284 283 283 282 281 281 282 282 280 279 278 277 276 274 273
285 287 288 290 289 290 289 289 289 289 288 287 287 287 286 286 286 286 285 284 283 282 281 280 279 279 280 280 281 282 282 283 281 278 277 277 276 275 274 273 273 272 271
284 285 285 285 288 288 287 287 287 286 283 283 282 281 281 281 280 281 281 281 282 281 279 279 279 278 277 279 281 281 279 278 277 277 276 274 273 272 271 270 270 271 270
282 283 283 284 285 286 286 286 286 284 282 281 280 280 280 280 280 280 279 282 281 281 281 281 280 281 282 283 283 281 280 278 277 273 270 269 269 268 268 267 268 268 268

GFSMW_sfc_thetae_105.txt.gz
Theta_e
314 316 317 317 316 316 316 316 315 316 318 320 319 319 321 322 324 327 325 326 323 322 319 314 312 310 311 313 311 310 309 308 310 310 307 308 310 311 312 314 314 314 315
311 315 315 315 315 315 315 315 315 317 318 319 317 319 321 323 322 325 326 324 322 318 317 313 311 310 313 313 312 310 307 307 310 307 306 302 305 309 311 313 313 312 314
311 314 315 314 314 314 314 315 317 317 318 320 319 319 319 322 321 322 325 322 320 318 317 314 313 312 316 314 312 312 308 309 306 310 306 301 301 303 306 309 311 311 312
313 315 315 313 314 314 314 315 318 315 316 318 318 318 317 318 321 321 323 324 321 320 320 316 316 315 318 316 314 314 311 310 308 306 312 311 308 303 301 306 308 312 312
312 314 315 314 314 313 315 316 316 314 315 318 318 317 319 321 321 319 318 321 322 321 321 320 319 318 318 317 315 313 311 312 310 310 307 308 309 309 306 302 306 307 309
311 314 315 313 313 314 313 315 316 316 315 316 319 319 318 319 320 318 316 318 320 319 320 320 319 317 317 315 315 313 312 312 311 311 310 309 308 307 308 306 307 306 308
310 313 311 311 313 313 313 314 315 314 316 317 318 318 318 319 319 319 317 315 317 319 319 320 318 317 317 318 317 316 316 313 312 311 311 313 312 312 310 308 307 306 308
309 313 312 312 312 313 314 315 314 314 316 315 317 317 317 318 319 319 318 317 317 319 320 320 319 319 318 318 318 317 317 316 315 314 315 313 315 315 313 311 309 304 304
312 312 312 312 312 313 313 316 315 315 316 315 316 316 317 317 317 318 318 318 318 318 319 320 319 318 319 319 318 317 317 316 316 315 315 315 315 316 316 314 312 309 302
311 312 311 312 313 313 314 315 316 315 316 316 315 315 315 316 317 317 317 317 317 317 316 316 317 317 318 318 318 317 317 316 316 316 315 315 315 315 314 314 314 312 311
306 310 313 313 313 313 313 314 315 315 316 317 316 315 315 315 314 316 316 316 316 316 316 315 315 315 316 317 316 316 316 315 316 316 315 315 315 315 314 314 314 313 313
308 311 313 313 314 315 314 312 313 316 316 318 317 315 316 315 313 314 315 315 315 316 315 315 315 314 314 314 314 313 314 315 315 315 314 314 315 314 315 314 313 313 312
307 310 313 313 314 315 315 315 312 313 315 317 317 316 314 314 313 312 311 313 315 315 316 315 314 314 314 314 314 314 314 314 314 314 314 315 314 314 314 311 311 311 310
306 306 310 311 315 316 315 315 315 314 313 314 315 315 315 314 314 313 311 312 312 312 312 314 314 313 313 313 313 313 311 311 313 309 304 300 301 302 302 303 302 300 300
305 305 305 310 311 312 316 316 316 315 314 313 313 314 315 315 316 313 312 312 313 312 311 311 311 311 311 311 310 310 308 307 298 294 292 292 292 291 293 296 293 295 293
305 305 305 307 308 308 309 311 316 316 316 314 313 314 316 315 314 314 313 312 312 312 312 311 311 310 310 301 299 305 306 301 295 290 289 289 289 288 288 287 287 287 289
304 304 304 305 305 304 306 306 309 316 317 316 316 315 315 315 315 315 315 313 311 312 310 309 309 306 301 294 296 295 297 294 291 288 287 287 287 286 285 285 285 284 284
302 302 303 304 303 302 302 304 306 310 317 316 316 316 315 315 316 314 314 314 313 310 307 300 296 293 292 292 293 291 290 288 287 287 286 285 284 284 283 283 282 282 282
300 301 302 303 299 299 299 300 301 303 305 315 316 317 316 316 315 314 313 309 302 298 294 292 291 289 288 289 289 289 286 285 284 285 285 285 284 285 285 282 281 280 279
297 296 297 299 295 295 297 298 298 298 298 300 305 315 317 316 314 314 302 295 295 290 288 286 287 287 286 288 288 287 285 282 281 282 282 283 283 284 283 281 280 277 277
293 294 295 294 292 294 296 296 295 293 295 297 299 300 311 314 308 299 296 292 288 286 285 284 285 285 285 286 286 286 283 281 281 281 281 282 283 282 282 280 278 277 277
289 290 292 291 291 292 292 292 290 292 293 293 292 292 294 296 298 294 290 288 286 284 283 283 282 283 284 285 285 284 283 283 281 280 280 281 281 280 279 278 277 277 275
287 288 289 290 290 290 289 288 289 290 290 289 288 288 288 289 290 290 288 286 286 285 283 282 281 281 282 283 284 283 283 282 281 280 280 280 279 278 277 276 275 273 272
285 286 286 286 287 288 288 287 287 288 287 285 286 286 285 285 285 286 286 285 284 282 281 280 279 280 280 281 282 282 282 281 279 277 275 275 275 273 273 273 272 271 271
283 284 284 285 285 286 286 286 286 285 283 282 282 281 281 281 281 281 282 282 282 282 280 280 280 279 279 280 281 279 278 277 276 275 274 273 272 270 270 270 270 270 269
282 282 282 283 283 283 283 284 285 284 282 281 281 280 280 280 280 280 280 282 282 283 283 282 281 281 282 282 282 281 280 278 276 273 270 269 269 268 268 268 268 268 267

GFSMW_sfc_thetae_108.txt.gz
Theta_e
304 312 313 316 318 318 319 319 318 316 320 321 320 322 322 323 324 325 326 324 324 325 326 322 317 317 316 313 312 310 310 308 312 309 308 309 310 311 312 314 314 315 316
306 313 312 314 318 319 318 317 318 317 320 321 320 321 320 323 323 325 325 324 325 324 322 317 316 315 314 311 311 311 307 307 312 308 307 304 307 310 312 312 314 314 316
301 310 312 313 315 317 316 317 316 318 318 316 319 318 320 322 321 322 323 324 323 321 318 317 314 312 313 310 311 311 310 309 307 313 307 301 303 305 308 310 311 313 312
302 308 312 312 315 317 316 314 317 317 316 316 316 315 317 318 320 321 324 323 321 318 315 314 311 312 313 311 311 312 309 312 307 308 311 309 306 303 302 306 309 312 312
300 306 312 314 316 315 314 316 318 316 314 314 317 316 316 319 321 318 321 318 318 318 315 313 312 313 314 313 312 311 310 312 309 310 307 309 309 309 305 302 305 307 311
300 307 312 313 314 314 315 316 315 315 313 314 318 316 315 319 319 317 317 317 317 318 315 316 315 317 316 314 313 313 312 312 312 310 310 310 309 309 308 306 307 306 309
301 307 310 311 313 313 314 314 316 315 315 314 318 317 317 320 318 317 317 318 317 317 316 317 317 316 316 315 314 313 312 311 311 310 311 312 312 313 312 310 308 308 310
308 308 310 310 313 313 313 315 315 315 316 317 317 318 319 320 320 318 317 318 319 318 318 316 316 317 317 317 316 315 315 314 312 312 312 313 314 314 313 311 309 306 307
305 308 310 311 313 313 313 314 314 315 315 315 317 317 317 318 319 319 318 318 320 320 319 317 316 316 317 317 316 316 316 315 315 314 314 314 315 315 316 315 313 309 304
306 309 311 310 313 313 315 315 314 314 315 315 315 316 317 317 318 318 318 317 318 319 319 319 318 317 317 317 317 316 316 316 315 315 314 314 314 315 314 314 313 312 310
305 311 312 312 313 314 314 315 314 314 315 315 313 311 312 317 317 317 317 317 317 318 319 319 318 318 318 317 317 316 316 315 315 315 314 314 315 314 313 313 313 312 312
304 309 313 313 312 312 314 315 315 316 316 316 315 312 312 313 312 316 316 317 316 317 317 317 318 317 318 318 317 316 316 315 315 315 314 314 314 313 314 314 313 313 314
304 306 310 313 314 313 313 314 315 315 317 318 315 312 311 312 312 314 315 316 316 316 315 315 315 316 317 317 317 317 316 315 315 315 314 314 314 313 314 313 313 312 311
305 304 306 309 311 315 315 314 312 313 314 316 316 315 311 312 313 312 312 314 315 315 314 315 314 314 314 314 315 315 314 314 314 313 311 308 308 308 307 307 307 305 304
305 304 305 304 306 308 312 315 314 313 313 313 314 315 315 315 314 313 311 312 313 314 315 314 314 314 313 313 313 313 312 310 303 297 294 293 293 292 294 299 298 299 297
304 304 305 303 303 303 305 307 309 314 314 312 312 314 315 314 314 313 312 311 311 311 311 312 313 311 310 300 300 307 310 307 299 291 290 289 289 288 288 287 287 288 291
302 302 303 303 301 301 301 302 305 308 314 313 313 313 314 314 313 313 312 311 311 312 310 309 307 305 304 296 298 297 304 301 296 290 287 286 286 286 285 285 284 284 283
300 299 299 300 298 298 298 300 303 304 306 314 315 314 314 314 314 313 313 312 311 310 310 307 305 301 297 293 294 292 293 291 290 288 287 285 284 284 284 282 280 280 279
296 296 297 297 295 295 297 299 299 300 301 301 307 315 315 314 314 313 313 312 310 306 302 299 297 295 291 291 291 290 288 286 285 285 285 284 284 285 285 280 278 278 278
293 293 295 294 293 293 295 296 296 295 295 296 298 301 306 314 312 313 311 301 303 293 290 288 288 288 287 289 289 289 286 284 283 283 284 284 283 284 283 280 278 276 276
289 291 293 291 291 291 292 292 291 290 293 293 294 295 297 307 314 310 299 296 290 287 285 284 285 285 286 287 288 287 284 283 282 282 281 282 283 282 281 280 277 276 276
288 289 290 290 290 289 289 288 287 289 291 291 290 290 290 292 297 298 293 290 288 285 284 283 282 283 284 285 285 285 284 284 281 279 280 281 281 280 279 278 278 276 274
286 286 286 288 287 288 287 286 286 287 288 287 287 287 287 288 289 289 288 287 287 285 283 282 281 281 283 283 284 284 283 282 279 279 280 280 279 278 276 276 275 273 272
283 284 285 285 284 286 286 285 286 285 284 283 282 283 283 284 285 285 285 285 285 284 283 281 280 280 281 281 282 281 281 281 278 276 274 274 274 273 272 272 272 271 271
283 284 283 283 282 283 283 284 284 284 282 282 282 281 281 282 281 282 282 282 283 284 282 281 281 279 279 280 280 279 276 275 274 274 273 272 271 270 270 270 270 269 269
281 281 280 280 281 280 280 281 282 282 281 280 281 281 281 281 281 280 281 284 283 284 283 283 282 281 282 281 281 280 279 278 276 272 270 269 269 268 268 267 267 267 267

GFSMW_sfc_thetae_111.txt.gz
Theta_e
309 312 321 322 323 326 327 328 329 328 326 325 324 324 322 325 326 327 327 327 326 326 326 326 323 323 321 321 323 320 320 319 322 318 318 319 321 322 323 324 323 323 324
306 309 318 319 321 323 326 325 327 325 326 325 325 328 327 326 327 328 328 328 326 326 326 325 322 320 318 318 320 321 319 318 321 318 317 312 315 319 320 322 322 323 323
306 309 312 319 319 322 321 322 324 324 326 327 325 323 325 325 324 326 327 326 325 325 325 324 322 320 317 315 316 321 320 316 319 321 318 311 311 314 318 320 321 321 321
310 309 309 317 319 321 320 322 323 323 323 323 322 320 321 320 323 324 326 324 324 324 322 320 321 320 318 315 316 321 322 320 316 319 317 321 318 313 311 316 319 320 320
311 308 309 315 320 322 318 321 324 323 320 321 321 320 322 323 324 324 323 324 323 321 319 318 318 318 317 317 315 318 321 321 319 318 317 316 317 317 314 311 314 317 320
313 316 314 317 319 322 317 322 323 319 319 323 322 322 320 321 321 321 321 320 319 317 317 315 314 316 316 316 317 318 321 321 320 320 319 317 315 315 317 316 314 314 316
312 314 315 316 318 316 316 318 319 316 319 322 323 322 320 320 322 321 319 316 316 314 313 313 314 316 317 316 316 318 319 320 320 321 320 321 320 321 320 319 314 314 317
312 314 315 316 316 314 315 317 316 316 318 321 322 322 322 321 323 321 321 317 317 314 315 314 317 318 318 316 316 316 317 320 318 317 319 321 321 322 321 318 316 315 315
313 314 315 316 316 315 314 316 316 317 316 319 320 320 321 322 321 320 321 320 320 317 316 317 318 318 317 317 317 316 316 316 316 317 319 319 319 321 322 321 321 316 308
312 315 315 316 316 315 315 316 317 316 317 317 318 319 319 321 321 320 319 320 320 317 316 316 317 317 317 318 318 318 318 317 318 318 318 319 319 320 320 320 319 319 314
310 312 314 314 314 315 315 315 315 316 316 316 317 317 318 319 319 319 319 319 320 319 316 315 314 314 314 316 317 316 317 317 318 319 320 318 318 319 319 318 316 316 314
308 310 310 314 313 314 314 314 315 316 317 316 317 317 317 318 319 318 318 319 318 320 319 318 316 314 313 314 315 316 316 315 315 316 315 315 314 315 317 314 315 314 313
306 307 307 308 309 314 314 315 316 316 317 318 318 316 316 316 317 318 317 318 317 317 317 319 317 316 315 315 315 316 316 315 315 315 315 314 314 314 314 314 314 315 313
307 307 307 305 305 307 314 315 316 318 319 319 319 316 316 318 316 317 316 317 318 317 317 317 317 318 317 316 316 316 316 316 316 316 315 314 314 313 313 313 313 310 310
306 306 305 304 303 303 304 307 312 316 319 319 318 317 318 318 317 315 316 316 316 316 316 316 315 316 316 317 317 317 316 315 312 305 301 299 298 295 298 303 304 303 302
304 304 305 302 300 300 300 303 305 307 313 317 318 318 317 317 317 316 315 315 316 316 315 315 314 313 312 300 300 309 313 310 302 295 292 292 290 289 288 288 287 292 299
301 300 300 299 298 297 298 299 303 306 308 315 316 317 317 317 317 317 315 314 314 315 314 314 314 312 312 298 299 299 310 306 298 292 289 288 287 288 286 285 284 283 284
297 297 298 295 295 296 297 299 302 302 304 303 309 315 317 317 317 317 315 316 315 313 312 311 311 311 309 296 296 295 303 299 295 291 289 287 285 285 284 282 280 280 280
295 296 296 294 294 293 296 298 297 297 298 297 299 300 304 315 316 316 315 316 313 313 313 310 308 307 299 292 292 294 292 288 286 286 286 285 284 284 285 281 279 278 279
293 294 294 293 292 292 294 294 292 293 292 293 295 296 298 300 312 315 315 313 312 308 299 295 299 294 291 290 291 291 287 285 284 285 285 285 284 283 282 280 278 275 275
291 292 293 291 290 290 292 291 289 288 290 291 292 292 293 295 298 312 308 305 296 292 289 288 289 291 291 290 290 290 288 285 283 283 283 283 283 282 281 280 277 275 275
288 289 289 289 289 289 289 288 287 287 288 289 289 289 289 290 292 295 294 292 290 287 285 284 284 285 286 287 288 288 286 286 283 281 281 282 282 281 280 278 278 277 275
286 287 287 287 287 287 287 285 285 286 286 285 285 285 286 286 287 288 288 287 287 286 284 283 281 282 284 285 285 284 283 282 280 280 281 281 280 279 277 277 276 274 273
285 286 286 284 283 284 284 284 285 286 284 283 283 283 283 283 284 285 286 286 285 284 283 281 281 281 281 281 282 281 281 281 279 276 274 274 274 273 273 274 274 273 273
284 283 282 282 282 282 282 283 284 284 283 283 283 282 282 282 282 283 283 283 284 284 282 281 281 280 278 279 279 276 275 274 274 274 273 272 272 271 271 271 271 271 271
282 281 281 281 281 281 280 281 282 283 283 282 281 281 281 282 282 281 281 284 284 284 283 283 281 280 280 280 280 279 278 278 276 273 271 271 270 270 270 269 269 269 269

GFSMW_sfc_thetae_114.txt.gz
Theta_e
315 317 318 321 328 329 329 332 335 338 332 331 329 331 331 330 332 334 330 329 330 329 329 328 328 329 327 330 329 330 328 326 328 324 323 323 325 325 324 325 324 325 326
312 313 315 321 328 329 330 332 334 336 330 331 333 332 328 329 329 331 331 331 328 327 327 327 327 326 327 326 325 328 327 326 328 322 321 315 318 323 324 323 323 325 324
309 312 315 318 325 328 330 331 333 336 334 336 332 333 332 330 330 330 330 329 328 327 327 326 325 324 324 322 322 327 327 323 326 327 321 314 313 318 322 323 322 323 323
314 316 317 317 322 327 331 331 333 333 333 336 332 331 328 325 328 330 331 329 332 331 327 326 324 323 323 322 321 323 324 326 322 325 323 323 321 315 314 321 322 322 322
317 319 319 319 320 327 329 327 329 330 332 335 333 330 327 328 328 330 330 331 330 328 328 325 324 322 321 320 319 321 322 324 326 324 322 323 322 323 317 313 316 321 323
317 319 321 319 321 329 324 324 327 326 327 329 331 329 327 325 326 327 328 328 327 326 324 322 323 322 320 318 320 320 322 327 327 325 323 321 319 319 317 314 316 317 320
318 319 320 321 322 325 321 322 325 323 323 325 327 328 327 324 323 323 326 324 322 318 319 319 319 320 319 318 319 320 321 325 326 325 325 323 322 321 319 317 315 315 320
319 320 321 323 321 320 320 321 323 321 322 326 326 327 325 325 325 327 326 323 320 318 317 316 317 318 318 318 317 318 320 322 325 327 325 323 322 323 322 319 319 316 317
319 320 321 322 321 319 318 319 320 321 322 327 327 326 325 325 324 328 326 321 321 316 314 315 315 316 316 317 317 317 318 321 324 327 328 325 324 326 325 324 323 318 312
317 318 319 319 319 318 319 319 319 320 321 325 324 324 324 326 326 328 323 320 320 317 314 316 316 316 315 316 317 318 321 323 324 322 322 323 323 324 325 325 323 322 318
315 316 315 317 318 317 317 318 317 319 320 321 322 322 322 324 326 325 324 321 320 317 315 316 316 315 316 317 316 319 318 319 320 321 321 321 323 323 322 323 322 320 319
313 314 315 310 309 314 315 316 316 318 319 320 320 319 322 324 324 322 321 321 318 317 316 316 316 316 317 318 318 319 319 319 318 319 318 319 320 321 322 321 320 320 320
311 311 311 310 305 306 313 314 315 317 319 318 317 319 320 321 322 323 323 321 320 318 316 315 314 314 316 316 317 317 316 316 317 317 317 319 320 320 320 320 317 318 314
310 310 310 307 305 303 304 306 314 318 318 317 318 318 320 323 324 325 323 321 320 318 318 316 314 314 313 313 315 316 316 316 316 316 316 315 316 315 314 313 314 313 312
309 309 307 305 302 301 302 302 305 308 317 318 319 319 321 322 322 322 323 323 322 320 319 318 317 315 314 314 313 313 314 316 315 312 311 307 304 300 303 310 311 311 311
306 307 306 305 301 298 300 301 303 305 309 312 319 320 319 319 320 321 321 321 322 322 322 320 316 315 314 302 301 309 313 314 313 302 296 294 292 290 289 289 287 290 303
303 303 302 301 302 299 298 300 300 302 305 305 315 318 317 317 317 320 319 319 319 320 319 318 318 317 315 298 299 300 314 313 305 296 292 290 289 288 287 286 285 284 284
302 302 301 300 300 301 299 300 298 299 299 300 301 303 310 317 318 317 317 319 319 318 318 318 318 317 315 297 298 297 306 301 297 293 291 289 288 289 287 284 282 281 281
300 300 300 299 299 298 299 298 296 296 295 294 296 297 299 302 308 317 317 319 318 318 317 316 315 315 317 295 295 298 297 293 291 291 290 288 286 286 287 283 280 279 279
298 299 299 298 296 296 298 293 293 292 291 292 293 295 295 296 300 302 316 317 319 318 314 311 309 302 307 292 293 299 294 290 288 287 286 286 285 284 284 282 279 276 275
295 297 297 295 294 294 295 293 291 288 290 291 291 293 292 292 295 297 303 312 306 299 294 289 289 289 291 291 291 293 295 289 286 285 283 284 283 283 282 280 277 275 275
294 294 294 292 292 292 291 290 289 288 289 289 289 290 290 290 291 293 293 294 293 289 287 286 285 286 287 287 288 288 287 287 284 282 282 282 282 281 280 278 278 277 276
292 292 292 291 290 289 288 287 287 288 287 287 287 287 288 288 288 288 289 288 287 286 285 284 283 283 284 284 285 285 284 283 281 281 282 282 281 280 278 278 277 276 275
289 289 289 288 287 288 286 286 287 288 287 286 285 285 285 285 285 286 286 286 285 284 283 282 281 280 280 281 282 281 281 282 279 277 275 275 276 275 275 275 276 276 277
288 287 286 285 285 286 284 285 286 287 285 284 284 284 284 284 283 283 284 284 284 285 282 281 281 279 276 276 277 276 274 274 274 274 273 273 273 272 272 272 273 274 274
286 285 284 284 283 284 283 284 285 286 285 283 283 283 283 283 283 282 281 283 283 283 282 282 280 279 280 280 279 279 278 278 277 274 272 272 273 272 272 272 271 272 272

GFSMW_sfc_thetae_117.txt.gz
Theta_e
317 319 320 321 322 326 328 329 332 340 343 340 338 335 333 333 334 336 336 338 338 336 337 336 335 331 329 328 328 327 325 323 329 324 323 324 326 328 323 324 323 325 326
314 316 318 320 323 323 329 330 333 337 340 337 335 337 337 336 337 335 335 335 334 335 334 334 331 329 328 327 325 326 322 322 328 322 320 315 318 322 322 323 323 327 323
312 313 315 317 320 324 329 330 333 335 339 333 335 337 336 334 331 330 332 334 333 331 330 330 330 328 327 325 324 325 322 319 324 327 321 315 312 317 321 322 322 326 323
311 312 313 316 319 324 330 332 333 334 337 335 335 336 331 328 331 331 332 332 334 331 329 328 327 327 327 326 324 326 326 323 321 325 325 325 322 315 313 320 321 322 322
314 316 317 319 320 324 330 333 333 334 336 336 336 335 334 332 332 331 332 331 332 333 330 327 326 325 325 325 323 324 325 324 325 324 323 323 323 323 318 313 316 319 321
316 318 321 324 322 330 332 333 332 333 335 335 336 335 334 332 329 329 329 330 331 333 330 329 326 324 324 323 323 323 324 324 325 326 326 323 320 319 320 317 318 317 319
317 319 320 322 322 326 330 326 328 330 331 333 335 335 334 332 330 329 328 329 329 329 329 328 325 323 323 322 322 322 322 322 322 322 323 327 324 324 323 320 318 316 319
319 320 322 324 324 326 327 322 325 326 326 330 333 333 333 330 329 328 328 327 328 328 327 326 323 323 322 322 321 321 322 322 322 321 323 325 325 324 323 319 319 314 316
319 321 323 324 324 323 321 321 323 324 323 327 330 329 330 329 327 328 329 329 329 326 326 321 320 321 320 320 320 320 320 321 322 322 322 322 324 328 327 326 325 318 313
318 319 320 321 320 319 320 320 322 322 323 327 328 328 328 329 328 328 328 328 326 324 318 316 316 317 318 318 318 319 320 320 321 323 322 322 324 325 328 327 325 325 320
317 317 316 316 316 319 319 319 319 320 321 325 326 327 326 327 326 327 328 327 324 321 318 316 316 315 315 316 316 317 319 319 320 321 322 322 324 322 324 326 324 323 321
315 315 315 314 312 311 316 317 318 319 321 322 323 325 324 325 326 326 326 326 322 320 316 316 316 315 315 316 315 316 318 318 319 320 321 322 323 323 322 322 321 321 320
313 313 313 311 309 306 306 307 316 318 319 321 321 322 322 324 325 324 325 322 319 317 316 317 315 315 314 315 316 316 317 318 319 321 322 322 322 321 322 321 320 320 318
312 311 310 309 307 304 304 304 306 308 318 320 320 320 320 321 323 325 325 323 320 317 316 316 316 316 315 315 315 316 316 319 320 321 320 320 319 317 319 318 320 319 318
308 308 308 308 306 304 302 303 304 305 308 312 318 319 322 323 324 324 324 324 321 319 317 315 314 314 315 315 315 316 316 317 314 312 313 312 311 309 312 316 316 315 311
307 306 306 306 306 304 300 301 302 302 304 304 309 321 321 322 322 323 324 323 322 321 319 316 315 313 312 302 300 309 314 314 312 310 301 299 296 292 291 290 289 294 310
306 305 304 304 304 305 302 299 299 301 300 300 301 303 317 318 320 322 322 321 322 322 321 320 317 314 314 299 300 299 312 311 312 306 298 293 291 291 289 287 286 285 285
304 303 303 303 303 304 305 303 298 297 297 296 296 297 300 304 314 318 320 321 321 321 320 321 320 317 315 297 298 297 313 311 305 300 300 295 289 288 287 285 282 281 282
303 303 302 301 301 301 302 302 299 294 294 293 293 294 296 297 300 307 318 320 320 320 319 319 317 317 316 295 294 299 300 294 291 291 291 290 288 288 288 283 280 280 280
301 301 301 300 299 299 300 299 296 293 290 290 291 292 294 293 295 298 301 311 319 319 319 314 306 298 302 292 293 299 294 289 287 286 286 286 286 286 285 283 280 277 277
298 301 299 297 296 296 298 296 294 291 290 290 291 291 290 292 293 294 298 301 306 299 293 290 290 290 292 291 292 293 292 288 285 284 283 284 284 284 283 281 278 275 276
297 297 297 295 294 294 294 293 291 291 290 289 289 289 289 289 289 291 292 294 294 289 287 286 285 286 287 288 289 289 288 287 284 282 282 283 282 281 280 279 279 278 276
294 295 294 293 292 292 291 290 290 291 290 288 287 286 287 287 288 287 288 288 288 287 286 284 282 282 284 284 286 285 285 284 281 281 282 282 281 280 279 279 278 277 276
291 292 292 290 289 290 289 289 290 290 288 286 285 286 284 284 285 286 285 286 285 285 284 283 281 280 280 281 282 282 282 282 280 278 277 276 276 276 276 276 277 277 277
290 290 289 287 287 288 287 287 288 289 286 285 285 284 284 283 282 282 283 283 283 284 282 281 280 277 275 276 277 277 275 275 275 275 275 274 273 273 273 273 274 275 275
286 286 285 285 284 285 284 284 286 287 286 283 283 283 283 283 282 281 280 283 282 282 282 281 280 279 280 280 280 279 279 278 278 275 273 273 274 273 274 274 274 274 275